<?xml version="1.0" encoding="UTF-8" standalone="no" ?>
<gpx xmlns="http://www.topografix.com/GPX/1/1" xmlns:xsi="http://www.w3.org/2001/XMLSchema-instance" xsi:schemaLocation="http://www.topografix.com/GPX/1/1 http://www.topografix.com/GPX/1/1/gpx.xsd" version="1.1" creator="VisuGPX - https://www.visugpx.com">
  <metadata>
    <name>around the block w/ komoot</name>
    <desc><![CDATA[échauffement avec komoot]]></desc>
  </metadata>
  <trk>
    <name><![CDATA[around the block]]></name>
    <trkseg>
      <trkpt lat="50.46495" lon="1.57756">
        <ele>55.846355</ele>
        <time>2020-06-12T17:29:33.446Z</time>
      </trkpt>
      <trkpt lat="50.46482" lon="1.5777">
        <ele>55.846355</ele>
        <time>2020-06-12T17:30:37.640Z</time>
      </trkpt>
      <trkpt lat="50.46472" lon="1.57778">
        <ele>55.846355</ele>
        <time>2020-06-12T17:30:40.648Z</time>
      </trkpt>
      <trkpt lat="50.4646" lon="1.57787">
        <ele>55.846355</ele>
        <time>2020-06-12T17:30:43.630Z</time>
      </trkpt>
      <trkpt lat="50.46451" lon="1.57794">
        <ele>55.846355</ele>
        <time>2020-06-12T17:30:45.652Z</time>
      </trkpt>
      <trkpt lat="50.46441" lon="1.578">
        <ele>55.846355</ele>
        <time>2020-06-12T17:30:47.640Z</time>
      </trkpt>
      <trkpt lat="50.46431" lon="1.57807">
        <ele>55.846355</ele>
        <time>2020-06-12T17:30:49.627Z</time>
      </trkpt>
      <trkpt lat="50.46421" lon="1.57814">
        <ele>55.846355</ele>
        <time>2020-06-12T17:30:51.666Z</time>
      </trkpt>
      <trkpt lat="50.4641" lon="1.57821">
        <ele>55.795944</ele>
        <time>2020-06-12T17:30:53.632Z</time>
      </trkpt>
      <trkpt lat="50.46399" lon="1.57828">
        <ele>55.669585</ele>
        <time>2020-06-12T17:30:55.637Z</time>
      </trkpt>
      <trkpt lat="50.46388" lon="1.57836">
        <ele>55.539332</ele>
        <time>2020-06-12T17:30:57.640Z</time>
      </trkpt>
      <trkpt lat="50.46376" lon="1.57843">
        <ele>55.404431</ele>
        <time>2020-06-12T17:30:59.636Z</time>
      </trkpt>
      <trkpt lat="50.46364" lon="1.57851">
        <ele>55.269686</ele>
        <time>2020-06-12T17:31:01.634Z</time>
      </trkpt>
      <trkpt lat="50.46353" lon="1.5786">
        <ele>55.135853</ele>
        <time>2020-06-12T17:31:03.636Z</time>
      </trkpt>
      <trkpt lat="50.46341" lon="1.57868">
        <ele>55.000404</ele>
        <time>2020-06-12T17:31:05.625Z</time>
      </trkpt>
      <trkpt lat="50.46329" lon="1.57875">
        <ele>54.866238</ele>
        <time>2020-06-12T17:31:07.633Z</time>
      </trkpt>
      <trkpt lat="50.46318" lon="1.57881">
        <ele>54.736273</ele>
        <time>2020-06-12T17:31:09.635Z</time>
      </trkpt>
      <trkpt lat="50.46307" lon="1.57887">
        <ele>54.617522</ele>
        <time>2020-06-12T17:31:11.623Z</time>
      </trkpt>
      <trkpt lat="50.46301" lon="1.57901">
        <ele>54.500622</ele>
        <time>2020-06-12T17:31:13.658Z</time>
      </trkpt>
      <trkpt lat="50.46299" lon="1.57921">
        <ele>54.368984</ele>
        <time>2020-06-12T17:31:15.639Z</time>
      </trkpt>
      <trkpt lat="50.46298" lon="1.57941">
        <ele>54.234042</ele>
        <time>2020-06-12T17:31:17.627Z</time>
      </trkpt>
      <trkpt lat="50.46296" lon="1.57959">
        <ele>54.109874</ele>
        <time>2020-06-12T17:31:19.619Z</time>
      </trkpt>
      <trkpt lat="50.46294" lon="1.57977">
        <ele>53.985563</ele>
        <time>2020-06-12T17:31:21.628Z</time>
      </trkpt>
      <trkpt lat="50.46291" lon="1.57995">
        <ele>53.940863</ele>
        <time>2020-06-12T17:31:23.624Z</time>
      </trkpt>
      <trkpt lat="50.46289" lon="1.58014">
        <ele>53.932121</ele>
        <time>2020-06-12T17:31:25.635Z</time>
      </trkpt>
      <trkpt lat="50.46287" lon="1.58032">
        <ele>53.923512</ele>
        <time>2020-06-12T17:31:27.642Z</time>
      </trkpt>
      <trkpt lat="50.46283" lon="1.58049">
        <ele>53.915171</ele>
        <time>2020-06-12T17:31:29.634Z</time>
      </trkpt>
      <trkpt lat="50.4628" lon="1.58066">
        <ele>53.906934</ele>
        <time>2020-06-12T17:31:31.624Z</time>
      </trkpt>
      <trkpt lat="50.46277" lon="1.58084">
        <ele>53.898364</ele>
        <time>2020-06-12T17:31:33.627Z</time>
      </trkpt>
      <trkpt lat="50.46274" lon="1.58103">
        <ele>53.889377</ele>
        <time>2020-06-12T17:31:35.646Z</time>
      </trkpt>
      <trkpt lat="50.46271" lon="1.58122">
        <ele>53.880084</ele>
        <time>2020-06-12T17:31:37.634Z</time>
      </trkpt>
      <trkpt lat="50.46269" lon="1.58142">
        <ele>53.870637</ele>
        <time>2020-06-12T17:31:39.698Z</time>
      </trkpt>
      <trkpt lat="50.46267" lon="1.58162">
        <ele>53.861269</ele>
        <time>2020-06-12T17:31:41.639Z</time>
      </trkpt>
      <trkpt lat="50.46264" lon="1.58182">
        <ele>53.851903</ele>
        <time>2020-06-12T17:31:43.648Z</time>
      </trkpt>
      <trkpt lat="50.46261" lon="1.58201">
        <ele>53.842842</ele>
        <time>2020-06-12T17:31:45.625Z</time>
      </trkpt>
      <trkpt lat="50.46259" lon="1.58219">
        <ele>53.834187</ele>
        <time>2020-06-12T17:31:47.640Z</time>
      </trkpt>
      <trkpt lat="50.46256" lon="1.58236">
        <ele>53.825788</ele>
        <time>2020-06-12T17:31:49.624Z</time>
      </trkpt>
      <trkpt lat="50.46253" lon="1.58254">
        <ele>53.817389</ele>
        <time>2020-06-12T17:31:51.626Z</time>
      </trkpt>
      <trkpt lat="50.46251" lon="1.58272">
        <ele>53.715088</ele>
        <time>2020-06-12T17:31:53.641Z</time>
      </trkpt>
      <trkpt lat="50.46249" lon="1.5829">
        <ele>53.585449</ele>
        <time>2020-06-12T17:31:55.654Z</time>
      </trkpt>
      <trkpt lat="50.46246" lon="1.58308">
        <ele>53.456237</ele>
        <time>2020-06-12T17:31:57.665Z</time>
      </trkpt>
      <trkpt lat="50.46244" lon="1.58327">
        <ele>53.322776</ele>
        <time>2020-06-12T17:31:59.672Z</time>
      </trkpt>
      <trkpt lat="50.46243" lon="1.58346">
        <ele>53.191863</ele>
        <time>2020-06-12T17:32:01.640Z</time>
      </trkpt>
      <trkpt lat="50.46241" lon="1.58363">
        <ele>53.068537</ele>
        <time>2020-06-12T17:32:03.621Z</time>
      </trkpt>
      <trkpt lat="50.46239" lon="1.5838">
        <ele>52.94912</ele>
        <time>2020-06-12T17:32:05.636Z</time>
      </trkpt>
      <trkpt lat="50.46236" lon="1.58394">
        <ele>52.84692</ele>
        <time>2020-06-12T17:32:07.637Z</time>
      </trkpt>
      <trkpt lat="50.46237" lon="1.58409">
        <ele>52.74271</ele>
        <time>2020-06-12T17:32:09.628Z</time>
      </trkpt>
      <trkpt lat="50.46241" lon="1.58424">
        <ele>52.631845</ele>
        <time>2020-06-12T17:32:11.631Z</time>
      </trkpt>
      <trkpt lat="50.46247" lon="1.58439">
        <ele>52.506478</ele>
        <time>2020-06-12T17:32:13.639Z</time>
      </trkpt>
      <trkpt lat="50.46253" lon="1.58456">
        <ele>52.373261</ele>
        <time>2020-06-12T17:32:15.621Z</time>
      </trkpt>
      <trkpt lat="50.46259" lon="1.58472">
        <ele>52.241183</ele>
        <time>2020-06-12T17:32:17.636Z</time>
      </trkpt>
      <trkpt lat="50.46265" lon="1.58489">
        <ele>52.106744</ele>
        <time>2020-06-12T17:32:19.621Z</time>
      </trkpt>
      <trkpt lat="50.4627" lon="1.58506">
        <ele>51.975966</ele>
        <time>2020-06-12T17:32:21.628Z</time>
      </trkpt>
      <trkpt lat="50.46276" lon="1.58524">
        <ele>51.846346</ele>
        <time>2020-06-12T17:32:23.654Z</time>
      </trkpt>
      <trkpt lat="50.46282" lon="1.5854">
        <ele>51.871815</ele>
        <time>2020-06-12T17:32:25.671Z</time>
      </trkpt>
      <trkpt lat="50.46287" lon="1.58557">
        <ele>51.897332</ele>
        <time>2020-06-12T17:32:27.646Z</time>
      </trkpt>
      <trkpt lat="50.46291" lon="1.58573">
        <ele>51.921474</ele>
        <time>2020-06-12T17:32:29.638Z</time>
      </trkpt>
      <trkpt lat="50.46297" lon="1.58589">
        <ele>51.945219</ele>
        <time>2020-06-12T17:32:31.664Z</time>
      </trkpt>
      <trkpt lat="50.46301" lon="1.58604">
        <ele>51.968894</ele>
        <time>2020-06-12T17:32:33.639Z</time>
      </trkpt>
      <trkpt lat="50.46306" lon="1.5862">
        <ele>51.991922</ele>
        <time>2020-06-12T17:32:35.635Z</time>
      </trkpt>
      <trkpt lat="50.4631" lon="1.58633">
        <ele>52.011695</ele>
        <time>2020-06-12T17:32:37.631Z</time>
      </trkpt>
      <trkpt lat="50.46319" lon="1.58646">
        <ele>52.037401</ele>
        <time>2020-06-12T17:32:40.620Z</time>
      </trkpt>
      <trkpt lat="50.46329" lon="1.5865">
        <ele>52.059566</ele>
        <time>2020-06-12T17:32:42.637Z</time>
      </trkpt>
      <trkpt lat="50.4634" lon="1.58653">
        <ele>52.084023</ele>
        <time>2020-06-12T17:32:44.640Z</time>
      </trkpt>
      <trkpt lat="50.46352" lon="1.58656">
        <ele>52.10996</ele>
        <time>2020-06-12T17:32:46.662Z</time>
      </trkpt>
      <trkpt lat="50.46365" lon="1.58661">
        <ele>52.137951</ele>
        <time>2020-06-12T17:32:48.645Z</time>
      </trkpt>
      <trkpt lat="50.46377" lon="1.58666">
        <ele>52.165461</ele>
        <time>2020-06-12T17:32:50.635Z</time>
      </trkpt>
      <trkpt lat="50.4639" lon="1.58671">
        <ele>52.19366</ele>
        <time>2020-06-12T17:32:52.624Z</time>
      </trkpt>
      <trkpt lat="50.46403" lon="1.58676">
        <ele>52.22203</ele>
        <time>2020-06-12T17:32:54.637Z</time>
      </trkpt>
      <trkpt lat="50.46416" lon="1.58681">
        <ele>52.281464</ele>
        <time>2020-06-12T17:32:56.629Z</time>
      </trkpt>
      <trkpt lat="50.46429" lon="1.58685">
        <ele>52.3506</ele>
        <time>2020-06-12T17:32:58.639Z</time>
      </trkpt>
      <trkpt lat="50.46442" lon="1.58692">
        <ele>52.41846</ele>
        <time>2020-06-12T17:33:00.632Z</time>
      </trkpt>
      <trkpt lat="50.46455" lon="1.58698">
        <ele>52.487289</ele>
        <time>2020-06-12T17:33:02.693Z</time>
      </trkpt>
      <trkpt lat="50.46468" lon="1.58704">
        <ele>52.554294</ele>
        <time>2020-06-12T17:33:04.636Z</time>
      </trkpt>
      <trkpt lat="50.4648" lon="1.5871">
        <ele>52.620039</ele>
        <time>2020-06-12T17:33:06.629Z</time>
      </trkpt>
      <trkpt lat="50.46493" lon="1.58717">
        <ele>52.68881</ele>
        <time>2020-06-12T17:33:08.621Z</time>
      </trkpt>
      <trkpt lat="50.46507" lon="1.58726">
        <ele>52.763906</ele>
        <time>2020-06-12T17:33:10.629Z</time>
      </trkpt>
      <trkpt lat="50.46521" lon="1.58734">
        <ele>52.839591</ele>
        <time>2020-06-12T17:33:12.628Z</time>
      </trkpt>
      <trkpt lat="50.46534" lon="1.58742">
        <ele>52.912986</ele>
        <time>2020-06-12T17:33:14.638Z</time>
      </trkpt>
      <trkpt lat="50.46547" lon="1.58749">
        <ele>52.982342</ele>
        <time>2020-06-12T17:33:16.635Z</time>
      </trkpt>
      <trkpt lat="50.4656" lon="1.58757">
        <ele>53.049786</ele>
        <time>2020-06-12T17:33:18.628Z</time>
      </trkpt>
      <trkpt lat="50.46571" lon="1.58766">
        <ele>53.114908</ele>
        <time>2020-06-12T17:33:20.653Z</time>
      </trkpt>
      <trkpt lat="50.46583" lon="1.58771">
        <ele>53.301599</ele>
        <time>2020-06-12T17:33:22.635Z</time>
      </trkpt>
      <trkpt lat="50.46595" lon="1.58778">
        <ele>53.6225</ele>
        <time>2020-06-12T17:33:24.647Z</time>
      </trkpt>
      <trkpt lat="50.46609" lon="1.58787">
        <ele>53.96421</ele>
        <time>2020-06-12T17:33:26.637Z</time>
      </trkpt>
      <trkpt lat="50.46622" lon="1.58796">
        <ele>54.294932</ele>
        <time>2020-06-12T17:33:28.628Z</time>
      </trkpt>
      <trkpt lat="50.46634" lon="1.58803">
        <ele>54.604831</ele>
        <time>2020-06-12T17:33:30.632Z</time>
      </trkpt>
      <trkpt lat="50.46646" lon="1.5881">
        <ele>54.909904</ele>
        <time>2020-06-12T17:33:32.656Z</time>
      </trkpt>
      <trkpt lat="50.4666" lon="1.58818">
        <ele>55.245093</ele>
        <time>2020-06-12T17:33:34.617Z</time>
      </trkpt>
      <trkpt lat="50.46672" lon="1.58824">
        <ele>55.550419</ele>
        <time>2020-06-12T17:33:36.629Z</time>
      </trkpt>
      <trkpt lat="50.46684" lon="1.58832">
        <ele>55.848251</ele>
        <time>2020-06-12T17:33:38.653Z</time>
      </trkpt>
      <trkpt lat="50.46696" lon="1.58837">
        <ele>56.148145</ele>
        <time>2020-06-12T17:33:40.642Z</time>
      </trkpt>
      <trkpt lat="50.46709" lon="1.58844">
        <ele>56.459247</ele>
        <time>2020-06-12T17:33:42.640Z</time>
      </trkpt>
      <trkpt lat="50.46722" lon="1.5885">
        <ele>56.786084</ele>
        <time>2020-06-12T17:33:44.649Z</time>
      </trkpt>
      <trkpt lat="50.46735" lon="1.58857">
        <ele>57.118329</ele>
        <time>2020-06-12T17:33:46.620Z</time>
      </trkpt>
      <trkpt lat="50.46747" lon="1.58863">
        <ele>57.377049</ele>
        <time>2020-06-12T17:33:48.635Z</time>
      </trkpt>
      <trkpt lat="50.46758" lon="1.5887">
        <ele>57.422482</ele>
        <time>2020-06-12T17:33:50.641Z</time>
      </trkpt>
      <trkpt lat="50.4677" lon="1.58877">
        <ele>57.474266</ele>
        <time>2020-06-12T17:33:52.636Z</time>
      </trkpt>
      <trkpt lat="50.46783" lon="1.58883">
        <ele>57.525007</ele>
        <time>2020-06-12T17:33:54.631Z</time>
      </trkpt>
      <trkpt lat="50.46796" lon="1.58891">
        <ele>57.577118</ele>
        <time>2020-06-12T17:33:56.641Z</time>
      </trkpt>
      <trkpt lat="50.46809" lon="1.58898">
        <ele>57.629218</ele>
        <time>2020-06-12T17:33:58.634Z</time>
      </trkpt>
      <trkpt lat="50.46822" lon="1.58906">
        <ele>57.681944</ele>
        <time>2020-06-12T17:34:00.643Z</time>
      </trkpt>
      <trkpt lat="50.46835" lon="1.58913">
        <ele>57.7367</ele>
        <time>2020-06-12T17:34:02.636Z</time>
      </trkpt>
      <trkpt lat="50.46848" lon="1.58919">
        <ele>57.786273</ele>
        <time>2020-06-12T17:34:04.641Z</time>
      </trkpt>
      <trkpt lat="50.4686" lon="1.58926">
        <ele>57.837098</ele>
        <time>2020-06-12T17:34:06.638Z</time>
      </trkpt>
      <trkpt lat="50.46872" lon="1.58933">
        <ele>57.887509</ele>
        <time>2020-06-12T17:34:08.629Z</time>
      </trkpt>
      <trkpt lat="50.46884" lon="1.5894">
        <ele>57.9349</ele>
        <time>2020-06-12T17:34:10.623Z</time>
      </trkpt>
      <trkpt lat="50.46895" lon="1.58947">
        <ele>57.980689</ele>
        <time>2020-06-12T17:34:12.639Z</time>
      </trkpt>
      <trkpt lat="50.46907" lon="1.58956">
        <ele>58.028769</ele>
        <time>2020-06-12T17:34:14.648Z</time>
      </trkpt>
      <trkpt lat="50.46917" lon="1.58967">
        <ele>58.048083</ele>
        <time>2020-06-12T17:34:16.634Z</time>
      </trkpt>
      <trkpt lat="50.46926" lon="1.58981">
        <ele>58.01789</ele>
        <time>2020-06-12T17:34:18.633Z</time>
      </trkpt>
      <trkpt lat="50.46932" lon="1.58999">
        <ele>57.987477</ele>
        <time>2020-06-12T17:34:20.649Z</time>
      </trkpt>
      <trkpt lat="50.46938" lon="1.59016">
        <ele>57.956278</ele>
        <time>2020-06-12T17:34:22.633Z</time>
      </trkpt>
      <trkpt lat="50.46946" lon="1.59033">
        <ele>57.924991</ele>
        <time>2020-06-12T17:34:24.636Z</time>
      </trkpt>
      <trkpt lat="50.46954" lon="1.5905">
        <ele>57.893339</ele>
        <time>2020-06-12T17:34:26.671Z</time>
      </trkpt>
      <trkpt lat="50.4696" lon="1.59066">
        <ele>57.863868</ele>
        <time>2020-06-12T17:34:28.637Z</time>
      </trkpt>
      <trkpt lat="50.46967" lon="1.59082">
        <ele>57.83478</ele>
        <time>2020-06-12T17:34:30.620Z</time>
      </trkpt>
      <trkpt lat="50.46973" lon="1.59099">
        <ele>57.804138</ele>
        <time>2020-06-12T17:34:32.627Z</time>
      </trkpt>
      <trkpt lat="50.4698" lon="1.59116">
        <ele>57.772734</ele>
        <time>2020-06-12T17:34:34.634Z</time>
      </trkpt>
      <trkpt lat="50.46987" lon="1.59133">
        <ele>57.743141</ele>
        <time>2020-06-12T17:34:36.645Z</time>
      </trkpt>
      <trkpt lat="50.46993" lon="1.59149">
        <ele>57.714065</ele>
        <time>2020-06-12T17:34:38.641Z</time>
      </trkpt>
      <trkpt lat="50.47" lon="1.59164">
        <ele>57.685503</ele>
        <time>2020-06-12T17:34:40.645Z</time>
      </trkpt>
      <trkpt lat="50.47007" lon="1.59181">
        <ele>57.654444</ele>
        <time>2020-06-12T17:34:42.654Z</time>
      </trkpt>
      <trkpt lat="50.47015" lon="1.59198">
        <ele>57.621539</ele>
        <time>2020-06-12T17:34:44.627Z</time>
      </trkpt>
      <trkpt lat="50.47023" lon="1.59214">
        <ele>57.586784</ele>
        <time>2020-06-12T17:34:46.625Z</time>
      </trkpt>
      <trkpt lat="50.47031" lon="1.5923">
        <ele>57.551566</ele>
        <time>2020-06-12T17:34:48.634Z</time>
      </trkpt>
      <trkpt lat="50.47038" lon="1.59247">
        <ele>57.517799</ele>
        <time>2020-06-12T17:34:50.648Z</time>
      </trkpt>
      <trkpt lat="50.47044" lon="1.59263">
        <ele>57.48533</ele>
        <time>2020-06-12T17:34:52.638Z</time>
      </trkpt>
      <trkpt lat="50.47052" lon="1.59281">
        <ele>57.449086</ele>
        <time>2020-06-12T17:34:54.634Z</time>
      </trkpt>
      <trkpt lat="50.4706" lon="1.59297">
        <ele>57.413491</ele>
        <time>2020-06-12T17:34:56.660Z</time>
      </trkpt>
      <trkpt lat="50.47067" lon="1.59313">
        <ele>57.380259</ele>
        <time>2020-06-12T17:34:58.650Z</time>
      </trkpt>
      <trkpt lat="50.47075" lon="1.59329">
        <ele>57.347321</ele>
        <time>2020-06-12T17:35:00.634Z</time>
      </trkpt>
      <trkpt lat="50.47081" lon="1.59345">
        <ele>57.314408</ele>
        <time>2020-06-12T17:35:02.659Z</time>
      </trkpt>
      <trkpt lat="50.47088" lon="1.59362">
        <ele>57.280066</ele>
        <time>2020-06-12T17:35:04.625Z</time>
      </trkpt>
      <trkpt lat="50.47094" lon="1.5938">
        <ele>57.246403</ele>
        <time>2020-06-12T17:35:06.641Z</time>
      </trkpt>
      <trkpt lat="50.47101" lon="1.59396">
        <ele>57.21235</ele>
        <time>2020-06-12T17:35:08.655Z</time>
      </trkpt>
      <trkpt lat="50.47109" lon="1.59413">
        <ele>57.177433</ele>
        <time>2020-06-12T17:35:10.639Z</time>
      </trkpt>
      <trkpt lat="50.47115" lon="1.5943">
        <ele>57.135626</ele>
        <time>2020-06-12T17:35:12.642Z</time>
      </trkpt>
      <trkpt lat="50.47121" lon="1.59445">
        <ele>56.878612</ele>
        <time>2020-06-12T17:35:14.650Z</time>
      </trkpt>
      <trkpt lat="50.47128" lon="1.59461">
        <ele>56.619215</ele>
        <time>2020-06-12T17:35:16.634Z</time>
      </trkpt>
      <trkpt lat="50.47132" lon="1.59477">
        <ele>56.386388</ele>
        <time>2020-06-12T17:35:18.644Z</time>
      </trkpt>
      <trkpt lat="50.47139" lon="1.59492">
        <ele>56.12685</ele>
        <time>2020-06-12T17:35:20.645Z</time>
      </trkpt>
      <trkpt lat="50.47147" lon="1.59508">
        <ele>55.839236</ele>
        <time>2020-06-12T17:35:22.628Z</time>
      </trkpt>
      <trkpt lat="50.47155" lon="1.59525">
        <ele>55.550174</ele>
        <time>2020-06-12T17:35:24.629Z</time>
      </trkpt>
      <trkpt lat="50.47162" lon="1.59543">
        <ele>55.258021</ele>
        <time>2020-06-12T17:35:26.641Z</time>
      </trkpt>
      <trkpt lat="50.47169" lon="1.59559">
        <ele>54.98407</ele>
        <time>2020-06-12T17:35:28.634Z</time>
      </trkpt>
      <trkpt lat="50.47176" lon="1.59575">
        <ele>54.714205</ele>
        <time>2020-06-12T17:35:30.642Z</time>
      </trkpt>
      <trkpt lat="50.47183" lon="1.59591">
        <ele>54.445507</ele>
        <time>2020-06-12T17:35:32.624Z</time>
      </trkpt>
      <trkpt lat="50.47189" lon="1.59607">
        <ele>54.18597</ele>
        <time>2020-06-12T17:35:34.645Z</time>
      </trkpt>
      <trkpt lat="50.47196" lon="1.59624">
        <ele>53.898508</ele>
        <time>2020-06-12T17:35:36.681Z</time>
      </trkpt>
      <trkpt lat="50.47204" lon="1.59642">
        <ele>53.609863</ele>
        <time>2020-06-12T17:35:38.655Z</time>
      </trkpt>
      <trkpt lat="50.47211" lon="1.59658">
        <ele>53.325715</ele>
        <time>2020-06-12T17:35:40.632Z</time>
      </trkpt>
      <trkpt lat="50.47217" lon="1.59674">
        <ele>53.121021</ele>
        <time>2020-06-12T17:35:42.638Z</time>
      </trkpt>
      <trkpt lat="50.47224" lon="1.5969">
        <ele>52.960044</ele>
        <time>2020-06-12T17:35:44.642Z</time>
      </trkpt>
      <trkpt lat="50.4723" lon="1.59706">
        <ele>52.794694</ele>
        <time>2020-06-12T17:35:46.647Z</time>
      </trkpt>
      <trkpt lat="50.47238" lon="1.59724">
        <ele>52.615425</ele>
        <time>2020-06-12T17:35:48.638Z</time>
      </trkpt>
      <trkpt lat="50.47245" lon="1.59742">
        <ele>52.428327</ele>
        <time>2020-06-12T17:35:50.643Z</time>
      </trkpt>
      <trkpt lat="50.47252" lon="1.59761">
        <ele>52.242277</ele>
        <time>2020-06-12T17:35:52.654Z</time>
      </trkpt>
      <trkpt lat="50.47256" lon="1.59782">
        <ele>52.053895</ele>
        <time>2020-06-12T17:35:54.637Z</time>
      </trkpt>
      <trkpt lat="50.47257" lon="1.59803">
        <ele>51.866891</ele>
        <time>2020-06-12T17:35:56.695Z</time>
      </trkpt>
      <trkpt lat="50.47258" lon="1.59824">
        <ele>51.688642</ele>
        <time>2020-06-12T17:35:58.665Z</time>
      </trkpt>
      <trkpt lat="50.47258" lon="1.59843">
        <ele>51.523526</ele>
        <time>2020-06-12T17:36:00.641Z</time>
      </trkpt>
      <trkpt lat="50.47259" lon="1.59863">
        <ele>51.357633</ele>
        <time>2020-06-12T17:36:02.645Z</time>
      </trkpt>
      <trkpt lat="50.4726" lon="1.59881">
        <ele>51.195795</ele>
        <time>2020-06-12T17:36:04.620Z</time>
      </trkpt>
      <trkpt lat="50.47261" lon="1.59899">
        <ele>51.03899</ele>
        <time>2020-06-12T17:36:06.629Z</time>
      </trkpt>
      <trkpt lat="50.47262" lon="1.59918">
        <ele>50.877897</ele>
        <time>2020-06-12T17:36:08.661Z</time>
      </trkpt>
      <trkpt lat="50.47263" lon="1.59937">
        <ele>50.803554</ele>
        <time>2020-06-12T17:36:10.640Z</time>
      </trkpt>
      <trkpt lat="50.47264" lon="1.59955">
        <ele>50.841956</ele>
        <time>2020-06-12T17:36:12.624Z</time>
      </trkpt>
      <trkpt lat="50.47265" lon="1.59972">
        <ele>50.880032</ele>
        <time>2020-06-12T17:36:14.684Z</time>
      </trkpt>
      <trkpt lat="50.47269" lon="1.59989">
        <ele>50.918655</ele>
        <time>2020-06-12T17:36:16.632Z</time>
      </trkpt>
      <trkpt lat="50.47278" lon="1.59999">
        <ele>50.95729</ele>
        <time>2020-06-12T17:36:18.634Z</time>
      </trkpt>
      <trkpt lat="50.47291" lon="1.60002">
        <ele>51.001571</ele>
        <time>2020-06-12T17:36:20.638Z</time>
      </trkpt>
      <trkpt lat="50.47303" lon="1.60003">
        <ele>51.041019</ele>
        <time>2020-06-12T17:36:22.666Z</time>
      </trkpt>
      <trkpt lat="50.47314" lon="1.60006">
        <ele>51.079227</ele>
        <time>2020-06-12T17:36:24.686Z</time>
      </trkpt>
      <trkpt lat="50.47324" lon="1.60008">
        <ele>51.115533</ele>
        <time>2020-06-12T17:36:26.643Z</time>
      </trkpt>
      <trkpt lat="50.47335" lon="1.6001">
        <ele>51.152796</ele>
        <time>2020-06-12T17:36:28.631Z</time>
      </trkpt>
      <trkpt lat="50.47347" lon="1.60013">
        <ele>51.19342</ele>
        <time>2020-06-12T17:36:30.632Z</time>
      </trkpt>
      <trkpt lat="50.47359" lon="1.60017">
        <ele>51.234714</ele>
        <time>2020-06-12T17:36:32.646Z</time>
      </trkpt>
      <trkpt lat="50.4737" lon="1.60019">
        <ele>51.273593</ele>
        <time>2020-06-12T17:36:34.642Z</time>
      </trkpt>
      <trkpt lat="50.4738" lon="1.60022">
        <ele>51.307415</ele>
        <time>2020-06-12T17:36:36.641Z</time>
      </trkpt>
      <trkpt lat="50.47389" lon="1.60024">
        <ele>51.339183</ele>
        <time>2020-06-12T17:36:38.671Z</time>
      </trkpt>
      <trkpt lat="50.474" lon="1.60026">
        <ele>51.376923</ele>
        <time>2020-06-12T17:36:40.637Z</time>
      </trkpt>
      <trkpt lat="50.47412" lon="1.60029">
        <ele>51.571902</ele>
        <time>2020-06-12T17:36:42.652Z</time>
      </trkpt>
      <trkpt lat="50.47424" lon="1.60031">
        <ele>51.919161</ele>
        <time>2020-06-12T17:36:44.658Z</time>
      </trkpt>
      <trkpt lat="50.47434" lon="1.60035">
        <ele>52.245235</ele>
        <time>2020-06-12T17:36:46.626Z</time>
      </trkpt>
      <trkpt lat="50.47444" lon="1.60036">
        <ele>52.541232</ele>
        <time>2020-06-12T17:36:48.636Z</time>
      </trkpt>
      <trkpt lat="50.47455" lon="1.60038">
        <ele>52.848639</ele>
        <time>2020-06-12T17:36:50.647Z</time>
      </trkpt>
      <trkpt lat="50.47465" lon="1.60041">
        <ele>53.174379</ele>
        <time>2020-06-12T17:36:52.633Z</time>
      </trkpt>
      <trkpt lat="50.47478" lon="1.60044">
        <ele>53.553166</ele>
        <time>2020-06-12T17:36:54.649Z</time>
      </trkpt>
      <trkpt lat="50.4749" lon="1.60046">
        <ele>53.918111</ele>
        <time>2020-06-12T17:36:56.647Z</time>
      </trkpt>
      <trkpt lat="50.47501" lon="1.6005">
        <ele>54.24745</ele>
        <time>2020-06-12T17:36:58.647Z</time>
      </trkpt>
      <trkpt lat="50.47513" lon="1.60053">
        <ele>54.596093</ele>
        <time>2020-06-12T17:37:00.638Z</time>
      </trkpt>
      <trkpt lat="50.47524" lon="1.60057">
        <ele>54.948417</ele>
        <time>2020-06-12T17:37:02.642Z</time>
      </trkpt>
      <trkpt lat="50.47536" lon="1.60061">
        <ele>55.290492</ele>
        <time>2020-06-12T17:37:04.638Z</time>
      </trkpt>
      <trkpt lat="50.47548" lon="1.60063">
        <ele>55.650534</ele>
        <time>2020-06-12T17:37:06.639Z</time>
      </trkpt>
      <trkpt lat="50.4756" lon="1.60066">
        <ele>56.0275</ele>
        <time>2020-06-12T17:37:08.642Z</time>
      </trkpt>
      <trkpt lat="50.47572" lon="1.60069">
        <ele>56.382524</ele>
        <time>2020-06-12T17:37:10.636Z</time>
      </trkpt>
      <trkpt lat="50.47583" lon="1.60071">
        <ele>56.721451</ele>
        <time>2020-06-12T17:37:12.630Z</time>
      </trkpt>
      <trkpt lat="50.47595" lon="1.60073">
        <ele>56.867619</ele>
        <time>2020-06-12T17:37:14.679Z</time>
      </trkpt>
      <trkpt lat="50.47606" lon="1.60075">
        <ele>57.006134</ele>
        <time>2020-06-12T17:37:16.642Z</time>
      </trkpt>
      <trkpt lat="50.47618" lon="1.60079">
        <ele>57.152397</ele>
        <time>2020-06-12T17:37:18.647Z</time>
      </trkpt>
      <trkpt lat="50.47625" lon="1.60093">
        <ele>57.28986</ele>
        <time>2020-06-12T17:37:20.623Z</time>
      </trkpt>
      <trkpt lat="50.47624" lon="1.60112">
        <ele>57.432774</ele>
        <time>2020-06-12T17:37:22.630Z</time>
      </trkpt>
      <trkpt lat="50.47621" lon="1.60129">
        <ele>57.565391</ele>
        <time>2020-06-12T17:37:24.661Z</time>
      </trkpt>
      <trkpt lat="50.47618" lon="1.60146">
        <ele>57.700771</ele>
        <time>2020-06-12T17:37:26.648Z</time>
      </trkpt>
      <trkpt lat="50.47617" lon="1.60164">
        <ele>57.840824</ele>
        <time>2020-06-12T17:37:28.639Z</time>
      </trkpt>
      <trkpt lat="50.47615" lon="1.60182">
        <ele>57.979946</ele>
        <time>2020-06-12T17:37:30.640Z</time>
      </trkpt>
      <trkpt lat="50.47614" lon="1.602">
        <ele>58.117695</ele>
        <time>2020-06-12T17:37:32.643Z</time>
      </trkpt>
      <trkpt lat="50.47612" lon="1.60219">
        <ele>58.261133</ele>
        <time>2020-06-12T17:37:34.618Z</time>
      </trkpt>
      <trkpt lat="50.47609" lon="1.60238">
        <ele>58.405212</ele>
        <time>2020-06-12T17:37:36.659Z</time>
      </trkpt>
      <trkpt lat="50.47606" lon="1.60255">
        <ele>58.541983</ele>
        <time>2020-06-12T17:37:38.659Z</time>
      </trkpt>
      <trkpt lat="50.47604" lon="1.60273">
        <ele>58.680095</ele>
        <time>2020-06-12T17:37:40.647Z</time>
      </trkpt>
      <trkpt lat="50.47602" lon="1.6029">
        <ele>58.81414</ele>
        <time>2020-06-12T17:37:42.648Z</time>
      </trkpt>
      <trkpt lat="50.47601" lon="1.60308">
        <ele>58.903431</ele>
        <time>2020-06-12T17:37:44.655Z</time>
      </trkpt>
      <trkpt lat="50.47599" lon="1.60326">
        <ele>58.93925</ele>
        <time>2020-06-12T17:37:46.647Z</time>
      </trkpt>
      <trkpt lat="50.47597" lon="1.60345">
        <ele>58.975643</ele>
        <time>2020-06-12T17:37:48.654Z</time>
      </trkpt>
      <trkpt lat="50.47595" lon="1.60364">
        <ele>59.013303</ele>
        <time>2020-06-12T17:37:50.663Z</time>
      </trkpt>
      <trkpt lat="50.47592" lon="1.60382">
        <ele>59.049329</ele>
        <time>2020-06-12T17:37:52.647Z</time>
      </trkpt>
      <trkpt lat="50.4759" lon="1.604">
        <ele>59.084242</ele>
        <time>2020-06-12T17:37:54.649Z</time>
      </trkpt>
      <trkpt lat="50.47589" lon="1.60417">
        <ele>59.118103</ele>
        <time>2020-06-12T17:37:56.657Z</time>
      </trkpt>
      <trkpt lat="50.47587" lon="1.60435">
        <ele>59.152836</ele>
        <time>2020-06-12T17:37:58.646Z</time>
      </trkpt>
      <trkpt lat="50.47586" lon="1.60453">
        <ele>59.18743</ele>
        <time>2020-06-12T17:38:00.634Z</time>
      </trkpt>
      <trkpt lat="50.47586" lon="1.6047">
        <ele>59.221509</ele>
        <time>2020-06-12T17:38:02.647Z</time>
      </trkpt>
      <trkpt lat="50.47587" lon="1.60488">
        <ele>59.255819</ele>
        <time>2020-06-12T17:38:04.637Z</time>
      </trkpt>
      <trkpt lat="50.4759" lon="1.60506">
        <ele>59.291971</ele>
        <time>2020-06-12T17:38:06.646Z</time>
      </trkpt>
      <trkpt lat="50.47595" lon="1.60524">
        <ele>59.32927</ele>
        <time>2020-06-12T17:38:08.665Z</time>
      </trkpt>
      <trkpt lat="50.476" lon="1.60541">
        <ele>59.366753</ele>
        <time>2020-06-12T17:38:10.644Z</time>
      </trkpt>
      <trkpt lat="50.47609" lon="1.60556">
        <ele>59.40604</ele>
        <time>2020-06-12T17:38:12.653Z</time>
      </trkpt>
      <trkpt lat="50.47619" lon="1.60569">
        <ele>59.426888</ele>
        <time>2020-06-12T17:38:14.682Z</time>
      </trkpt>
      <trkpt lat="50.47629" lon="1.6058">
        <ele>59.398546</ele>
        <time>2020-06-12T17:38:16.647Z</time>
      </trkpt>
      <trkpt lat="50.47642" lon="1.60589">
        <ele>59.36649</ele>
        <time>2020-06-12T17:38:18.641Z</time>
      </trkpt>
      <trkpt lat="50.47656" lon="1.60598">
        <ele>59.331792</ele>
        <time>2020-06-12T17:38:20.660Z</time>
      </trkpt>
      <trkpt lat="50.47669" lon="1.60605">
        <ele>59.299525</ele>
        <time>2020-06-12T17:38:22.640Z</time>
      </trkpt>
      <trkpt lat="50.47678" lon="1.60613">
        <ele>59.276112</ele>
        <time>2020-06-12T17:38:24.644Z</time>
      </trkpt>
      <trkpt lat="50.47679" lon="1.60629">
        <ele>59.252241</ele>
        <time>2020-06-12T17:38:26.646Z</time>
      </trkpt>
      <trkpt lat="50.47671" lon="1.60644">
        <ele>59.225313</ele>
        <time>2020-06-12T17:38:28.643Z</time>
      </trkpt>
      <trkpt lat="50.47662" lon="1.60657">
        <ele>59.196121</ele>
        <time>2020-06-12T17:38:30.678Z</time>
      </trkpt>
      <trkpt lat="50.47653" lon="1.60672">
        <ele>59.165476</ele>
        <time>2020-06-12T17:38:32.625Z</time>
      </trkpt>
      <trkpt lat="50.47646" lon="1.60689">
        <ele>59.137029</ele>
        <time>2020-06-12T17:38:34.636Z</time>
      </trkpt>
      <trkpt lat="50.47641" lon="1.60707">
        <ele>59.107864</ele>
        <time>2020-06-12T17:38:36.636Z</time>
      </trkpt>
      <trkpt lat="50.47636" lon="1.60726">
        <ele>59.079272</ele>
        <time>2020-06-12T17:38:38.683Z</time>
      </trkpt>
      <trkpt lat="50.47633" lon="1.60744">
        <ele>59.050851</ele>
        <time>2020-06-12T17:38:40.625Z</time>
      </trkpt>
      <trkpt lat="50.47631" lon="1.60764">
        <ele>59.01621</ele>
        <time>2020-06-12T17:38:42.641Z</time>
      </trkpt>
      <trkpt lat="50.4763" lon="1.60784">
        <ele>58.851373</ele>
        <time>2020-06-12T17:38:44.649Z</time>
      </trkpt>
      <trkpt lat="50.47629" lon="1.60805">
        <ele>58.678252</ele>
        <time>2020-06-12T17:38:46.639Z</time>
      </trkpt>
      <trkpt lat="50.47627" lon="1.60825">
        <ele>58.514208</ele>
        <time>2020-06-12T17:38:48.645Z</time>
      </trkpt>
      <trkpt lat="50.47625" lon="1.60843">
        <ele>58.359797</ele>
        <time>2020-06-12T17:38:50.647Z</time>
      </trkpt>
      <trkpt lat="50.47623" lon="1.60861">
        <ele>58.212743</ele>
        <time>2020-06-12T17:38:52.648Z</time>
      </trkpt>
      <trkpt lat="50.47622" lon="1.60877">
        <ele>58.078807</ele>
        <time>2020-06-12T17:38:54.661Z</time>
      </trkpt>
      <trkpt lat="50.4762" lon="1.60894">
        <ele>57.937827</ele>
        <time>2020-06-12T17:38:56.645Z</time>
      </trkpt>
      <trkpt lat="50.47619" lon="1.60911">
        <ele>57.800468</ele>
        <time>2020-06-12T17:38:58.635Z</time>
      </trkpt>
      <trkpt lat="50.47617" lon="1.60927">
        <ele>57.664342</ele>
        <time>2020-06-12T17:39:00.639Z</time>
      </trkpt>
      <trkpt lat="50.47616" lon="1.60944">
        <ele>57.5291</ele>
        <time>2020-06-12T17:39:02.643Z</time>
      </trkpt>
      <trkpt lat="50.47615" lon="1.60961">
        <ele>57.388862</ele>
        <time>2020-06-12T17:39:04.640Z</time>
      </trkpt>
      <trkpt lat="50.47614" lon="1.60977">
        <ele>57.251558</ele>
        <time>2020-06-12T17:39:06.641Z</time>
      </trkpt>
      <trkpt lat="50.47613" lon="1.60995">
        <ele>57.106529</ele>
        <time>2020-06-12T17:39:08.651Z</time>
      </trkpt>
      <trkpt lat="50.4761" lon="1.61012">
        <ele>56.960136</ele>
        <time>2020-06-12T17:39:10.633Z</time>
      </trkpt>
      <trkpt lat="50.47609" lon="1.6103">
        <ele>56.810862</ele>
        <time>2020-06-12T17:39:12.639Z</time>
      </trkpt>
      <trkpt lat="50.47607" lon="1.61051">
        <ele>56.558431</ele>
        <time>2020-06-12T17:39:14.687Z</time>
      </trkpt>
      <trkpt lat="50.47606" lon="1.61071">
        <ele>56.157314</ele>
        <time>2020-06-12T17:39:16.637Z</time>
      </trkpt>
      <trkpt lat="50.47605" lon="1.61093">
        <ele>55.743989</ele>
        <time>2020-06-12T17:39:18.652Z</time>
      </trkpt>
      <trkpt lat="50.47603" lon="1.61115">
        <ele>55.313399</ele>
        <time>2020-06-12T17:39:20.646Z</time>
      </trkpt>
      <trkpt lat="50.47601" lon="1.61139">
        <ele>54.863029</ele>
        <time>2020-06-12T17:39:22.629Z</time>
      </trkpt>
      <trkpt lat="50.47598" lon="1.61164">
        <ele>54.378226</ele>
        <time>2020-06-12T17:39:24.651Z</time>
      </trkpt>
      <trkpt lat="50.47596" lon="1.61188">
        <ele>53.898619</ele>
        <time>2020-06-12T17:39:26.646Z</time>
      </trkpt>
      <trkpt lat="50.47596" lon="1.61215">
        <ele>53.396872</ele>
        <time>2020-06-12T17:39:28.625Z</time>
      </trkpt>
      <trkpt lat="50.476" lon="1.61241">
        <ele>52.88819</ele>
        <time>2020-06-12T17:39:30.645Z</time>
      </trkpt>
      <trkpt lat="50.47605" lon="1.61266">
        <ele>52.363513</ele>
        <time>2020-06-12T17:39:32.643Z</time>
      </trkpt>
      <trkpt lat="50.47611" lon="1.61291">
        <ele>51.857533</ele>
        <time>2020-06-12T17:39:34.638Z</time>
      </trkpt>
      <trkpt lat="50.47617" lon="1.61316">
        <ele>51.354913</ele>
        <time>2020-06-12T17:39:36.636Z</time>
      </trkpt>
      <trkpt lat="50.47622" lon="1.61339">
        <ele>50.996072</ele>
        <time>2020-06-12T17:39:38.657Z</time>
      </trkpt>
      <trkpt lat="50.47627" lon="1.61364">
        <ele>50.642279</ele>
        <time>2020-06-12T17:39:40.621Z</time>
      </trkpt>
      <trkpt lat="50.47632" lon="1.61387">
        <ele>50.302954</ele>
        <time>2020-06-12T17:39:42.633Z</time>
      </trkpt>
      <trkpt lat="50.47637" lon="1.61411">
        <ele>49.957036</ele>
        <time>2020-06-12T17:39:44.643Z</time>
      </trkpt>
      <trkpt lat="50.47642" lon="1.61434">
        <ele>49.62955</ele>
        <time>2020-06-12T17:39:46.635Z</time>
      </trkpt>
      <trkpt lat="50.47647" lon="1.61455">
        <ele>49.311016</ele>
        <time>2020-06-12T17:39:48.635Z</time>
      </trkpt>
      <trkpt lat="50.47652" lon="1.61476">
        <ele>49.001783</ele>
        <time>2020-06-12T17:39:50.651Z</time>
      </trkpt>
      <trkpt lat="50.47657" lon="1.61497">
        <ele>48.694136</ele>
        <time>2020-06-12T17:39:52.645Z</time>
      </trkpt>
      <trkpt lat="50.47664" lon="1.61518">
        <ele>48.373022</ele>
        <time>2020-06-12T17:39:54.638Z</time>
      </trkpt>
      <trkpt lat="50.47669" lon="1.61538">
        <ele>48.065971</ele>
        <time>2020-06-12T17:39:56.648Z</time>
      </trkpt>
      <trkpt lat="50.47675" lon="1.61559">
        <ele>47.755074</ele>
        <time>2020-06-12T17:39:58.638Z</time>
      </trkpt>
      <trkpt lat="50.4768" lon="1.61579">
        <ele>47.451835</ele>
        <time>2020-06-12T17:40:00.636Z</time>
      </trkpt>
      <trkpt lat="50.47684" lon="1.616">
        <ele>47.198832</ele>
        <time>2020-06-12T17:40:02.647Z</time>
      </trkpt>
      <trkpt lat="50.47686" lon="1.61621">
        <ele>46.950054</ele>
        <time>2020-06-12T17:40:04.640Z</time>
      </trkpt>
      <trkpt lat="50.47686" lon="1.61643">
        <ele>46.702404</ele>
        <time>2020-06-12T17:40:06.635Z</time>
      </trkpt>
      <trkpt lat="50.47686" lon="1.61665">
        <ele>46.457984</ele>
        <time>2020-06-12T17:40:08.653Z</time>
      </trkpt>
      <trkpt lat="50.47685" lon="1.61685">
        <ele>46.222067</ele>
        <time>2020-06-12T17:40:10.634Z</time>
      </trkpt>
      <trkpt lat="50.47682" lon="1.61706">
        <ele>45.988191</ele>
        <time>2020-06-12T17:40:12.646Z</time>
      </trkpt>
      <trkpt lat="50.47682" lon="1.61726">
        <ele>45.757193</ele>
        <time>2020-06-12T17:40:14.656Z</time>
      </trkpt>
      <trkpt lat="50.47687" lon="1.61741">
        <ele>45.556628</ele>
        <time>2020-06-12T17:40:16.652Z</time>
      </trkpt>
      <trkpt lat="50.47698" lon="1.61746">
        <ele>45.357223</ele>
        <time>2020-06-12T17:40:18.629Z</time>
      </trkpt>
      <trkpt lat="50.47709" lon="1.61744">
        <ele>45.156709</ele>
        <time>2020-06-12T17:40:20.652Z</time>
      </trkpt>
      <trkpt lat="50.4772" lon="1.61742">
        <ele>44.961885</ele>
        <time>2020-06-12T17:40:22.640Z</time>
      </trkpt>
      <trkpt lat="50.47732" lon="1.61745">
        <ele>44.73604</ele>
        <time>2020-06-12T17:40:24.628Z</time>
      </trkpt>
      <trkpt lat="50.47745" lon="1.61749">
        <ele>44.502201</ele>
        <time>2020-06-12T17:40:26.645Z</time>
      </trkpt>
      <trkpt lat="50.47759" lon="1.61752">
        <ele>44.255786</ele>
        <time>2020-06-12T17:40:28.637Z</time>
      </trkpt>
      <trkpt lat="50.47772" lon="1.61754">
        <ele>44.36991</ele>
        <time>2020-06-12T17:40:30.673Z</time>
      </trkpt>
      <trkpt lat="50.47786" lon="1.61758">
        <ele>44.622552</ele>
        <time>2020-06-12T17:40:32.642Z</time>
      </trkpt>
      <trkpt lat="50.47798" lon="1.61762">
        <ele>44.853202</ele>
        <time>2020-06-12T17:40:34.628Z</time>
      </trkpt>
      <trkpt lat="50.4781" lon="1.61766">
        <ele>45.094394</ele>
        <time>2020-06-12T17:40:36.645Z</time>
      </trkpt>
      <trkpt lat="50.47824" lon="1.61768">
        <ele>45.342961</ele>
        <time>2020-06-12T17:40:38.649Z</time>
      </trkpt>
      <trkpt lat="50.47837" lon="1.61771">
        <ele>45.602791</ele>
        <time>2020-06-12T17:40:40.637Z</time>
      </trkpt>
      <trkpt lat="50.47851" lon="1.61775">
        <ele>45.856644</ele>
        <time>2020-06-12T17:40:42.643Z</time>
      </trkpt>
      <trkpt lat="50.47864" lon="1.61778">
        <ele>46.106047</ele>
        <time>2020-06-12T17:40:44.653Z</time>
      </trkpt>
      <trkpt lat="50.47877" lon="1.61781">
        <ele>46.344196</ele>
        <time>2020-06-12T17:40:46.629Z</time>
      </trkpt>
      <trkpt lat="50.47889" lon="1.61784">
        <ele>46.575361</ele>
        <time>2020-06-12T17:40:48.650Z</time>
      </trkpt>
      <trkpt lat="50.47901" lon="1.61787">
        <ele>46.798763</ele>
        <time>2020-06-12T17:40:50.653Z</time>
      </trkpt>
      <trkpt lat="50.47912" lon="1.6179">
        <ele>47.007989</ele>
        <time>2020-06-12T17:40:52.679Z</time>
      </trkpt>
      <trkpt lat="50.47924" lon="1.61791">
        <ele>47.238456</ele>
        <time>2020-06-12T17:40:54.629Z</time>
      </trkpt>
      <trkpt lat="50.47936" lon="1.61792">
        <ele>47.462586</ele>
        <time>2020-06-12T17:40:56.635Z</time>
      </trkpt>
      <trkpt lat="50.47948" lon="1.61794">
        <ele>47.558738</ele>
        <time>2020-06-12T17:40:58.639Z</time>
      </trkpt>
      <trkpt lat="50.47961" lon="1.61798">
        <ele>47.576769</ele>
        <time>2020-06-12T17:41:00.645Z</time>
      </trkpt>
      <trkpt lat="50.47974" lon="1.61799">
        <ele>47.595693</ele>
        <time>2020-06-12T17:41:02.662Z</time>
      </trkpt>
      <trkpt lat="50.47986" lon="1.61797">
        <ele>47.614351</ele>
        <time>2020-06-12T17:41:04.639Z</time>
      </trkpt>
      <trkpt lat="50.47999" lon="1.61791">
        <ele>47.634014</ele>
        <time>2020-06-12T17:41:06.643Z</time>
      </trkpt>
      <trkpt lat="50.48011" lon="1.61784">
        <ele>47.652687</ele>
        <time>2020-06-12T17:41:08.675Z</time>
      </trkpt>
      <trkpt lat="50.48023" lon="1.61776">
        <ele>47.671071</ele>
        <time>2020-06-12T17:41:10.650Z</time>
      </trkpt>
      <trkpt lat="50.48034" lon="1.61768">
        <ele>47.689189</ele>
        <time>2020-06-12T17:41:12.659Z</time>
      </trkpt>
      <trkpt lat="50.48046" lon="1.61764">
        <ele>47.706688</ele>
        <time>2020-06-12T17:41:14.661Z</time>
      </trkpt>
      <trkpt lat="50.48059" lon="1.61764">
        <ele>47.724685</ele>
        <time>2020-06-12T17:41:16.625Z</time>
      </trkpt>
      <trkpt lat="50.48071" lon="1.61766">
        <ele>47.742179</ele>
        <time>2020-06-12T17:41:18.650Z</time>
      </trkpt>
      <trkpt lat="50.48082" lon="1.61767">
        <ele>47.75907</ele>
        <time>2020-06-12T17:41:20.643Z</time>
      </trkpt>
      <trkpt lat="50.48093" lon="1.61768">
        <ele>47.774475</ele>
        <time>2020-06-12T17:41:22.641Z</time>
      </trkpt>
      <trkpt lat="50.48104" lon="1.6177">
        <ele>47.790507</ele>
        <time>2020-06-12T17:41:24.639Z</time>
      </trkpt>
      <trkpt lat="50.48116" lon="1.6177">
        <ele>47.80807</ele>
        <time>2020-06-12T17:41:26.645Z</time>
      </trkpt>
      <trkpt lat="50.48127" lon="1.61771">
        <ele>47.956804</ele>
        <time>2020-06-12T17:41:28.638Z</time>
      </trkpt>
      <trkpt lat="50.4814" lon="1.6177">
        <ele>48.122519</ele>
        <time>2020-06-12T17:41:30.642Z</time>
      </trkpt>
      <trkpt lat="50.48154" lon="1.61769">
        <ele>48.308111</ele>
        <time>2020-06-12T17:41:32.635Z</time>
      </trkpt>
      <trkpt lat="50.48169" lon="1.61767">
        <ele>48.504029</ele>
        <time>2020-06-12T17:41:34.649Z</time>
      </trkpt>
      <trkpt lat="50.48183" lon="1.61766">
        <ele>48.681759</ele>
        <time>2020-06-12T17:41:36.639Z</time>
      </trkpt>
      <trkpt lat="50.48197" lon="1.61765">
        <ele>48.860743</ele>
        <time>2020-06-12T17:41:38.669Z</time>
      </trkpt>
      <trkpt lat="50.48211" lon="1.61764">
        <ele>49.045033</ele>
        <time>2020-06-12T17:41:40.655Z</time>
      </trkpt>
      <trkpt lat="50.48225" lon="1.61763">
        <ele>49.226417</ele>
        <time>2020-06-12T17:41:42.647Z</time>
      </trkpt>
      <trkpt lat="50.48238" lon="1.6176">
        <ele>49.403832</ele>
        <time>2020-06-12T17:41:44.645Z</time>
      </trkpt>
      <trkpt lat="50.48249" lon="1.61755">
        <ele>49.55367</ele>
        <time>2020-06-12T17:41:46.682Z</time>
      </trkpt>
      <trkpt lat="50.48259" lon="1.61747">
        <ele>49.70312</ele>
        <time>2020-06-12T17:41:48.626Z</time>
      </trkpt>
      <trkpt lat="50.4827" lon="1.61737">
        <ele>49.859066</ele>
        <time>2020-06-12T17:41:50.647Z</time>
      </trkpt>
      <trkpt lat="50.4828" lon="1.61726">
        <ele>50.028942</ele>
        <time>2020-06-12T17:41:52.640Z</time>
      </trkpt>
      <trkpt lat="50.48292" lon="1.61716">
        <ele>50.13848</ele>
        <time>2020-06-12T17:41:54.632Z</time>
      </trkpt>
      <trkpt lat="50.48304" lon="1.61706">
        <ele>50.085019</ele>
        <time>2020-06-12T17:41:56.645Z</time>
      </trkpt>
      <trkpt lat="50.48314" lon="1.61696">
        <ele>50.032454</ele>
        <time>2020-06-12T17:41:58.637Z</time>
      </trkpt>
      <trkpt lat="50.48326" lon="1.61686">
        <ele>49.977826</ele>
        <time>2020-06-12T17:42:00.643Z</time>
      </trkpt>
      <trkpt lat="50.48338" lon="1.61676">
        <ele>49.921891</ele>
        <time>2020-06-12T17:42:02.642Z</time>
      </trkpt>
      <trkpt lat="50.4835" lon="1.6167">
        <ele>49.866732</ele>
        <time>2020-06-12T17:42:04.621Z</time>
      </trkpt>
      <trkpt lat="50.48364" lon="1.61674">
        <ele>49.809609</ele>
        <time>2020-06-12T17:42:06.636Z</time>
      </trkpt>
      <trkpt lat="50.48374" lon="1.6169">
        <ele>49.749986</ele>
        <time>2020-06-12T17:42:08.643Z</time>
      </trkpt>
      <trkpt lat="50.48378" lon="1.61711">
        <ele>49.690669</ele>
        <time>2020-06-12T17:42:10.631Z</time>
      </trkpt>
      <trkpt lat="50.48381" lon="1.61731">
        <ele>49.636744</ele>
        <time>2020-06-12T17:42:12.639Z</time>
      </trkpt>
      <trkpt lat="50.48384" lon="1.6175">
        <ele>49.585233</ele>
        <time>2020-06-12T17:42:14.629Z</time>
      </trkpt>
      <trkpt lat="50.48387" lon="1.61768">
        <ele>49.534856</ele>
        <time>2020-06-12T17:42:16.642Z</time>
      </trkpt>
      <trkpt lat="50.48391" lon="1.61786">
        <ele>49.484223</ele>
        <time>2020-06-12T17:42:18.640Z</time>
      </trkpt>
      <trkpt lat="50.48393" lon="1.61804">
        <ele>49.435036</ele>
        <time>2020-06-12T17:42:20.640Z</time>
      </trkpt>
      <trkpt lat="50.48396" lon="1.61823">
        <ele>49.366124</ele>
        <time>2020-06-12T17:42:22.637Z</time>
      </trkpt>
      <trkpt lat="50.48398" lon="1.6184">
        <ele>49.266144</ele>
        <time>2020-06-12T17:42:24.636Z</time>
      </trkpt>
      <trkpt lat="50.48401" lon="1.61858">
        <ele>49.164416</ele>
        <time>2020-06-12T17:42:26.651Z</time>
      </trkpt>
      <trkpt lat="50.48404" lon="1.61876">
        <ele>49.062983</ele>
        <time>2020-06-12T17:42:28.638Z</time>
      </trkpt>
      <trkpt lat="50.48406" lon="1.61894">
        <ele>48.959539</ele>
        <time>2020-06-12T17:42:30.637Z</time>
      </trkpt>
      <trkpt lat="50.48409" lon="1.61912">
        <ele>48.855673</ele>
        <time>2020-06-12T17:42:32.646Z</time>
      </trkpt>
      <trkpt lat="50.48412" lon="1.61931">
        <ele>48.752766</ele>
        <time>2020-06-12T17:42:34.639Z</time>
      </trkpt>
      <trkpt lat="50.48415" lon="1.61949">
        <ele>48.645253</ele>
        <time>2020-06-12T17:42:36.637Z</time>
      </trkpt>
      <trkpt lat="50.48419" lon="1.61968">
        <ele>48.536215</ele>
        <time>2020-06-12T17:42:38.646Z</time>
      </trkpt>
      <trkpt lat="50.48422" lon="1.61988">
        <ele>48.426566</ele>
        <time>2020-06-12T17:42:40.646Z</time>
      </trkpt>
      <trkpt lat="50.48426" lon="1.62006">
        <ele>48.321539</ele>
        <time>2020-06-12T17:42:42.638Z</time>
      </trkpt>
      <trkpt lat="50.48429" lon="1.62023">
        <ele>48.222033</ele>
        <time>2020-06-12T17:42:44.646Z</time>
      </trkpt>
      <trkpt lat="50.48433" lon="1.62039">
        <ele>48.124052</ele>
        <time>2020-06-12T17:42:46.634Z</time>
      </trkpt>
      <trkpt lat="50.48437" lon="1.62058">
        <ele>48.019014</ele>
        <time>2020-06-12T17:42:48.639Z</time>
      </trkpt>
      <trkpt lat="50.48441" lon="1.62076">
        <ele>47.910548</ele>
        <time>2020-06-12T17:42:50.647Z</time>
      </trkpt>
      <trkpt lat="50.48444" lon="1.62095">
        <ele>47.83807</ele>
        <time>2020-06-12T17:42:52.674Z</time>
      </trkpt>
      <trkpt lat="50.48447" lon="1.62114">
        <ele>47.825479</ele>
        <time>2020-06-12T17:42:54.624Z</time>
      </trkpt>
      <trkpt lat="50.4845" lon="1.62134">
        <ele>47.812235</ele>
        <time>2020-06-12T17:42:56.670Z</time>
      </trkpt>
      <trkpt lat="50.48453" lon="1.62153">
        <ele>47.799446</ele>
        <time>2020-06-12T17:42:58.633Z</time>
      </trkpt>
      <trkpt lat="50.48456" lon="1.62171">
        <ele>47.787021</ele>
        <time>2020-06-12T17:43:00.639Z</time>
      </trkpt>
      <trkpt lat="50.48459" lon="1.6219">
        <ele>47.774608</ele>
        <time>2020-06-12T17:43:02.649Z</time>
      </trkpt>
      <trkpt lat="50.48462" lon="1.62208">
        <ele>47.762096</ele>
        <time>2020-06-12T17:43:04.647Z</time>
      </trkpt>
      <trkpt lat="50.48465" lon="1.62227">
        <ele>47.74976</ele>
        <time>2020-06-12T17:43:06.642Z</time>
      </trkpt>
      <trkpt lat="50.48469" lon="1.62244">
        <ele>47.737503</ele>
        <time>2020-06-12T17:43:08.644Z</time>
      </trkpt>
      <trkpt lat="50.48472" lon="1.62261">
        <ele>47.726245</ele>
        <time>2020-06-12T17:43:10.635Z</time>
      </trkpt>
      <trkpt lat="50.48476" lon="1.62278">
        <ele>47.714521</ele>
        <time>2020-06-12T17:43:12.629Z</time>
      </trkpt>
      <trkpt lat="50.48478" lon="1.62296">
        <ele>47.702624</ele>
        <time>2020-06-12T17:43:14.651Z</time>
      </trkpt>
      <trkpt lat="50.48481" lon="1.62313">
        <ele>47.691596</ele>
        <time>2020-06-12T17:43:16.635Z</time>
      </trkpt>
      <trkpt lat="50.48484" lon="1.6233">
        <ele>47.680065</ele>
        <time>2020-06-12T17:43:18.629Z</time>
      </trkpt>
      <trkpt lat="50.48487" lon="1.62347">
        <ele>47.668457</ele>
        <time>2020-06-12T17:43:20.664Z</time>
      </trkpt>
      <trkpt lat="50.4849" lon="1.62365">
        <ele>47.69635</ele>
        <time>2020-06-12T17:43:22.628Z</time>
      </trkpt>
      <trkpt lat="50.48492" lon="1.62381">
        <ele>47.841136</ele>
        <time>2020-06-12T17:43:24.652Z</time>
      </trkpt>
      <trkpt lat="50.48488" lon="1.62397">
        <ele>47.980393</ele>
        <time>2020-06-12T17:43:26.640Z</time>
      </trkpt>
      <trkpt lat="50.4848" lon="1.62406">
        <ele>48.123443</ele>
        <time>2020-06-12T17:43:28.669Z</time>
      </trkpt>
      <trkpt lat="50.48468" lon="1.6241">
        <ele>48.280365</ele>
        <time>2020-06-12T17:43:30.631Z</time>
      </trkpt>
      <trkpt lat="50.48457" lon="1.62412">
        <ele>48.437373</ele>
        <time>2020-06-12T17:43:32.674Z</time>
      </trkpt>
      <trkpt lat="50.48446" lon="1.62414">
        <ele>48.582714</ele>
        <time>2020-06-12T17:43:34.665Z</time>
      </trkpt>
      <trkpt lat="50.48436" lon="1.62414">
        <ele>48.729046</ele>
        <time>2020-06-12T17:43:36.651Z</time>
      </trkpt>
      <trkpt lat="50.48425" lon="1.62413">
        <ele>48.877182</ele>
        <time>2020-06-12T17:43:38.642Z</time>
      </trkpt>
      <trkpt lat="50.48414" lon="1.62411">
        <ele>49.029912</ele>
        <time>2020-06-12T17:43:40.646Z</time>
      </trkpt>
      <trkpt lat="50.48403" lon="1.62409">
        <ele>49.178122</ele>
        <time>2020-06-12T17:43:42.646Z</time>
      </trkpt>
      <trkpt lat="50.48393" lon="1.62408">
        <ele>49.320887</ele>
        <time>2020-06-12T17:43:44.645Z</time>
      </trkpt>
      <trkpt lat="50.48382" lon="1.62406">
        <ele>49.473259</ele>
        <time>2020-06-12T17:43:46.649Z</time>
      </trkpt>
      <trkpt lat="50.4837" lon="1.62405">
        <ele>49.625154</ele>
        <time>2020-06-12T17:43:48.630Z</time>
      </trkpt>
      <trkpt lat="50.4836" lon="1.62404">
        <ele>49.771928</ele>
        <time>2020-06-12T17:43:50.648Z</time>
      </trkpt>
      <trkpt lat="50.4835" lon="1.62402">
        <ele>49.910694</ele>
        <time>2020-06-12T17:43:52.628Z</time>
      </trkpt>
      <trkpt lat="50.4834" lon="1.62406">
        <ele>50.044915</ele>
        <time>2020-06-12T17:43:54.645Z</time>
      </trkpt>
      <trkpt lat="50.48336" lon="1.62421">
        <ele>50.19225</ele>
        <time>2020-06-12T17:43:56.653Z</time>
      </trkpt>
      <trkpt lat="50.48339" lon="1.62438">
        <ele>50.377612</ele>
        <time>2020-06-12T17:43:58.637Z</time>
      </trkpt>
      <trkpt lat="50.48345" lon="1.62454">
        <ele>50.561042</ele>
        <time>2020-06-12T17:44:00.636Z</time>
      </trkpt>
      <trkpt lat="50.48352" lon="1.62469">
        <ele>50.737041</ele>
        <time>2020-06-12T17:44:02.649Z</time>
      </trkpt>
      <trkpt lat="50.48357" lon="1.62485">
        <ele>50.917181</ele>
        <time>2020-06-12T17:44:04.631Z</time>
      </trkpt>
      <trkpt lat="50.48363" lon="1.62501">
        <ele>51.097771</ele>
        <time>2020-06-12T17:44:06.630Z</time>
      </trkpt>
      <trkpt lat="50.48368" lon="1.62517">
        <ele>51.276759</ele>
        <time>2020-06-12T17:44:08.659Z</time>
      </trkpt>
      <trkpt lat="50.48374" lon="1.62533">
        <ele>51.462185</ele>
        <time>2020-06-12T17:44:10.637Z</time>
      </trkpt>
      <trkpt lat="50.4838" lon="1.62551">
        <ele>51.66031</ele>
        <time>2020-06-12T17:44:12.633Z</time>
      </trkpt>
      <trkpt lat="50.48385" lon="1.62568">
        <ele>51.849046</ele>
        <time>2020-06-12T17:44:14.642Z</time>
      </trkpt>
      <trkpt lat="50.4839" lon="1.62584">
        <ele>52.025467</ele>
        <time>2020-06-12T17:44:16.638Z</time>
      </trkpt>
      <trkpt lat="50.48396" lon="1.62601">
        <ele>52.218065</ele>
        <time>2020-06-12T17:44:18.634Z</time>
      </trkpt>
      <trkpt lat="50.48402" lon="1.6262">
        <ele>52.431008</ele>
        <time>2020-06-12T17:44:20.635Z</time>
      </trkpt>
      <trkpt lat="50.48407" lon="1.62641">
        <ele>52.653904</ele>
        <time>2020-06-12T17:44:22.637Z</time>
      </trkpt>
      <trkpt lat="50.48413" lon="1.6266">
        <ele>52.864798</ele>
        <time>2020-06-12T17:44:24.647Z</time>
      </trkpt>
      <trkpt lat="50.48418" lon="1.62678">
        <ele>52.850462</ele>
        <time>2020-06-12T17:44:26.656Z</time>
      </trkpt>
      <trkpt lat="50.48424" lon="1.62696">
        <ele>52.742023</ele>
        <time>2020-06-12T17:44:28.660Z</time>
      </trkpt>
      <trkpt lat="50.4843" lon="1.62715">
        <ele>52.62805</ele>
        <time>2020-06-12T17:44:30.624Z</time>
      </trkpt>
      <trkpt lat="50.48436" lon="1.62734">
        <ele>52.515026</ele>
        <time>2020-06-12T17:44:32.645Z</time>
      </trkpt>
      <trkpt lat="50.48442" lon="1.62752">
        <ele>52.405982</ele>
        <time>2020-06-12T17:44:34.640Z</time>
      </trkpt>
      <trkpt lat="50.48447" lon="1.62769">
        <ele>52.303353</ele>
        <time>2020-06-12T17:44:36.647Z</time>
      </trkpt>
      <trkpt lat="50.48452" lon="1.62787">
        <ele>52.198293</ele>
        <time>2020-06-12T17:44:38.658Z</time>
      </trkpt>
      <trkpt lat="50.48457" lon="1.62806">
        <ele>52.089816</ele>
        <time>2020-06-12T17:44:40.638Z</time>
      </trkpt>
      <trkpt lat="50.48462" lon="1.62825">
        <ele>51.978041</ele>
        <time>2020-06-12T17:44:42.630Z</time>
      </trkpt>
      <trkpt lat="50.48467" lon="1.62845">
        <ele>51.86368</ele>
        <time>2020-06-12T17:44:44.651Z</time>
      </trkpt>
      <trkpt lat="50.48471" lon="1.62865">
        <ele>51.747518</ele>
        <time>2020-06-12T17:44:46.640Z</time>
      </trkpt>
      <trkpt lat="50.48476" lon="1.62885">
        <ele>51.634281</ele>
        <time>2020-06-12T17:44:48.634Z</time>
      </trkpt>
      <trkpt lat="50.48481" lon="1.62904">
        <ele>51.524811</ele>
        <time>2020-06-12T17:44:50.692Z</time>
      </trkpt>
      <trkpt lat="50.48485" lon="1.62923">
        <ele>51.418212</ele>
        <time>2020-06-12T17:44:52.635Z</time>
      </trkpt>
      <trkpt lat="50.48488" lon="1.62942">
        <ele>51.265973</ele>
        <time>2020-06-12T17:44:54.671Z</time>
      </trkpt>
      <trkpt lat="50.48493" lon="1.6296">
        <ele>51.106122</ele>
        <time>2020-06-12T17:44:56.638Z</time>
      </trkpt>
      <trkpt lat="50.48498" lon="1.62978">
        <ele>50.941064</ele>
        <time>2020-06-12T17:44:58.638Z</time>
      </trkpt>
      <trkpt lat="50.48503" lon="1.62997">
        <ele>50.77576</ele>
        <time>2020-06-12T17:45:00.630Z</time>
      </trkpt>
      <trkpt lat="50.48507" lon="1.63015">
        <ele>50.621988</ele>
        <time>2020-06-12T17:45:02.636Z</time>
      </trkpt>
      <trkpt lat="50.48511" lon="1.63031">
        <ele>50.474371</ele>
        <time>2020-06-12T17:45:04.648Z</time>
      </trkpt>
      <trkpt lat="50.48515" lon="1.63049">
        <ele>50.322017</ele>
        <time>2020-06-12T17:45:06.638Z</time>
      </trkpt>
      <trkpt lat="50.4852" lon="1.63067">
        <ele>50.158938</ele>
        <time>2020-06-12T17:45:08.648Z</time>
      </trkpt>
      <trkpt lat="50.48524" lon="1.63085">
        <ele>50.000896</ele>
        <time>2020-06-12T17:45:10.639Z</time>
      </trkpt>
      <trkpt lat="50.48528" lon="1.63104">
        <ele>49.841736</ele>
        <time>2020-06-12T17:45:12.651Z</time>
      </trkpt>
      <trkpt lat="50.48532" lon="1.63123">
        <ele>49.678263</ele>
        <time>2020-06-12T17:45:14.639Z</time>
      </trkpt>
      <trkpt lat="50.48536" lon="1.63141">
        <ele>49.522626</ele>
        <time>2020-06-12T17:45:16.675Z</time>
      </trkpt>
      <trkpt lat="50.4854" lon="1.6316">
        <ele>49.358392</ele>
        <time>2020-06-12T17:45:18.636Z</time>
      </trkpt>
      <trkpt lat="50.48543" lon="1.63179">
        <ele>49.193394</ele>
        <time>2020-06-12T17:45:20.659Z</time>
      </trkpt>
      <trkpt lat="50.48547" lon="1.632">
        <ele>49.12843</ele>
        <time>2020-06-12T17:45:22.636Z</time>
      </trkpt>
      <trkpt lat="50.48551" lon="1.63221">
        <ele>49.21525</ele>
        <time>2020-06-12T17:45:24.640Z</time>
      </trkpt>
      <trkpt lat="50.48554" lon="1.63241">
        <ele>49.299962</ele>
        <time>2020-06-12T17:45:26.656Z</time>
      </trkpt>
      <trkpt lat="50.48557" lon="1.6326">
        <ele>49.381157</ele>
        <time>2020-06-12T17:45:28.665Z</time>
      </trkpt>
      <trkpt lat="50.48561" lon="1.6328">
        <ele>49.462981</ele>
        <time>2020-06-12T17:45:30.642Z</time>
      </trkpt>
      <trkpt lat="50.48564" lon="1.63299">
        <ele>49.543424</ele>
        <time>2020-06-12T17:45:32.643Z</time>
      </trkpt>
      <trkpt lat="50.48568" lon="1.63319">
        <ele>49.626581</ele>
        <time>2020-06-12T17:45:34.642Z</time>
      </trkpt>
      <trkpt lat="50.48572" lon="1.63339">
        <ele>49.712364</ele>
        <time>2020-06-12T17:45:36.632Z</time>
      </trkpt>
      <trkpt lat="50.48576" lon="1.63359">
        <ele>49.794699</ele>
        <time>2020-06-12T17:45:38.644Z</time>
      </trkpt>
      <trkpt lat="50.48579" lon="1.63378">
        <ele>49.873775</ele>
        <time>2020-06-12T17:45:40.639Z</time>
      </trkpt>
      <trkpt lat="50.48583" lon="1.63396">
        <ele>49.951607</ele>
        <time>2020-06-12T17:45:42.644Z</time>
      </trkpt>
      <trkpt lat="50.48586" lon="1.63416">
        <ele>50.031878</ele>
        <time>2020-06-12T17:45:44.641Z</time>
      </trkpt>
      <trkpt lat="50.48589" lon="1.63435">
        <ele>50.114258</ele>
        <time>2020-06-12T17:45:46.638Z</time>
      </trkpt>
      <trkpt lat="50.48592" lon="1.63454">
        <ele>50.191747</ele>
        <time>2020-06-12T17:45:48.640Z</time>
      </trkpt>
      <trkpt lat="50.48594" lon="1.63473">
        <ele>50.194152</ele>
        <time>2020-06-12T17:45:50.673Z</time>
      </trkpt>
      <trkpt lat="50.48597" lon="1.63491">
        <ele>50.12153</ele>
        <time>2020-06-12T17:45:52.641Z</time>
      </trkpt>
      <trkpt lat="50.48599" lon="1.63509">
        <ele>50.050057</ele>
        <time>2020-06-12T17:45:54.643Z</time>
      </trkpt>
      <trkpt lat="50.48601" lon="1.63528">
        <ele>49.974782</ele>
        <time>2020-06-12T17:45:56.643Z</time>
      </trkpt>
      <trkpt lat="50.48604" lon="1.63546">
        <ele>49.901909</ele>
        <time>2020-06-12T17:45:58.637Z</time>
      </trkpt>
      <trkpt lat="50.48607" lon="1.63565">
        <ele>49.825486</ele>
        <time>2020-06-12T17:46:00.629Z</time>
      </trkpt>
      <trkpt lat="50.4861" lon="1.63585">
        <ele>49.74711</ele>
        <time>2020-06-12T17:46:02.641Z</time>
      </trkpt>
      <trkpt lat="50.48614" lon="1.63605">
        <ele>49.665686</ele>
        <time>2020-06-12T17:46:04.635Z</time>
      </trkpt>
      <trkpt lat="50.48618" lon="1.63626">
        <ele>49.58003</ele>
        <time>2020-06-12T17:46:06.616Z</time>
      </trkpt>
      <trkpt lat="50.48622" lon="1.63647">
        <ele>49.495222</ele>
        <time>2020-06-12T17:46:08.649Z</time>
      </trkpt>
      <trkpt lat="50.48626" lon="1.63667">
        <ele>49.41104</ele>
        <time>2020-06-12T17:46:10.628Z</time>
      </trkpt>
      <trkpt lat="50.48629" lon="1.63688">
        <ele>49.328114</ele>
        <time>2020-06-12T17:46:12.661Z</time>
      </trkpt>
      <trkpt lat="50.48632" lon="1.63708">
        <ele>49.247988</ele>
        <time>2020-06-12T17:46:14.643Z</time>
      </trkpt>
      <trkpt lat="50.48634" lon="1.63727">
        <ele>49.170654</ele>
        <time>2020-06-12T17:46:16.641Z</time>
      </trkpt>
      <trkpt lat="50.48637" lon="1.63748">
        <ele>49.114943</ele>
        <time>2020-06-12T17:46:18.639Z</time>
      </trkpt>
      <trkpt lat="50.48638" lon="1.63769">
        <ele>49.0864</ele>
        <time>2020-06-12T17:46:20.649Z</time>
      </trkpt>
      <trkpt lat="50.48638" lon="1.63789">
        <ele>49.058725</ele>
        <time>2020-06-12T17:46:22.639Z</time>
      </trkpt>
      <trkpt lat="50.48638" lon="1.63808">
        <ele>49.031978</ele>
        <time>2020-06-12T17:46:24.651Z</time>
      </trkpt>
      <trkpt lat="50.48636" lon="1.63827">
        <ele>49.006264</ele>
        <time>2020-06-12T17:46:26.650Z</time>
      </trkpt>
      <trkpt lat="50.48633" lon="1.63846">
        <ele>48.98004</ele>
        <time>2020-06-12T17:46:28.665Z</time>
      </trkpt>
      <trkpt lat="50.4863" lon="1.63864">
        <ele>48.953981</ele>
        <time>2020-06-12T17:46:30.644Z</time>
      </trkpt>
      <trkpt lat="50.48628" lon="1.63882">
        <ele>48.928204</ele>
        <time>2020-06-12T17:46:32.655Z</time>
      </trkpt>
      <trkpt lat="50.48625" lon="1.63901">
        <ele>48.901976</ele>
        <time>2020-06-12T17:46:34.652Z</time>
      </trkpt>
      <trkpt lat="50.48623" lon="1.6392">
        <ele>48.875395</ele>
        <time>2020-06-12T17:46:36.646Z</time>
      </trkpt>
      <trkpt lat="50.48621" lon="1.63941">
        <ele>48.847013</ele>
        <time>2020-06-12T17:46:38.645Z</time>
      </trkpt>
      <trkpt lat="50.48619" lon="1.6396">
        <ele>48.819444</ele>
        <time>2020-06-12T17:46:40.637Z</time>
      </trkpt>
      <trkpt lat="50.48617" lon="1.6398">
        <ele>48.792312</ele>
        <time>2020-06-12T17:46:42.632Z</time>
      </trkpt>
      <trkpt lat="50.48614" lon="1.64">
        <ele>48.764748</ele>
        <time>2020-06-12T17:46:44.653Z</time>
      </trkpt>
      <trkpt lat="50.48611" lon="1.64018">
        <ele>48.724748</ele>
        <time>2020-06-12T17:46:46.626Z</time>
      </trkpt>
      <trkpt lat="50.48608" lon="1.64037">
        <ele>48.568838</ele>
        <time>2020-06-12T17:46:48.617Z</time>
      </trkpt>
      <trkpt lat="50.48606" lon="1.64056">
        <ele>48.415025</ele>
        <time>2020-06-12T17:46:50.649Z</time>
      </trkpt>
      <trkpt lat="50.48604" lon="1.64074">
        <ele>48.263723</ele>
        <time>2020-06-12T17:46:52.639Z</time>
      </trkpt>
      <trkpt lat="50.48601" lon="1.64093">
        <ele>48.109899</ele>
        <time>2020-06-12T17:46:54.650Z</time>
      </trkpt>
      <trkpt lat="50.48599" lon="1.64111">
        <ele>47.958196</ele>
        <time>2020-06-12T17:46:56.649Z</time>
      </trkpt>
      <trkpt lat="50.48596" lon="1.64129">
        <ele>47.807798</ele>
        <time>2020-06-12T17:46:58.641Z</time>
      </trkpt>
      <trkpt lat="50.48593" lon="1.64147">
        <ele>47.659647</ele>
        <time>2020-06-12T17:47:00.646Z</time>
      </trkpt>
      <trkpt lat="50.48589" lon="1.64165">
        <ele>47.508618</ele>
        <time>2020-06-12T17:47:02.663Z</time>
      </trkpt>
      <trkpt lat="50.48584" lon="1.64182">
        <ele>47.354678</ele>
        <time>2020-06-12T17:47:04.629Z</time>
      </trkpt>
      <trkpt lat="50.4858" lon="1.64198">
        <ele>47.210778</ele>
        <time>2020-06-12T17:47:06.632Z</time>
      </trkpt>
      <trkpt lat="50.48575" lon="1.64215">
        <ele>47.06331</ele>
        <time>2020-06-12T17:47:08.647Z</time>
      </trkpt>
      <trkpt lat="50.48571" lon="1.64232">
        <ele>46.915806</ele>
        <time>2020-06-12T17:47:10.652Z</time>
      </trkpt>
      <trkpt lat="50.48566" lon="1.64249">
        <ele>46.767721</ele>
        <time>2020-06-12T17:47:12.643Z</time>
      </trkpt>
      <trkpt lat="50.4856" lon="1.64264">
        <ele>46.624122</ele>
        <time>2020-06-12T17:47:14.655Z</time>
      </trkpt>
      <trkpt lat="50.48553" lon="1.6428">
        <ele>46.47105</ele>
        <time>2020-06-12T17:47:16.645Z</time>
      </trkpt>
      <trkpt lat="50.48545" lon="1.64295">
        <ele>46.667709</ele>
        <time>2020-06-12T17:47:18.644Z</time>
      </trkpt>
      <trkpt lat="50.48537" lon="1.64307">
        <ele>46.876835</ele>
        <time>2020-06-12T17:47:20.653Z</time>
      </trkpt>
      <trkpt lat="50.4853" lon="1.6432">
        <ele>47.076327</ele>
        <time>2020-06-12T17:47:22.644Z</time>
      </trkpt>
      <trkpt lat="50.48523" lon="1.64335">
        <ele>47.285451</ele>
        <time>2020-06-12T17:47:24.636Z</time>
      </trkpt>
      <trkpt lat="50.48518" lon="1.64352">
        <ele>47.506516</ele>
        <time>2020-06-12T17:47:26.652Z</time>
      </trkpt>
      <trkpt lat="50.48513" lon="1.6437">
        <ele>47.729462</ele>
        <time>2020-06-12T17:47:28.638Z</time>
      </trkpt>
      <trkpt lat="50.48509" lon="1.64388">
        <ele>47.949477</ele>
        <time>2020-06-12T17:47:30.628Z</time>
      </trkpt>
      <trkpt lat="50.48506" lon="1.64407">
        <ele>48.174501</ele>
        <time>2020-06-12T17:47:32.648Z</time>
      </trkpt>
      <trkpt lat="50.48502" lon="1.64426">
        <ele>48.405451</ele>
        <time>2020-06-12T17:47:34.636Z</time>
      </trkpt>
      <trkpt lat="50.48498" lon="1.64444">
        <ele>48.62557</ele>
        <time>2020-06-12T17:47:36.643Z</time>
      </trkpt>
      <trkpt lat="50.48493" lon="1.6446">
        <ele>48.829792</ele>
        <time>2020-06-12T17:47:38.646Z</time>
      </trkpt>
      <trkpt lat="50.48489" lon="1.64476">
        <ele>49.029418</ele>
        <time>2020-06-12T17:47:40.638Z</time>
      </trkpt>
      <trkpt lat="50.48484" lon="1.64491">
        <ele>49.221701</ele>
        <time>2020-06-12T17:47:42.642Z</time>
      </trkpt>
      <trkpt lat="50.4848" lon="1.64506">
        <ele>49.40933</ele>
        <time>2020-06-12T17:47:44.642Z</time>
      </trkpt>
      <trkpt lat="50.48477" lon="1.64521">
        <ele>49.587717</ele>
        <time>2020-06-12T17:47:46.637Z</time>
      </trkpt>
      <trkpt lat="50.48474" lon="1.64542">
        <ele>49.723422</ele>
        <time>2020-06-12T17:47:49.646Z</time>
      </trkpt>
      <trkpt lat="50.48475" lon="1.64558">
        <ele>49.734478</ele>
        <time>2020-06-12T17:47:51.647Z</time>
      </trkpt>
      <trkpt lat="50.48477" lon="1.64574">
        <ele>49.745575</ele>
        <time>2020-06-12T17:47:53.651Z</time>
      </trkpt>
      <trkpt lat="50.48479" lon="1.64591">
        <ele>49.756896</ele>
        <time>2020-06-12T17:47:55.667Z</time>
      </trkpt>
      <trkpt lat="50.48482" lon="1.64607">
        <ele>49.767858</ele>
        <time>2020-06-12T17:47:57.643Z</time>
      </trkpt>
      <trkpt lat="50.48482" lon="1.64623">
        <ele>49.778655</ele>
        <time>2020-06-12T17:47:59.645Z</time>
      </trkpt>
      <trkpt lat="50.48481" lon="1.64638">
        <ele>49.789284</ele>
        <time>2020-06-12T17:48:01.636Z</time>
      </trkpt>
      <trkpt lat="50.4848" lon="1.64653">
        <ele>49.799349</ele>
        <time>2020-06-12T17:48:03.635Z</time>
      </trkpt>
      <trkpt lat="50.48478" lon="1.64668">
        <ele>49.809578</ele>
        <time>2020-06-12T17:48:05.683Z</time>
      </trkpt>
      <trkpt lat="50.48477" lon="1.64683">
        <ele>49.819994</ele>
        <time>2020-06-12T17:48:07.631Z</time>
      </trkpt>
      <trkpt lat="50.48474" lon="1.64698">
        <ele>49.830341</ele>
        <time>2020-06-12T17:48:09.634Z</time>
      </trkpt>
      <trkpt lat="50.48473" lon="1.64713">
        <ele>49.840122</ele>
        <time>2020-06-12T17:48:11.646Z</time>
      </trkpt>
      <trkpt lat="50.48471" lon="1.64728">
        <ele>49.850425</ele>
        <time>2020-06-12T17:48:13.635Z</time>
      </trkpt>
      <trkpt lat="50.48467" lon="1.64743">
        <ele>49.861859</ele>
        <time>2020-06-12T17:48:15.638Z</time>
      </trkpt>
      <trkpt lat="50.48459" lon="1.64755">
        <ele>49.873245</ele>
        <time>2020-06-12T17:48:17.641Z</time>
      </trkpt>
      <trkpt lat="50.48449" lon="1.64762">
        <ele>49.884919</ele>
        <time>2020-06-12T17:48:19.640Z</time>
      </trkpt>
      <trkpt lat="50.48438" lon="1.64768">
        <ele>49.896581</ele>
        <time>2020-06-12T17:48:21.643Z</time>
      </trkpt>
      <trkpt lat="50.48428" lon="1.64774">
        <ele>49.921634</ele>
        <time>2020-06-12T17:48:23.637Z</time>
      </trkpt>
      <trkpt lat="50.48418" lon="1.64781">
        <ele>50.086595</ele>
        <time>2020-06-12T17:48:25.646Z</time>
      </trkpt>
      <trkpt lat="50.48409" lon="1.64788">
        <ele>50.248055</ele>
        <time>2020-06-12T17:48:27.638Z</time>
      </trkpt>
      <trkpt lat="50.48399" lon="1.64795">
        <ele>50.407703</ele>
        <time>2020-06-12T17:48:29.644Z</time>
      </trkpt>
      <trkpt lat="50.48389" lon="1.64799">
        <ele>50.560994</ele>
        <time>2020-06-12T17:48:31.643Z</time>
      </trkpt>
      <trkpt lat="50.48379" lon="1.64804">
        <ele>50.718135</ele>
        <time>2020-06-12T17:48:33.639Z</time>
      </trkpt>
      <trkpt lat="50.4837" lon="1.64808">
        <ele>50.872178</ele>
        <time>2020-06-12T17:48:35.645Z</time>
      </trkpt>
      <trkpt lat="50.4836" lon="1.64813">
        <ele>51.018638</ele>
        <time>2020-06-12T17:48:37.686Z</time>
      </trkpt>
      <trkpt lat="50.48351" lon="1.64818">
        <ele>51.168881</ele>
        <time>2020-06-12T17:48:39.648Z</time>
      </trkpt>
      <trkpt lat="50.48341" lon="1.64824">
        <ele>51.329184</ele>
        <time>2020-06-12T17:48:41.647Z</time>
      </trkpt>
      <trkpt lat="50.48331" lon="1.64831">
        <ele>51.490781</ele>
        <time>2020-06-12T17:48:43.644Z</time>
      </trkpt>
      <trkpt lat="50.48322" lon="1.64837">
        <ele>51.649683</ele>
        <time>2020-06-12T17:48:45.639Z</time>
      </trkpt>
      <trkpt lat="50.48312" lon="1.64843">
        <ele>51.80822</ele>
        <time>2020-06-12T17:48:47.642Z</time>
      </trkpt>
      <trkpt lat="50.48302" lon="1.64849">
        <ele>51.968179</ele>
        <time>2020-06-12T17:48:49.634Z</time>
      </trkpt>
      <trkpt lat="50.48292" lon="1.64854">
        <ele>52.124171</ele>
        <time>2020-06-12T17:48:51.640Z</time>
      </trkpt>
      <trkpt lat="50.48282" lon="1.64858">
        <ele>52.280396</ele>
        <time>2020-06-12T17:48:53.658Z</time>
      </trkpt>
      <trkpt lat="50.48272" lon="1.64863">
        <ele>52.436422</ele>
        <time>2020-06-12T17:48:55.642Z</time>
      </trkpt>
      <trkpt lat="50.48263" lon="1.64867">
        <ele>52.591268</ele>
        <time>2020-06-12T17:48:57.645Z</time>
      </trkpt>
      <trkpt lat="50.48253" lon="1.64871">
        <ele>52.617265</ele>
        <time>2020-06-12T17:48:59.694Z</time>
      </trkpt>
      <trkpt lat="50.48244" lon="1.64875">
        <ele>52.600246</ele>
        <time>2020-06-12T17:49:01.637Z</time>
      </trkpt>
      <trkpt lat="50.48234" lon="1.64877">
        <ele>52.582913</ele>
        <time>2020-06-12T17:49:03.633Z</time>
      </trkpt>
      <trkpt lat="50.48224" lon="1.64879">
        <ele>52.56564</ele>
        <time>2020-06-12T17:49:05.657Z</time>
      </trkpt>
      <trkpt lat="50.48214" lon="1.64881">
        <ele>52.547328</ele>
        <time>2020-06-12T17:49:07.644Z</time>
      </trkpt>
      <trkpt lat="50.48203" lon="1.64881">
        <ele>52.528582</ele>
        <time>2020-06-12T17:49:09.643Z</time>
      </trkpt>
      <trkpt lat="50.48193" lon="1.64882">
        <ele>52.509674</ele>
        <time>2020-06-12T17:49:11.653Z</time>
      </trkpt>
      <trkpt lat="50.48182" lon="1.64882">
        <ele>52.490759</ele>
        <time>2020-06-12T17:49:13.637Z</time>
      </trkpt>
      <trkpt lat="50.48171" lon="1.64882">
        <ele>52.471671</ele>
        <time>2020-06-12T17:49:15.639Z</time>
      </trkpt>
      <trkpt lat="50.48161" lon="1.64884">
        <ele>52.453051</ele>
        <time>2020-06-12T17:49:17.642Z</time>
      </trkpt>
      <trkpt lat="50.48151" lon="1.64886">
        <ele>52.434914</ele>
        <time>2020-06-12T17:49:19.643Z</time>
      </trkpt>
      <trkpt lat="50.4814" lon="1.64887">
        <ele>52.416665</ele>
        <time>2020-06-12T17:49:21.660Z</time>
      </trkpt>
      <trkpt lat="50.4813" lon="1.64888">
        <ele>52.397886</ele>
        <time>2020-06-12T17:49:23.642Z</time>
      </trkpt>
      <trkpt lat="50.48119" lon="1.6489">
        <ele>52.378718</ele>
        <time>2020-06-12T17:49:25.646Z</time>
      </trkpt>
      <trkpt lat="50.48108" lon="1.64891">
        <ele>52.360307</ele>
        <time>2020-06-12T17:49:27.638Z</time>
      </trkpt>
      <trkpt lat="50.48098" lon="1.64892">
        <ele>52.342019</ele>
        <time>2020-06-12T17:49:29.646Z</time>
      </trkpt>
      <trkpt lat="50.48088" lon="1.64894">
        <ele>52.323543</ele>
        <time>2020-06-12T17:49:31.645Z</time>
      </trkpt>
      <trkpt lat="50.48078" lon="1.64897">
        <ele>52.367282</ele>
        <time>2020-06-12T17:49:33.637Z</time>
      </trkpt>
      <trkpt lat="50.48068" lon="1.649">
        <ele>52.51866</ele>
        <time>2020-06-12T17:49:35.642Z</time>
      </trkpt>
      <trkpt lat="50.48058" lon="1.64905">
        <ele>52.673032</ele>
        <time>2020-06-12T17:49:37.649Z</time>
      </trkpt>
      <trkpt lat="50.48048" lon="1.6491">
        <ele>52.825568</ele>
        <time>2020-06-12T17:49:39.638Z</time>
      </trkpt>
      <trkpt lat="50.48039" lon="1.64914">
        <ele>52.970204</ele>
        <time>2020-06-12T17:49:41.658Z</time>
      </trkpt>
      <trkpt lat="50.48029" lon="1.64921">
        <ele>53.119472</ele>
        <time>2020-06-12T17:49:43.647Z</time>
      </trkpt>
      <trkpt lat="50.4802" lon="1.64927">
        <ele>53.267662</ele>
        <time>2020-06-12T17:49:45.621Z</time>
      </trkpt>
      <trkpt lat="50.4801" lon="1.64931">
        <ele>53.416234</ele>
        <time>2020-06-12T17:49:47.644Z</time>
      </trkpt>
      <trkpt lat="50.48001" lon="1.64934">
        <ele>53.561957</ele>
        <time>2020-06-12T17:49:49.641Z</time>
      </trkpt>
      <trkpt lat="50.47991" lon="1.64936">
        <ele>53.70651</ele>
        <time>2020-06-12T17:49:51.636Z</time>
      </trkpt>
      <trkpt lat="50.47983" lon="1.64942">
        <ele>53.844037</ele>
        <time>2020-06-12T17:49:53.653Z</time>
      </trkpt>
      <trkpt lat="50.47976" lon="1.64953">
        <ele>53.987272</ele>
        <time>2020-06-12T17:49:55.634Z</time>
      </trkpt>
      <trkpt lat="50.47968" lon="1.64962">
        <ele>54.132101</ele>
        <time>2020-06-12T17:49:57.631Z</time>
      </trkpt>
      <trkpt lat="50.47958" lon="1.64967">
        <ele>54.278273</ele>
        <time>2020-06-12T17:49:59.666Z</time>
      </trkpt>
      <trkpt lat="50.47949" lon="1.64973">
        <ele>54.424768</ele>
        <time>2020-06-12T17:50:01.644Z</time>
      </trkpt>
      <trkpt lat="50.4794" lon="1.64978">
        <ele>54.564743</ele>
        <time>2020-06-12T17:50:03.647Z</time>
      </trkpt>
      <trkpt lat="50.47932" lon="1.64982">
        <ele>54.698973</ele>
        <time>2020-06-12T17:50:05.641Z</time>
      </trkpt>
      <trkpt lat="50.47924" lon="1.64988">
        <ele>54.831691</ele>
        <time>2020-06-12T17:50:07.658Z</time>
      </trkpt>
      <trkpt lat="50.47912" lon="1.64999">
        <ele>55.125258</ele>
        <time>2020-06-12T17:50:10.633Z</time>
      </trkpt>
      <trkpt lat="50.47904" lon="1.65006">
        <ele>55.50651</ele>
        <time>2020-06-12T17:50:12.634Z</time>
      </trkpt>
      <trkpt lat="50.47895" lon="1.65013">
        <ele>55.885567</ele>
        <time>2020-06-12T17:50:14.680Z</time>
      </trkpt>
      <trkpt lat="50.47886" lon="1.65019">
        <ele>56.273211</ele>
        <time>2020-06-12T17:50:16.649Z</time>
      </trkpt>
      <trkpt lat="50.47877" lon="1.65026">
        <ele>56.656205</ele>
        <time>2020-06-12T17:50:18.641Z</time>
      </trkpt>
      <trkpt lat="50.47865" lon="1.65035">
        <ele>57.194645</ele>
        <time>2020-06-12T17:50:21.660Z</time>
      </trkpt>
      <trkpt lat="50.47857" lon="1.65042">
        <ele>57.570044</ele>
        <time>2020-06-12T17:50:23.646Z</time>
      </trkpt>
      <trkpt lat="50.47845" lon="1.6505">
        <ele>58.083108</ele>
        <time>2020-06-12T17:50:26.645Z</time>
      </trkpt>
      <trkpt lat="50.47833" lon="1.65058">
        <ele>58.604758</ele>
        <time>2020-06-12T17:50:29.639Z</time>
      </trkpt>
      <trkpt lat="50.47821" lon="1.65067">
        <ele>59.11004</ele>
        <time>2020-06-12T17:50:32.679Z</time>
      </trkpt>
      <trkpt lat="50.47811" lon="1.65075">
        <ele>59.584894</ele>
        <time>2020-06-12T17:50:35.643Z</time>
      </trkpt>
      <trkpt lat="50.478" lon="1.65083">
        <ele>60.04488</ele>
        <time>2020-06-12T17:50:38.643Z</time>
      </trkpt>
      <trkpt lat="50.4779" lon="1.6509">
        <ele>60.49005</ele>
        <time>2020-06-12T17:50:41.653Z</time>
      </trkpt>
      <trkpt lat="50.47781" lon="1.65094">
        <ele>60.852806</ele>
        <time>2020-06-12T17:50:44.644Z</time>
      </trkpt>
      <trkpt lat="50.47772" lon="1.651">
        <ele>61.238059</ele>
        <time>2020-06-12T17:50:48.640Z</time>
      </trkpt>
      <trkpt lat="50.47761" lon="1.65106">
        <ele>61.677716</ele>
        <time>2020-06-12T17:50:52.648Z</time>
      </trkpt>
      <trkpt lat="50.47751" lon="1.65113">
        <ele>62.199531</ele>
        <time>2020-06-12T17:50:56.643Z</time>
      </trkpt>
      <trkpt lat="50.47741" lon="1.6512">
        <ele>63.172119</ele>
        <time>2020-06-12T17:51:01.628Z</time>
      </trkpt>
      <trkpt lat="50.47732" lon="1.65127">
        <ele>64.1689</ele>
        <time>2020-06-12T17:51:05.685Z</time>
      </trkpt>
      <trkpt lat="50.47722" lon="1.65136">
        <ele>65.238929</ele>
        <time>2020-06-12T17:51:09.642Z</time>
      </trkpt>
      <trkpt lat="50.47714" lon="1.65143">
        <ele>66.125884</ele>
        <time>2020-06-12T17:51:12.644Z</time>
      </trkpt>
      <trkpt lat="50.47706" lon="1.65154">
        <ele>67.161506</ele>
        <time>2020-06-12T17:51:16.656Z</time>
      </trkpt>
      <trkpt lat="50.47698" lon="1.65167">
        <ele>68.232327</ele>
        <time>2020-06-12T17:51:20.657Z</time>
      </trkpt>
      <trkpt lat="50.4769" lon="1.65179">
        <ele>69.315414</ele>
        <time>2020-06-12T17:51:24.643Z</time>
      </trkpt>
      <trkpt lat="50.47683" lon="1.6519">
        <ele>70.257502</ele>
        <time>2020-06-12T17:51:28.638Z</time>
      </trkpt>
      <trkpt lat="50.47676" lon="1.652">
        <ele>71.152793</ele>
        <time>2020-06-12T17:51:32.650Z</time>
      </trkpt>
      <trkpt lat="50.47669" lon="1.65209">
        <ele>72.020932</ele>
        <time>2020-06-12T17:51:36.634Z</time>
      </trkpt>
      <trkpt lat="50.47661" lon="1.65221">
        <ele>73.033597</ele>
        <time>2020-06-12T17:51:41.643Z</time>
      </trkpt>
      <trkpt lat="50.47654" lon="1.65231">
        <ele>73.931472</ele>
        <time>2020-06-12T17:51:45.640Z</time>
      </trkpt>
      <trkpt lat="50.47647" lon="1.65241">
        <ele>74.82516</ele>
        <time>2020-06-12T17:51:49.642Z</time>
      </trkpt>
      <trkpt lat="50.47641" lon="1.65253">
        <ele>75.748624</ele>
        <time>2020-06-12T17:51:53.648Z</time>
      </trkpt>
      <trkpt lat="50.47633" lon="1.65265">
        <ele>76.781465</ele>
        <time>2020-06-12T17:51:58.650Z</time>
      </trkpt>
      <trkpt lat="50.47627" lon="1.65275">
        <ele>77.654748</ele>
        <time>2020-06-12T17:52:02.639Z</time>
      </trkpt>
      <trkpt lat="50.4762" lon="1.65285">
        <ele>78.513843</ele>
        <time>2020-06-12T17:52:06.649Z</time>
      </trkpt>
      <trkpt lat="50.47613" lon="1.65294">
        <ele>79.265187</ele>
        <time>2020-06-12T17:52:10.672Z</time>
      </trkpt>
      <trkpt lat="50.47606" lon="1.65307">
        <ele>79.637993</ele>
        <time>2020-06-12T17:52:15.639Z</time>
      </trkpt>
      <trkpt lat="50.47599" lon="1.65318">
        <ele>79.957386</ele>
        <time>2020-06-12T17:52:19.631Z</time>
      </trkpt>
      <trkpt lat="50.47593" lon="1.65329">
        <ele>80.284493</ele>
        <time>2020-06-12T17:52:23.651Z</time>
      </trkpt>
      <trkpt lat="50.47585" lon="1.65341">
        <ele>80.65748</ele>
        <time>2020-06-12T17:52:27.633Z</time>
      </trkpt>
      <trkpt lat="50.47577" lon="1.65352">
        <ele>81.00004</ele>
        <time>2020-06-12T17:52:31.642Z</time>
      </trkpt>
      <trkpt lat="50.47569" lon="1.65363">
        <ele>81.351535</ele>
        <time>2020-06-12T17:52:35.647Z</time>
      </trkpt>
      <trkpt lat="50.47562" lon="1.65373">
        <ele>81.677273</ele>
        <time>2020-06-12T17:52:39.639Z</time>
      </trkpt>
      <trkpt lat="50.47553" lon="1.65382">
        <ele>82.024828</ele>
        <time>2020-06-12T17:52:43.639Z</time>
      </trkpt>
      <trkpt lat="50.47543" lon="1.65391">
        <ele>82.416564</ele>
        <time>2020-06-12T17:52:47.651Z</time>
      </trkpt>
      <trkpt lat="50.47535" lon="1.65399">
        <ele>82.734985</ele>
        <time>2020-06-12T17:52:50.647Z</time>
      </trkpt>
      <trkpt lat="50.47527" lon="1.65405">
        <ele>83.046313</ele>
        <time>2020-06-12T17:52:53.647Z</time>
      </trkpt>
      <trkpt lat="50.47519" lon="1.65412">
        <ele>83.361511</ele>
        <time>2020-06-12T17:52:56.650Z</time>
      </trkpt>
      <trkpt lat="50.4751" lon="1.65419">
        <ele>83.690643</ele>
        <time>2020-06-12T17:52:59.689Z</time>
      </trkpt>
      <trkpt lat="50.47502" lon="1.65426">
        <ele>84.002921</ele>
        <time>2020-06-12T17:53:02.662Z</time>
      </trkpt>
      <trkpt lat="50.47493" lon="1.65432">
        <ele>84.3322</ele>
        <time>2020-06-12T17:53:05.646Z</time>
      </trkpt>
      <trkpt lat="50.47484" lon="1.65439">
        <ele>84.657515</ele>
        <time>2020-06-12T17:53:08.656Z</time>
      </trkpt>
      <trkpt lat="50.47475" lon="1.65445">
        <ele>84.981905</ele>
        <time>2020-06-12T17:53:11.673Z</time>
      </trkpt>
      <trkpt lat="50.47457" lon="1.65461">
        <ele>85.386933</ele>
        <time>2020-06-12T17:53:14.653Z</time>
      </trkpt>
      <trkpt lat="50.47448" lon="1.6547">
        <ele>85.504917</ele>
        <time>2020-06-12T17:53:17.644Z</time>
      </trkpt>
      <trkpt lat="50.47438" lon="1.6548">
        <ele>85.63301</ele>
        <time>2020-06-12T17:53:20.642Z</time>
      </trkpt>
      <trkpt lat="50.47427" lon="1.65489">
        <ele>85.76313</ele>
        <time>2020-06-12T17:53:23.654Z</time>
      </trkpt>
      <trkpt lat="50.47417" lon="1.655">
        <ele>85.894132</ele>
        <time>2020-06-12T17:53:26.656Z</time>
      </trkpt>
      <trkpt lat="50.47408" lon="1.65512">
        <ele>86.023304</ele>
        <time>2020-06-12T17:53:29.646Z</time>
      </trkpt>
      <trkpt lat="50.47399" lon="1.65525">
        <ele>86.154017</ele>
        <time>2020-06-12T17:53:32.691Z</time>
      </trkpt>
      <trkpt lat="50.4739" lon="1.65537">
        <ele>86.280051</ele>
        <time>2020-06-12T17:53:35.641Z</time>
      </trkpt>
      <trkpt lat="50.47382" lon="1.65552">
        <ele>86.41272</ele>
        <time>2020-06-12T17:53:38.650Z</time>
      </trkpt>
      <trkpt lat="50.47374" lon="1.65567">
        <ele>86.542864</ele>
        <time>2020-06-12T17:53:41.644Z</time>
      </trkpt>
      <trkpt lat="50.47368" lon="1.6558">
        <ele>86.656632</ele>
        <time>2020-06-12T17:53:44.648Z</time>
      </trkpt>
      <trkpt lat="50.47361" lon="1.65595">
        <ele>86.782895</ele>
        <time>2020-06-12T17:53:47.643Z</time>
      </trkpt>
      <trkpt lat="50.47355" lon="1.65612">
        <ele>86.919499</ele>
        <time>2020-06-12T17:53:50.656Z</time>
      </trkpt>
      <trkpt lat="50.47349" lon="1.6563">
        <ele>87.053531</ele>
        <time>2020-06-12T17:53:53.663Z</time>
      </trkpt>
      <trkpt lat="50.47343" lon="1.65647">
        <ele>87.176175</ele>
        <time>2020-06-12T17:53:56.656Z</time>
      </trkpt>
      <trkpt lat="50.47338" lon="1.65662">
        <ele>87.104801</ele>
        <time>2020-06-12T17:53:59.669Z</time>
      </trkpt>
      <trkpt lat="50.47332" lon="1.65679">
        <ele>87.030544</ele>
        <time>2020-06-12T17:54:02.657Z</time>
      </trkpt>
      <trkpt lat="50.47327" lon="1.65695">
        <ele>86.957882</ele>
        <time>2020-06-12T17:54:05.639Z</time>
      </trkpt>
      <trkpt lat="50.47321" lon="1.65709">
        <ele>86.889822</ele>
        <time>2020-06-12T17:54:08.660Z</time>
      </trkpt>
      <trkpt lat="50.47316" lon="1.65725">
        <ele>86.817217</ele>
        <time>2020-06-12T17:54:11.649Z</time>
      </trkpt>
      <trkpt lat="50.4731" lon="1.65743">
        <ele>86.73655</ele>
        <time>2020-06-12T17:54:14.641Z</time>
      </trkpt>
      <trkpt lat="50.47303" lon="1.65761">
        <ele>86.656184</ele>
        <time>2020-06-12T17:54:17.652Z</time>
      </trkpt>
      <trkpt lat="50.47298" lon="1.65778">
        <ele>86.577339</ele>
        <time>2020-06-12T17:54:20.642Z</time>
      </trkpt>
      <trkpt lat="50.47293" lon="1.65791">
        <ele>86.517644</ele>
        <time>2020-06-12T17:54:22.646Z</time>
      </trkpt>
      <trkpt lat="50.47288" lon="1.65806">
        <ele>86.452195</ele>
        <time>2020-06-12T17:54:24.639Z</time>
      </trkpt>
      <trkpt lat="50.47283" lon="1.6582">
        <ele>86.38635</ele>
        <time>2020-06-12T17:54:26.695Z</time>
      </trkpt>
      <trkpt lat="50.47277" lon="1.65833">
        <ele>86.322307</ele>
        <time>2020-06-12T17:54:28.639Z</time>
      </trkpt>
      <trkpt lat="50.47271" lon="1.65847">
        <ele>86.255354</ele>
        <time>2020-06-12T17:54:30.640Z</time>
      </trkpt>
      <trkpt lat="50.47264" lon="1.65861">
        <ele>86.184339</ele>
        <time>2020-06-12T17:54:32.647Z</time>
      </trkpt>
      <trkpt lat="50.47257" lon="1.65875">
        <ele>86.116163</ele>
        <time>2020-06-12T17:54:34.644Z</time>
      </trkpt>
      <trkpt lat="50.47251" lon="1.65889">
        <ele>86.052683</ele>
        <time>2020-06-12T17:54:36.639Z</time>
      </trkpt>
      <trkpt lat="50.47243" lon="1.65905">
        <ele>86.079989</ele>
        <time>2020-06-12T17:54:38.653Z</time>
      </trkpt>
      <trkpt lat="50.47235" lon="1.65923">
        <ele>86.109484</ele>
        <time>2020-06-12T17:54:40.669Z</time>
      </trkpt>
      <trkpt lat="50.47228" lon="1.65941">
        <ele>86.140012</ele>
        <time>2020-06-12T17:54:42.642Z</time>
      </trkpt>
      <trkpt lat="50.4722" lon="1.65958">
        <ele>86.168318</ele>
        <time>2020-06-12T17:54:44.643Z</time>
      </trkpt>
      <trkpt lat="50.47212" lon="1.65974">
        <ele>86.197476</ele>
        <time>2020-06-12T17:54:46.636Z</time>
      </trkpt>
      <trkpt lat="50.47201" lon="1.65991">
        <ele>86.230431</ele>
        <time>2020-06-12T17:54:48.684Z</time>
      </trkpt>
      <trkpt lat="50.47189" lon="1.66007">
        <ele>86.263362</ele>
        <time>2020-06-12T17:54:50.646Z</time>
      </trkpt>
      <trkpt lat="50.47177" lon="1.6602">
        <ele>86.296678</ele>
        <time>2020-06-12T17:54:52.646Z</time>
      </trkpt>
      <trkpt lat="50.47164" lon="1.66034">
        <ele>86.330254</ele>
        <time>2020-06-12T17:54:54.634Z</time>
      </trkpt>
      <trkpt lat="50.47151" lon="1.66046">
        <ele>86.362728</ele>
        <time>2020-06-12T17:54:56.651Z</time>
      </trkpt>
      <trkpt lat="50.47138" lon="1.66057">
        <ele>86.395013</ele>
        <time>2020-06-12T17:54:58.647Z</time>
      </trkpt>
      <trkpt lat="50.47124" lon="1.66068">
        <ele>86.427744</ele>
        <time>2020-06-12T17:55:00.634Z</time>
      </trkpt>
      <trkpt lat="50.47111" lon="1.66079">
        <ele>86.321867</ele>
        <time>2020-06-12T17:55:02.658Z</time>
      </trkpt>
      <trkpt lat="50.47097" lon="1.66093">
        <ele>86.111264</ele>
        <time>2020-06-12T17:55:04.635Z</time>
      </trkpt>
      <trkpt lat="50.47084" lon="1.66108">
        <ele>85.90999</ele>
        <time>2020-06-12T17:55:06.644Z</time>
      </trkpt>
      <trkpt lat="50.47072" lon="1.66124">
        <ele>85.702746</ele>
        <time>2020-06-12T17:55:08.655Z</time>
      </trkpt>
      <trkpt lat="50.4706" lon="1.66139">
        <ele>85.513988</ele>
        <time>2020-06-12T17:55:10.623Z</time>
      </trkpt>
      <trkpt lat="50.4705" lon="1.66154">
        <ele>85.331311</ele>
        <time>2020-06-12T17:55:12.646Z</time>
      </trkpt>
      <trkpt lat="50.4704" lon="1.66168">
        <ele>85.165682</ele>
        <time>2020-06-12T17:55:14.670Z</time>
      </trkpt>
      <trkpt lat="50.47032" lon="1.6618">
        <ele>85.023537</ele>
        <time>2020-06-12T17:55:16.643Z</time>
      </trkpt>
      <trkpt lat="50.47024" lon="1.66194">
        <ele>84.870581</ele>
        <time>2020-06-12T17:55:18.637Z</time>
      </trkpt>
      <trkpt lat="50.47015" lon="1.66206">
        <ele>84.719965</ele>
        <time>2020-06-12T17:55:20.644Z</time>
      </trkpt>
      <trkpt lat="50.47007" lon="1.66217">
        <ele>84.580815</ele>
        <time>2020-06-12T17:55:22.643Z</time>
      </trkpt>
      <trkpt lat="50.46998" lon="1.66228">
        <ele>84.438107</ele>
        <time>2020-06-12T17:55:24.631Z</time>
      </trkpt>
      <trkpt lat="50.46989" lon="1.6624">
        <ele>84.293904</ele>
        <time>2020-06-12T17:55:26.631Z</time>
      </trkpt>
      <trkpt lat="50.46981" lon="1.66252">
        <ele>84.148746</ele>
        <time>2020-06-12T17:55:28.628Z</time>
      </trkpt>
      <trkpt lat="50.46973" lon="1.66262">
        <ele>84.007925</ele>
        <time>2020-06-12T17:55:30.626Z</time>
      </trkpt>
      <trkpt lat="50.46964" lon="1.66275">
        <ele>83.833222</ele>
        <time>2020-06-12T17:55:33.629Z</time>
      </trkpt>
      <trkpt lat="50.46955" lon="1.66286">
        <ele>83.674727</ele>
        <time>2020-06-12T17:55:35.646Z</time>
      </trkpt>
      <trkpt lat="50.46947" lon="1.66299">
        <ele>83.509414</ele>
        <time>2020-06-12T17:55:37.637Z</time>
      </trkpt>
      <trkpt lat="50.4694" lon="1.66313">
        <ele>83.348537</ele>
        <time>2020-06-12T17:55:39.645Z</time>
      </trkpt>
      <trkpt lat="50.46931" lon="1.66327">
        <ele>83.174791</ele>
        <time>2020-06-12T17:55:41.641Z</time>
      </trkpt>
      <trkpt lat="50.46923" lon="1.66338">
        <ele>83.01915</ele>
        <time>2020-06-12T17:55:43.637Z</time>
      </trkpt>
      <trkpt lat="50.46913" lon="1.66345">
        <ele>82.869485</ele>
        <time>2020-06-12T17:55:45.641Z</time>
      </trkpt>
      <trkpt lat="50.46902" lon="1.66351">
        <ele>82.709233</ele>
        <time>2020-06-12T17:55:47.662Z</time>
      </trkpt>
      <trkpt lat="50.46891" lon="1.66358">
        <ele>82.542142</ele>
        <time>2020-06-12T17:55:49.637Z</time>
      </trkpt>
      <trkpt lat="50.4688" lon="1.66363">
        <ele>82.375896</ele>
        <time>2020-06-12T17:55:51.667Z</time>
      </trkpt>
      <trkpt lat="50.46869" lon="1.66366">
        <ele>82.223707</ele>
        <time>2020-06-12T17:55:53.638Z</time>
      </trkpt>
      <trkpt lat="50.4686" lon="1.6637">
        <ele>82.085207</ele>
        <time>2020-06-12T17:55:55.624Z</time>
      </trkpt>
      <trkpt lat="50.46851" lon="1.66368">
        <ele>81.951154</ele>
        <time>2020-06-12T17:55:57.633Z</time>
      </trkpt>
      <trkpt lat="50.46842" lon="1.66362">
        <ele>81.814279</ele>
        <time>2020-06-12T17:55:59.650Z</time>
      </trkpt>
      <trkpt lat="50.46833" lon="1.66357">
        <ele>81.678023</ele>
        <time>2020-06-12T17:56:01.628Z</time>
      </trkpt>
      <trkpt lat="50.46824" lon="1.66352">
        <ele>81.690249</ele>
        <time>2020-06-12T17:56:03.649Z</time>
      </trkpt>
      <trkpt lat="50.46815" lon="1.66349">
        <ele>81.838533</ele>
        <time>2020-06-12T17:56:05.650Z</time>
      </trkpt>
      <trkpt lat="50.46802" lon="1.66344">
        <ele>82.051329</ele>
        <time>2020-06-12T17:56:08.650Z</time>
      </trkpt>
      <trkpt lat="50.4679" lon="1.66337">
        <ele>82.259441</ele>
        <time>2020-06-12T17:56:11.639Z</time>
      </trkpt>
      <trkpt lat="50.46779" lon="1.66332">
        <ele>82.44911</ele>
        <time>2020-06-12T17:56:14.646Z</time>
      </trkpt>
      <trkpt lat="50.46767" lon="1.66327">
        <ele>82.660062</ele>
        <time>2020-06-12T17:56:17.641Z</time>
      </trkpt>
      <trkpt lat="50.46757" lon="1.66325">
        <ele>82.816874</ele>
        <time>2020-06-12T17:56:19.641Z</time>
      </trkpt>
      <trkpt lat="50.46748" lon="1.66322">
        <ele>82.975379</ele>
        <time>2020-06-12T17:56:21.636Z</time>
      </trkpt>
      <trkpt lat="50.46738" lon="1.66319">
        <ele>83.13896</ele>
        <time>2020-06-12T17:56:23.645Z</time>
      </trkpt>
      <trkpt lat="50.46727" lon="1.66317">
        <ele>83.308272</ele>
        <time>2020-06-12T17:56:25.641Z</time>
      </trkpt>
      <trkpt lat="50.46717" lon="1.66319">
        <ele>83.473879</ele>
        <time>2020-06-12T17:56:27.640Z</time>
      </trkpt>
      <trkpt lat="50.46709" lon="1.66328">
        <ele>83.638783</ele>
        <time>2020-06-12T17:56:29.646Z</time>
      </trkpt>
      <trkpt lat="50.46702" lon="1.66342">
        <ele>83.819035</ele>
        <time>2020-06-12T17:56:31.635Z</time>
      </trkpt>
      <trkpt lat="50.46696" lon="1.66356">
        <ele>83.999514</ele>
        <time>2020-06-12T17:56:33.648Z</time>
      </trkpt>
      <trkpt lat="50.4669" lon="1.66368">
        <ele>84.162347</ele>
        <time>2020-06-12T17:56:35.638Z</time>
      </trkpt>
      <trkpt lat="50.46683" lon="1.66378">
        <ele>84.3105</ele>
        <time>2020-06-12T17:56:37.632Z</time>
      </trkpt>
      <trkpt lat="50.46676" lon="1.66388">
        <ele>84.469585</ele>
        <time>2020-06-12T17:56:39.637Z</time>
      </trkpt>
      <trkpt lat="50.46665" lon="1.66401">
        <ele>84.267504</ele>
        <time>2020-06-12T17:56:42.630Z</time>
      </trkpt>
      <trkpt lat="50.46656" lon="1.66404">
        <ele>83.969835</ele>
        <time>2020-06-12T17:56:44.639Z</time>
      </trkpt>
      <trkpt lat="50.46646" lon="1.66405">
        <ele>83.642027</ele>
        <time>2020-06-12T17:56:46.638Z</time>
      </trkpt>
      <trkpt lat="50.46637" lon="1.66407">
        <ele>83.336646</ele>
        <time>2020-06-12T17:56:48.644Z</time>
      </trkpt>
      <trkpt lat="50.46624" lon="1.66411">
        <ele>82.891016</ele>
        <time>2020-06-12T17:56:51.638Z</time>
      </trkpt>
      <trkpt lat="50.46613" lon="1.66416">
        <ele>82.526436</ele>
        <time>2020-06-12T17:56:53.647Z</time>
      </trkpt>
      <trkpt lat="50.46601" lon="1.6642">
        <ele>82.101082</ele>
        <time>2020-06-12T17:56:55.650Z</time>
      </trkpt>
      <trkpt lat="50.46587" lon="1.66423">
        <ele>81.639645</ele>
        <time>2020-06-12T17:56:57.635Z</time>
      </trkpt>
      <trkpt lat="50.46572" lon="1.66426">
        <ele>81.132408</ele>
        <time>2020-06-12T17:56:59.644Z</time>
      </trkpt>
      <trkpt lat="50.46556" lon="1.66428">
        <ele>80.598696</ele>
        <time>2020-06-12T17:57:01.646Z</time>
      </trkpt>
      <trkpt lat="50.46539" lon="1.66431">
        <ele>80.027693</ele>
        <time>2020-06-12T17:57:03.642Z</time>
      </trkpt>
      <trkpt lat="50.46521" lon="1.66433">
        <ele>79.446208</ele>
        <time>2020-06-12T17:57:05.656Z</time>
      </trkpt>
      <trkpt lat="50.46504" lon="1.66435">
        <ele>78.866336</ele>
        <time>2020-06-12T17:57:07.640Z</time>
      </trkpt>
      <trkpt lat="50.46486" lon="1.66439">
        <ele>78.225523</ele>
        <time>2020-06-12T17:57:09.670Z</time>
      </trkpt>
      <trkpt lat="50.46469" lon="1.66442">
        <ele>77.558899</ele>
        <time>2020-06-12T17:57:11.658Z</time>
      </trkpt>
      <trkpt lat="50.46453" lon="1.66444">
        <ele>76.896459</ele>
        <time>2020-06-12T17:57:13.632Z</time>
      </trkpt>
      <trkpt lat="50.46437" lon="1.66447">
        <ele>76.272692</ele>
        <time>2020-06-12T17:57:15.643Z</time>
      </trkpt>
      <trkpt lat="50.46422" lon="1.6645">
        <ele>75.663648</ele>
        <time>2020-06-12T17:57:17.658Z</time>
      </trkpt>
      <trkpt lat="50.46407" lon="1.66454">
        <ele>75.089787</ele>
        <time>2020-06-12T17:57:19.641Z</time>
      </trkpt>
      <trkpt lat="50.46394" lon="1.66456">
        <ele>74.554733</ele>
        <time>2020-06-12T17:57:21.650Z</time>
      </trkpt>
      <trkpt lat="50.46381" lon="1.66459">
        <ele>74.042069</ele>
        <time>2020-06-12T17:57:23.639Z</time>
      </trkpt>
      <trkpt lat="50.46368" lon="1.66464">
        <ele>73.525447</ele>
        <time>2020-06-12T17:57:25.677Z</time>
      </trkpt>
      <trkpt lat="50.46354" lon="1.66467">
        <ele>72.976395</ele>
        <time>2020-06-12T17:57:27.643Z</time>
      </trkpt>
      <trkpt lat="50.46341" lon="1.66468">
        <ele>72.43432</ele>
        <time>2020-06-12T17:57:29.644Z</time>
      </trkpt>
      <trkpt lat="50.46329" lon="1.66471">
        <ele>71.975506</ele>
        <time>2020-06-12T17:57:31.636Z</time>
      </trkpt>
      <trkpt lat="50.46319" lon="1.66475">
        <ele>71.549182</ele>
        <time>2020-06-12T17:57:33.627Z</time>
      </trkpt>
      <trkpt lat="50.46307" lon="1.66477">
        <ele>71.380223</ele>
        <time>2020-06-12T17:57:35.675Z</time>
      </trkpt>
      <trkpt lat="50.46294" lon="1.6648">
        <ele>71.218031</ele>
        <time>2020-06-12T17:57:37.638Z</time>
      </trkpt>
      <trkpt lat="50.46281" lon="1.66484">
        <ele>71.053228</ele>
        <time>2020-06-12T17:57:39.640Z</time>
      </trkpt>
      <trkpt lat="50.46268" lon="1.66487">
        <ele>70.894145</ele>
        <time>2020-06-12T17:57:41.647Z</time>
      </trkpt>
      <trkpt lat="50.46255" lon="1.66491">
        <ele>70.737483</ele>
        <time>2020-06-12T17:57:43.645Z</time>
      </trkpt>
      <trkpt lat="50.46241" lon="1.66495">
        <ele>70.568363</ele>
        <time>2020-06-12T17:57:45.645Z</time>
      </trkpt>
      <trkpt lat="50.46226" lon="1.66497">
        <ele>70.389052</ele>
        <time>2020-06-12T17:57:47.643Z</time>
      </trkpt>
      <trkpt lat="50.46211" lon="1.66497">
        <ele>70.207961</ele>
        <time>2020-06-12T17:57:49.642Z</time>
      </trkpt>
      <trkpt lat="50.46197" lon="1.66497">
        <ele>70.035318</ele>
        <time>2020-06-12T17:57:51.637Z</time>
      </trkpt>
      <trkpt lat="50.46183" lon="1.66495">
        <ele>69.87012</ele>
        <time>2020-06-12T17:57:53.649Z</time>
      </trkpt>
      <trkpt lat="50.46171" lon="1.66489">
        <ele>69.712666</ele>
        <time>2020-06-12T17:57:55.635Z</time>
      </trkpt>
      <trkpt lat="50.4616" lon="1.66483">
        <ele>69.568804</ele>
        <time>2020-06-12T17:57:57.635Z</time>
      </trkpt>
      <trkpt lat="50.46149" lon="1.66475">
        <ele>69.430492</ele>
        <time>2020-06-12T17:57:59.682Z</time>
      </trkpt>
      <trkpt lat="50.4614" lon="1.66465">
        <ele>69.325618</ele>
        <time>2020-06-12T17:58:01.643Z</time>
      </trkpt>
      <trkpt lat="50.4613" lon="1.66457">
        <ele>69.295568</ele>
        <time>2020-06-12T17:58:03.656Z</time>
      </trkpt>
      <trkpt lat="50.4612" lon="1.66449">
        <ele>69.265814</ele>
        <time>2020-06-12T17:58:05.640Z</time>
      </trkpt>
      <trkpt lat="50.4611" lon="1.66444">
        <ele>69.237351</ele>
        <time>2020-06-12T17:58:07.636Z</time>
      </trkpt>
      <trkpt lat="50.461" lon="1.66441">
        <ele>69.208889</ele>
        <time>2020-06-12T17:58:09.643Z</time>
      </trkpt>
      <trkpt lat="50.46089" lon="1.6644">
        <ele>69.180575</ele>
        <time>2020-06-12T17:58:11.648Z</time>
      </trkpt>
      <trkpt lat="50.46078" lon="1.66438">
        <ele>69.151359</ele>
        <time>2020-06-12T17:58:13.645Z</time>
      </trkpt>
      <trkpt lat="50.46066" lon="1.66435">
        <ele>69.118597</ele>
        <time>2020-06-12T17:58:15.636Z</time>
      </trkpt>
      <trkpt lat="50.46054" lon="1.66431">
        <ele>69.085184</ele>
        <time>2020-06-12T17:58:17.647Z</time>
      </trkpt>
      <trkpt lat="50.46042" lon="1.66428">
        <ele>69.052531</ele>
        <time>2020-06-12T17:58:19.687Z</time>
      </trkpt>
      <trkpt lat="50.4603" lon="1.66425">
        <ele>69.020012</ele>
        <time>2020-06-12T17:58:21.647Z</time>
      </trkpt>
      <trkpt lat="50.46018" lon="1.66425">
        <ele>68.986893</ele>
        <time>2020-06-12T17:58:23.640Z</time>
      </trkpt>
      <trkpt lat="50.46005" lon="1.66426">
        <ele>68.951874</ele>
        <time>2020-06-12T17:58:25.646Z</time>
      </trkpt>
      <trkpt lat="50.45992" lon="1.66427">
        <ele>68.91703</ele>
        <time>2020-06-12T17:58:27.639Z</time>
      </trkpt>
      <trkpt lat="50.45979" lon="1.6643">
        <ele>68.88237</ele>
        <time>2020-06-12T17:58:29.662Z</time>
      </trkpt>
      <trkpt lat="50.45967" lon="1.66431">
        <ele>68.84555</ele>
        <time>2020-06-12T17:58:31.635Z</time>
      </trkpt>
      <trkpt lat="50.45956" lon="1.66432">
        <ele>68.665685</ele>
        <time>2020-06-12T17:58:33.641Z</time>
      </trkpt>
      <trkpt lat="50.45945" lon="1.66435">
        <ele>68.492951</ele>
        <time>2020-06-12T17:58:35.649Z</time>
      </trkpt>
      <trkpt lat="50.45932" lon="1.66437">
        <ele>68.288426</ele>
        <time>2020-06-12T17:58:37.644Z</time>
      </trkpt>
      <trkpt lat="50.45918" lon="1.6644">
        <ele>68.064723</ele>
        <time>2020-06-12T17:58:39.638Z</time>
      </trkpt>
      <trkpt lat="50.45904" lon="1.66442">
        <ele>67.830144</ele>
        <time>2020-06-12T17:58:41.651Z</time>
      </trkpt>
      <trkpt lat="50.45888" lon="1.66441">
        <ele>67.577387</ele>
        <time>2020-06-12T17:58:43.648Z</time>
      </trkpt>
      <trkpt lat="50.45871" lon="1.66439">
        <ele>67.304953</ele>
        <time>2020-06-12T17:58:45.649Z</time>
      </trkpt>
      <trkpt lat="50.45862" lon="1.66438">
        <ele>67.161748</ele>
        <time>2020-06-12T17:58:46.663Z</time>
      </trkpt>
      <trkpt lat="50.45852" lon="1.66438">
        <ele>67.015369</ele>
        <time>2020-06-12T17:58:47.650Z</time>
      </trkpt>
      <trkpt lat="50.45843" lon="1.66437">
        <ele>66.867448</ele>
        <time>2020-06-12T17:58:48.639Z</time>
      </trkpt>
      <trkpt lat="50.45834" lon="1.66436">
        <ele>66.714318</ele>
        <time>2020-06-12T17:58:49.639Z</time>
      </trkpt>
      <trkpt lat="50.45824" lon="1.66434">
        <ele>66.560139</ele>
        <time>2020-06-12T17:58:50.647Z</time>
      </trkpt>
      <trkpt lat="50.45815" lon="1.66431">
        <ele>66.407496</ele>
        <time>2020-06-12T17:58:51.635Z</time>
      </trkpt>
      <trkpt lat="50.45806" lon="1.66428">
        <ele>66.261281</ele>
        <time>2020-06-12T17:58:52.651Z</time>
      </trkpt>
      <trkpt lat="50.45797" lon="1.66424">
        <ele>66.114174</ele>
        <time>2020-06-12T17:58:53.650Z</time>
      </trkpt>
      <trkpt lat="50.45788" lon="1.66421">
        <ele>65.978606</ele>
        <time>2020-06-12T17:58:54.644Z</time>
      </trkpt>
      <trkpt lat="50.45772" lon="1.66418">
        <ele>65.825108</ele>
        <time>2020-06-12T17:58:56.662Z</time>
      </trkpt>
      <trkpt lat="50.45756" lon="1.66413">
        <ele>65.674696</ele>
        <time>2020-06-12T17:58:58.640Z</time>
      </trkpt>
      <trkpt lat="50.4574" lon="1.66408">
        <ele>65.52008</ele>
        <time>2020-06-12T17:59:00.645Z</time>
      </trkpt>
      <trkpt lat="50.45724" lon="1.66401">
        <ele>65.363263</ele>
        <time>2020-06-12T17:59:02.651Z</time>
      </trkpt>
      <trkpt lat="50.45709" lon="1.66396">
        <ele>65.216457</ele>
        <time>2020-06-12T17:59:04.643Z</time>
      </trkpt>
      <trkpt lat="50.45695" lon="1.66393">
        <ele>65.080469</ele>
        <time>2020-06-12T17:59:06.639Z</time>
      </trkpt>
      <trkpt lat="50.45683" lon="1.66391">
        <ele>64.967621</ele>
        <time>2020-06-12T17:59:08.661Z</time>
      </trkpt>
      <trkpt lat="50.45672" lon="1.6639">
        <ele>64.859316</ele>
        <time>2020-06-12T17:59:10.631Z</time>
      </trkpt>
      <trkpt lat="50.45659" lon="1.6639">
        <ele>64.739644</ele>
        <time>2020-06-12T17:59:12.641Z</time>
      </trkpt>
      <trkpt lat="50.45646" lon="1.66391">
        <ele>64.614041</ele>
        <time>2020-06-12T17:59:14.651Z</time>
      </trkpt>
      <trkpt lat="50.45633" lon="1.66391">
        <ele>64.488679</ele>
        <time>2020-06-12T17:59:16.636Z</time>
      </trkpt>
      <trkpt lat="50.45619" lon="1.6639">
        <ele>64.360422</ele>
        <time>2020-06-12T17:59:18.618Z</time>
      </trkpt>
      <trkpt lat="50.45606" lon="1.6639">
        <ele>64.150888</ele>
        <time>2020-06-12T17:59:20.661Z</time>
      </trkpt>
      <trkpt lat="50.45594" lon="1.66391">
        <ele>63.829224</ele>
        <time>2020-06-12T17:59:22.640Z</time>
      </trkpt>
      <trkpt lat="50.45581" lon="1.66391">
        <ele>63.507582</ele>
        <time>2020-06-12T17:59:24.650Z</time>
      </trkpt>
      <trkpt lat="50.45569" lon="1.66389">
        <ele>63.190623</ele>
        <time>2020-06-12T17:59:26.662Z</time>
      </trkpt>
      <trkpt lat="50.45557" lon="1.66387">
        <ele>62.872291</ele>
        <time>2020-06-12T17:59:28.624Z</time>
      </trkpt>
      <trkpt lat="50.45544" lon="1.66385">
        <ele>62.548801</ele>
        <time>2020-06-12T17:59:30.637Z</time>
      </trkpt>
      <trkpt lat="50.45531" lon="1.66384">
        <ele>62.207994</ele>
        <time>2020-06-12T17:59:32.644Z</time>
      </trkpt>
      <trkpt lat="50.45519" lon="1.66381">
        <ele>61.885862</ele>
        <time>2020-06-12T17:59:34.639Z</time>
      </trkpt>
      <trkpt lat="50.45508" lon="1.66379">
        <ele>61.5901</ele>
        <time>2020-06-12T17:59:36.641Z</time>
      </trkpt>
      <trkpt lat="50.45496" lon="1.66377">
        <ele>61.274851</ele>
        <time>2020-06-12T17:59:38.631Z</time>
      </trkpt>
      <trkpt lat="50.45484" lon="1.66375">
        <ele>60.964767</ele>
        <time>2020-06-12T17:59:40.646Z</time>
      </trkpt>
      <trkpt lat="50.45472" lon="1.66372">
        <ele>60.652417</ele>
        <time>2020-06-12T17:59:42.632Z</time>
      </trkpt>
      <trkpt lat="50.4546" lon="1.6637">
        <ele>60.337008</ele>
        <time>2020-06-12T17:59:44.649Z</time>
      </trkpt>
      <trkpt lat="50.45447" lon="1.66369">
        <ele>60.0143</ele>
        <time>2020-06-12T17:59:46.637Z</time>
      </trkpt>
      <trkpt lat="50.45435" lon="1.66367">
        <ele>59.694751</ele>
        <time>2020-06-12T17:59:48.650Z</time>
      </trkpt>
      <trkpt lat="50.45423" lon="1.66368">
        <ele>59.594938</ele>
        <time>2020-06-12T17:59:50.649Z</time>
      </trkpt>
      <trkpt lat="50.45411" lon="1.66369">
        <ele>59.564673</ele>
        <time>2020-06-12T17:59:52.645Z</time>
      </trkpt>
      <trkpt lat="50.45399" lon="1.66372">
        <ele>59.534742</ele>
        <time>2020-06-12T17:59:54.649Z</time>
      </trkpt>
      <trkpt lat="50.45387" lon="1.66374">
        <ele>59.503319</ele>
        <time>2020-06-12T17:59:56.658Z</time>
      </trkpt>
      <trkpt lat="50.45374" lon="1.66377">
        <ele>59.470439</ele>
        <time>2020-06-12T17:59:58.635Z</time>
      </trkpt>
      <trkpt lat="50.4536" lon="1.66379">
        <ele>59.437022</ele>
        <time>2020-06-12T18:00:00.627Z</time>
      </trkpt>
      <trkpt lat="50.45348" lon="1.66381">
        <ele>59.404961</ele>
        <time>2020-06-12T18:00:02.673Z</time>
      </trkpt>
      <trkpt lat="50.45336" lon="1.66384">
        <ele>59.37588</ele>
        <time>2020-06-12T18:00:04.648Z</time>
      </trkpt>
      <trkpt lat="50.45325" lon="1.66387">
        <ele>59.346209</ele>
        <time>2020-06-12T18:00:06.639Z</time>
      </trkpt>
      <trkpt lat="50.45313" lon="1.6639">
        <ele>59.317614</ele>
        <time>2020-06-12T18:00:08.655Z</time>
      </trkpt>
      <trkpt lat="50.45303" lon="1.66393">
        <ele>59.291054</ele>
        <time>2020-06-12T18:00:10.643Z</time>
      </trkpt>
      <trkpt lat="50.45292" lon="1.66397">
        <ele>59.262762</ele>
        <time>2020-06-12T18:00:12.637Z</time>
      </trkpt>
      <trkpt lat="50.45281" lon="1.66401">
        <ele>59.233946</ele>
        <time>2020-06-12T18:00:14.652Z</time>
      </trkpt>
      <trkpt lat="50.4527" lon="1.66405">
        <ele>59.20628</ele>
        <time>2020-06-12T18:00:16.635Z</time>
      </trkpt>
      <trkpt lat="50.4526" lon="1.66409">
        <ele>59.180962</ele>
        <time>2020-06-12T18:00:18.646Z</time>
      </trkpt>
      <trkpt lat="50.45251" lon="1.66412">
        <ele>59.181554</ele>
        <time>2020-06-12T18:00:20.643Z</time>
      </trkpt>
      <trkpt lat="50.45241" lon="1.66416">
        <ele>59.220424</ele>
        <time>2020-06-12T18:00:22.639Z</time>
      </trkpt>
      <trkpt lat="50.45232" lon="1.66419">
        <ele>59.258629</ele>
        <time>2020-06-12T18:00:24.630Z</time>
      </trkpt>
      <trkpt lat="50.45223" lon="1.66423">
        <ele>59.295496</ele>
        <time>2020-06-12T18:00:26.661Z</time>
      </trkpt>
      <trkpt lat="50.4521" lon="1.66428">
        <ele>59.346848</ele>
        <time>2020-06-12T18:00:29.653Z</time>
      </trkpt>
      <trkpt lat="50.45197" lon="1.66433">
        <ele>59.398447</ele>
        <time>2020-06-12T18:00:32.649Z</time>
      </trkpt>
      <trkpt lat="50.45188" lon="1.66437">
        <ele>59.435691</ele>
        <time>2020-06-12T18:00:34.632Z</time>
      </trkpt>
      <trkpt lat="50.45178" lon="1.66442">
        <ele>59.476607</ele>
        <time>2020-06-12T18:00:36.643Z</time>
      </trkpt>
      <trkpt lat="50.45168" lon="1.66448">
        <ele>59.518666</ele>
        <time>2020-06-12T18:00:38.659Z</time>
      </trkpt>
      <trkpt lat="50.45159" lon="1.66454">
        <ele>59.560077</ele>
        <time>2020-06-12T18:00:40.648Z</time>
      </trkpt>
      <trkpt lat="50.45149" lon="1.66462">
        <ele>59.601956</ele>
        <time>2020-06-12T18:00:42.647Z</time>
      </trkpt>
      <trkpt lat="50.4514" lon="1.66473">
        <ele>59.646963</ele>
        <time>2020-06-12T18:00:44.651Z</time>
      </trkpt>
      <trkpt lat="50.45131" lon="1.66484">
        <ele>59.691435</ele>
        <time>2020-06-12T18:00:46.653Z</time>
      </trkpt>
      <trkpt lat="50.45122" lon="1.66494">
        <ele>59.735459</ele>
        <time>2020-06-12T18:00:48.640Z</time>
      </trkpt>
      <trkpt lat="50.45113" lon="1.66504">
        <ele>59.776717</ele>
        <time>2020-06-12T18:00:50.647Z</time>
      </trkpt>
      <trkpt lat="50.45104" lon="1.66513">
        <ele>59.818945</ele>
        <time>2020-06-12T18:00:52.643Z</time>
      </trkpt>
      <trkpt lat="50.45095" lon="1.66523">
        <ele>59.862235</ele>
        <time>2020-06-12T18:00:54.640Z</time>
      </trkpt>
      <trkpt lat="50.45087" lon="1.66532">
        <ele>60.034276</ele>
        <time>2020-06-12T18:00:56.649Z</time>
      </trkpt>
      <trkpt lat="50.45078" lon="1.66542">
        <ele>60.261261</ele>
        <time>2020-06-12T18:00:58.617Z</time>
      </trkpt>
      <trkpt lat="50.45068" lon="1.66553">
        <ele>60.503255</ele>
        <time>2020-06-12T18:01:00.631Z</time>
      </trkpt>
      <trkpt lat="50.45059" lon="1.66562">
        <ele>60.741166</ele>
        <time>2020-06-12T18:01:02.665Z</time>
      </trkpt>
      <trkpt lat="50.45049" lon="1.6657">
        <ele>60.970169</ele>
        <time>2020-06-12T18:01:04.643Z</time>
      </trkpt>
      <trkpt lat="50.4504" lon="1.66577">
        <ele>61.188033</ele>
        <time>2020-06-12T18:01:06.638Z</time>
      </trkpt>
      <trkpt lat="50.45031" lon="1.66583">
        <ele>61.387899</ele>
        <time>2020-06-12T18:01:08.677Z</time>
      </trkpt>
      <trkpt lat="50.45021" lon="1.66588">
        <ele>61.601659</ele>
        <time>2020-06-12T18:01:10.638Z</time>
      </trkpt>
      <trkpt lat="50.45011" lon="1.66593">
        <ele>61.816279</ele>
        <time>2020-06-12T18:01:12.639Z</time>
      </trkpt>
      <trkpt lat="50.45002" lon="1.66598">
        <ele>62.016051</ele>
        <time>2020-06-12T18:01:14.654Z</time>
      </trkpt>
      <trkpt lat="50.44994" lon="1.66602">
        <ele>62.208641</ele>
        <time>2020-06-12T18:01:16.637Z</time>
      </trkpt>
      <trkpt lat="50.44985" lon="1.66607">
        <ele>62.406841</ele>
        <time>2020-06-12T18:01:18.641Z</time>
      </trkpt>
      <trkpt lat="50.44972" lon="1.66612">
        <ele>62.688538</ele>
        <time>2020-06-12T18:01:21.642Z</time>
      </trkpt>
      <trkpt lat="50.44959" lon="1.66619">
        <ele>62.965271</ele>
        <time>2020-06-12T18:01:24.656Z</time>
      </trkpt>
      <trkpt lat="50.44947" lon="1.66625">
        <ele>63.234818</ele>
        <time>2020-06-12T18:01:27.637Z</time>
      </trkpt>
      <trkpt lat="50.44934" lon="1.66632">
        <ele>63.508118</ele>
        <time>2020-06-12T18:01:30.637Z</time>
      </trkpt>
      <trkpt lat="50.44925" lon="1.66637">
        <ele>63.655944</ele>
        <time>2020-06-12T18:01:32.654Z</time>
      </trkpt>
      <trkpt lat="50.44917" lon="1.66642">
        <ele>63.715307</ele>
        <time>2020-06-12T18:01:34.642Z</time>
      </trkpt>
      <trkpt lat="50.44908" lon="1.66647">
        <ele>63.77613</ele>
        <time>2020-06-12T18:01:36.643Z</time>
      </trkpt>
      <trkpt lat="50.44899" lon="1.66652">
        <ele>63.83475</ele>
        <time>2020-06-12T18:01:38.655Z</time>
      </trkpt>
      <trkpt lat="50.4489" lon="1.66657">
        <ele>63.897977</ele>
        <time>2020-06-12T18:01:40.646Z</time>
      </trkpt>
      <trkpt lat="50.4488" lon="1.66663">
        <ele>63.963904</ele>
        <time>2020-06-12T18:01:42.640Z</time>
      </trkpt>
      <trkpt lat="50.44872" lon="1.66668">
        <ele>64.022799</ele>
        <time>2020-06-12T18:01:44.648Z</time>
      </trkpt>
      <trkpt lat="50.44863" lon="1.66673">
        <ele>64.084534</ele>
        <time>2020-06-12T18:01:46.638Z</time>
      </trkpt>
      <trkpt lat="50.44854" lon="1.66678">
        <ele>64.145856</ele>
        <time>2020-06-12T18:01:48.647Z</time>
      </trkpt>
      <trkpt lat="50.44844" lon="1.66682">
        <ele>64.209</ele>
        <time>2020-06-12T18:01:50.673Z</time>
      </trkpt>
      <trkpt lat="50.44835" lon="1.66688">
        <ele>64.275725</ele>
        <time>2020-06-12T18:01:52.629Z</time>
      </trkpt>
      <trkpt lat="50.44824" lon="1.66693">
        <ele>64.346241</ele>
        <time>2020-06-12T18:01:54.637Z</time>
      </trkpt>
      <trkpt lat="50.44813" lon="1.66698">
        <ele>64.419578</ele>
        <time>2020-06-12T18:01:56.645Z</time>
      </trkpt>
      <trkpt lat="50.44803" lon="1.66704">
        <ele>64.488742</ele>
        <time>2020-06-12T18:01:58.640Z</time>
      </trkpt>
      <trkpt lat="50.44793" lon="1.66708">
        <ele>64.554589</ele>
        <time>2020-06-12T18:02:00.647Z</time>
      </trkpt>
      <trkpt lat="50.44783" lon="1.66712">
        <ele>64.625591</ele>
        <time>2020-06-12T18:02:02.639Z</time>
      </trkpt>
      <trkpt lat="50.44771" lon="1.66716">
        <ele>64.699818</ele>
        <time>2020-06-12T18:02:04.646Z</time>
      </trkpt>
      <trkpt lat="50.4476" lon="1.66719">
        <ele>64.771429</ele>
        <time>2020-06-12T18:02:06.641Z</time>
      </trkpt>
      <trkpt lat="50.4475" lon="1.6672">
        <ele>64.697548</ele>
        <time>2020-06-12T18:02:08.702Z</time>
      </trkpt>
      <trkpt lat="50.44739" lon="1.66721">
        <ele>64.570067</ele>
        <time>2020-06-12T18:02:10.641Z</time>
      </trkpt>
      <trkpt lat="50.44728" lon="1.66722">
        <ele>64.440302</ele>
        <time>2020-06-12T18:02:12.642Z</time>
      </trkpt>
      <trkpt lat="50.44717" lon="1.66722">
        <ele>64.310713</ele>
        <time>2020-06-12T18:02:14.646Z</time>
      </trkpt>
      <trkpt lat="50.44706" lon="1.66722">
        <ele>64.182295</ele>
        <time>2020-06-12T18:02:16.644Z</time>
      </trkpt>
      <trkpt lat="50.44696" lon="1.66722">
        <ele>64.059839</ele>
        <time>2020-06-12T18:02:18.641Z</time>
      </trkpt>
      <trkpt lat="50.44686" lon="1.66722">
        <ele>63.944517</ele>
        <time>2020-06-12T18:02:20.657Z</time>
      </trkpt>
      <trkpt lat="50.44676" lon="1.66721">
        <ele>63.823193</ele>
        <time>2020-06-12T18:02:22.641Z</time>
      </trkpt>
      <trkpt lat="50.44666" lon="1.6672">
        <ele>63.69828</ele>
        <time>2020-06-12T18:02:24.640Z</time>
      </trkpt>
      <trkpt lat="50.44655" lon="1.66721">
        <ele>63.574628</ele>
        <time>2020-06-12T18:02:26.649Z</time>
      </trkpt>
      <trkpt lat="50.44645" lon="1.66721">
        <ele>63.453326</ele>
        <time>2020-06-12T18:02:28.642Z</time>
      </trkpt>
      <trkpt lat="50.44635" lon="1.66721">
        <ele>63.33087</ele>
        <time>2020-06-12T18:02:30.642Z</time>
      </trkpt>
      <trkpt lat="50.44625" lon="1.66721">
        <ele>63.209606</ele>
        <time>2020-06-12T18:02:32.640Z</time>
      </trkpt>
      <trkpt lat="50.44615" lon="1.66721">
        <ele>63.091905</ele>
        <time>2020-06-12T18:02:34.637Z</time>
      </trkpt>
      <trkpt lat="50.44606" lon="1.66721">
        <ele>62.982506</ele>
        <time>2020-06-12T18:02:36.645Z</time>
      </trkpt>
      <trkpt lat="50.44593" lon="1.66722">
        <ele>62.827285</ele>
        <time>2020-06-12T18:02:39.645Z</time>
      </trkpt>
      <trkpt lat="50.4458" lon="1.66724">
        <ele>62.673653</ele>
        <time>2020-06-12T18:02:42.630Z</time>
      </trkpt>
      <trkpt lat="50.44566" lon="1.66725">
        <ele>62.768882</ele>
        <time>2020-06-12T18:02:45.649Z</time>
      </trkpt>
      <trkpt lat="50.44553" lon="1.66727">
        <ele>62.907636</ele>
        <time>2020-06-12T18:02:48.638Z</time>
      </trkpt>
      <trkpt lat="50.44544" lon="1.66727">
        <ele>63.004756</ele>
        <time>2020-06-12T18:02:50.649Z</time>
      </trkpt>
      <trkpt lat="50.44534" lon="1.66729">
        <ele>63.101561</ele>
        <time>2020-06-12T18:02:52.639Z</time>
      </trkpt>
      <trkpt lat="50.44525" lon="1.66732">
        <ele>63.196513</ele>
        <time>2020-06-12T18:02:54.642Z</time>
      </trkpt>
      <trkpt lat="50.44516" lon="1.66733">
        <ele>63.293148</ele>
        <time>2020-06-12T18:02:56.659Z</time>
      </trkpt>
      <trkpt lat="50.44506" lon="1.66735">
        <ele>63.391682</ele>
        <time>2020-06-12T18:02:58.645Z</time>
      </trkpt>
      <trkpt lat="50.44493" lon="1.66736">
        <ele>63.525943</ele>
        <time>2020-06-12T18:03:01.642Z</time>
      </trkpt>
      <trkpt lat="50.4448" lon="1.66738">
        <ele>63.664534</ele>
        <time>2020-06-12T18:03:04.642Z</time>
      </trkpt>
      <trkpt lat="50.4447" lon="1.66739">
        <ele>63.765052</ele>
        <time>2020-06-12T18:03:06.636Z</time>
      </trkpt>
      <trkpt lat="50.44461" lon="1.66741">
        <ele>63.862492</ele>
        <time>2020-06-12T18:03:08.650Z</time>
      </trkpt>
      <trkpt lat="50.44451" lon="1.66743">
        <ele>63.962362</ele>
        <time>2020-06-12T18:03:10.641Z</time>
      </trkpt>
      <trkpt lat="50.44441" lon="1.66745">
        <ele>64.065477</ele>
        <time>2020-06-12T18:03:12.645Z</time>
      </trkpt>
      <trkpt lat="50.44432" lon="1.66747">
        <ele>64.166061</ele>
        <time>2020-06-12T18:03:14.657Z</time>
      </trkpt>
      <trkpt lat="50.44422" lon="1.66748">
        <ele>64.265692</ele>
        <time>2020-06-12T18:03:16.635Z</time>
      </trkpt>
      <trkpt lat="50.44409" lon="1.6675">
        <ele>64.401306</ele>
        <time>2020-06-12T18:03:19.640Z</time>
      </trkpt>
      <trkpt lat="50.44397" lon="1.66753">
        <ele>64.473305</ele>
        <time>2020-06-12T18:03:22.646Z</time>
      </trkpt>
      <trkpt lat="50.44388" lon="1.66755">
        <ele>64.326567</ele>
        <time>2020-06-12T18:03:24.649Z</time>
      </trkpt>
      <trkpt lat="50.44378" lon="1.66756">
        <ele>64.175666</ele>
        <time>2020-06-12T18:03:26.643Z</time>
      </trkpt>
      <trkpt lat="50.44368" lon="1.66757">
        <ele>64.024538</ele>
        <time>2020-06-12T18:03:28.653Z</time>
      </trkpt>
      <trkpt lat="50.44358" lon="1.66758">
        <ele>63.865419</ele>
        <time>2020-06-12T18:03:30.660Z</time>
      </trkpt>
      <trkpt lat="50.44348" lon="1.6676">
        <ele>63.708863</ele>
        <time>2020-06-12T18:03:32.644Z</time>
      </trkpt>
      <trkpt lat="50.44338" lon="1.66763">
        <ele>63.550488</ele>
        <time>2020-06-12T18:03:34.668Z</time>
      </trkpt>
      <trkpt lat="50.44328" lon="1.66764">
        <ele>63.391059</ele>
        <time>2020-06-12T18:03:36.637Z</time>
      </trkpt>
      <trkpt lat="50.44317" lon="1.66766">
        <ele>63.219528</ele>
        <time>2020-06-12T18:03:38.646Z</time>
      </trkpt>
      <trkpt lat="50.44307" lon="1.66767">
        <ele>63.051408</ele>
        <time>2020-06-12T18:03:40.637Z</time>
      </trkpt>
      <trkpt lat="50.44296" lon="1.66768">
        <ele>62.881829</ele>
        <time>2020-06-12T18:03:42.640Z</time>
      </trkpt>
      <trkpt lat="50.44285" lon="1.66769">
        <ele>62.714709</ele>
        <time>2020-06-12T18:03:44.650Z</time>
      </trkpt>
      <trkpt lat="50.44275" lon="1.66772">
        <ele>62.545183</ele>
        <time>2020-06-12T18:03:46.649Z</time>
      </trkpt>
      <trkpt lat="50.44263" lon="1.66774">
        <ele>62.362257</ele>
        <time>2020-06-12T18:03:48.640Z</time>
      </trkpt>
      <trkpt lat="50.44252" lon="1.66775">
        <ele>62.182829</ele>
        <time>2020-06-12T18:03:50.651Z</time>
      </trkpt>
      <trkpt lat="50.4424" lon="1.66775">
        <ele>62.000821</ele>
        <time>2020-06-12T18:03:52.641Z</time>
      </trkpt>
      <trkpt lat="50.44227" lon="1.6677">
        <ele>61.800117</ele>
        <time>2020-06-12T18:03:54.643Z</time>
      </trkpt>
      <trkpt lat="50.44215" lon="1.66763">
        <ele>61.590768</ele>
        <time>2020-06-12T18:03:56.685Z</time>
      </trkpt>
      <trkpt lat="50.44204" lon="1.66754">
        <ele>61.371626</ele>
        <time>2020-06-12T18:03:58.638Z</time>
      </trkpt>
      <trkpt lat="50.44192" lon="1.66742">
        <ele>61.141491</ele>
        <time>2020-06-12T18:04:00.652Z</time>
      </trkpt>
      <trkpt lat="50.4418" lon="1.66729">
        <ele>60.894015</ele>
        <time>2020-06-12T18:04:02.665Z</time>
      </trkpt>
      <trkpt lat="50.44169" lon="1.66714">
        <ele>60.649073</ele>
        <time>2020-06-12T18:04:04.642Z</time>
      </trkpt>
      <trkpt lat="50.44158" lon="1.66699">
        <ele>60.395499</ele>
        <time>2020-06-12T18:04:06.640Z</time>
      </trkpt>
      <trkpt lat="50.44147" lon="1.66684">
        <ele>60.154656</ele>
        <time>2020-06-12T18:04:08.654Z</time>
      </trkpt>
      <trkpt lat="50.44136" lon="1.66669">
        <ele>59.910637</ele>
        <time>2020-06-12T18:04:10.642Z</time>
      </trkpt>
      <trkpt lat="50.44126" lon="1.66654">
        <ele>59.674462</ele>
        <time>2020-06-12T18:04:12.639Z</time>
      </trkpt>
      <trkpt lat="50.44115" lon="1.6664">
        <ele>59.436169</ele>
        <time>2020-06-12T18:04:14.651Z</time>
      </trkpt>
      <trkpt lat="50.44105" lon="1.66624">
        <ele>59.192112</ele>
        <time>2020-06-12T18:04:16.685Z</time>
      </trkpt>
      <trkpt lat="50.44094" lon="1.66609">
        <ele>58.950026</ele>
        <time>2020-06-12T18:04:18.639Z</time>
      </trkpt>
      <trkpt lat="50.44084" lon="1.66593">
        <ele>58.704409</ele>
        <time>2020-06-12T18:04:20.656Z</time>
      </trkpt>
      <trkpt lat="50.44074" lon="1.66576">
        <ele>58.616988</ele>
        <time>2020-06-12T18:04:22.643Z</time>
      </trkpt>
      <trkpt lat="50.44065" lon="1.66559">
        <ele>58.581043</ele>
        <time>2020-06-12T18:04:24.645Z</time>
      </trkpt>
      <trkpt lat="50.44056" lon="1.66543">
        <ele>58.54672</ele>
        <time>2020-06-12T18:04:26.652Z</time>
      </trkpt>
      <trkpt lat="50.44047" lon="1.66527">
        <ele>58.513008</ele>
        <time>2020-06-12T18:04:28.634Z</time>
      </trkpt>
      <trkpt lat="50.44038" lon="1.66511">
        <ele>58.478638</ele>
        <time>2020-06-12T18:04:30.626Z</time>
      </trkpt>
      <trkpt lat="50.44029" lon="1.66497">
        <ele>58.446961</ele>
        <time>2020-06-12T18:04:32.635Z</time>
      </trkpt>
      <trkpt lat="50.44019" lon="1.66486">
        <ele>58.417274</ele>
        <time>2020-06-12T18:04:34.639Z</time>
      </trkpt>
      <trkpt lat="50.44009" lon="1.66475">
        <ele>58.386459</ele>
        <time>2020-06-12T18:04:36.681Z</time>
      </trkpt>
      <trkpt lat="50.43999" lon="1.66462">
        <ele>58.354781</ele>
        <time>2020-06-12T18:04:38.650Z</time>
      </trkpt>
      <trkpt lat="50.4399" lon="1.66447">
        <ele>58.321416</ele>
        <time>2020-06-12T18:04:40.640Z</time>
      </trkpt>
      <trkpt lat="50.43983" lon="1.66432">
        <ele>58.290436</ele>
        <time>2020-06-12T18:04:42.653Z</time>
      </trkpt>
      <trkpt lat="50.43976" lon="1.66416">
        <ele>58.260908</ele>
        <time>2020-06-12T18:04:44.681Z</time>
      </trkpt>
      <trkpt lat="50.43969" lon="1.66403">
        <ele>58.233375</ele>
        <time>2020-06-12T18:04:46.655Z</time>
      </trkpt>
      <trkpt lat="50.43964" lon="1.66391">
        <ele>58.210745</ele>
        <time>2020-06-12T18:04:48.636Z</time>
      </trkpt>
      <trkpt lat="50.43957" lon="1.66373">
        <ele>58.33002</ele>
        <time>2020-06-12T18:04:51.646Z</time>
      </trkpt>
      <trkpt lat="50.4395" lon="1.66363">
        <ele>58.510955</ele>
        <time>2020-06-12T18:04:53.656Z</time>
      </trkpt>
      <trkpt lat="50.43944" lon="1.66353">
        <ele>58.688909</ele>
        <time>2020-06-12T18:04:55.649Z</time>
      </trkpt>
      <trkpt lat="50.43937" lon="1.66343">
        <ele>58.866864</ele>
        <time>2020-06-12T18:04:57.653Z</time>
      </trkpt>
      <trkpt lat="50.43927" lon="1.6633">
        <ele>59.116984</ele>
        <time>2020-06-12T18:05:00.650Z</time>
      </trkpt>
      <trkpt lat="50.43918" lon="1.66318">
        <ele>59.356989</ele>
        <time>2020-06-12T18:05:03.675Z</time>
      </trkpt>
      <trkpt lat="50.43909" lon="1.66307">
        <ele>59.579347</ele>
        <time>2020-06-12T18:05:06.651Z</time>
      </trkpt>
      <trkpt lat="50.439" lon="1.66297">
        <ele>59.780621</ele>
        <time>2020-06-12T18:05:09.661Z</time>
      </trkpt>
      <trkpt lat="50.43892" lon="1.66289">
        <ele>59.981051</ele>
        <time>2020-06-12T18:05:12.639Z</time>
      </trkpt>
      <trkpt lat="50.43883" lon="1.66279">
        <ele>60.193416</ele>
        <time>2020-06-12T18:05:15.655Z</time>
      </trkpt>
      <trkpt lat="50.43874" lon="1.66269">
        <ele>60.406782</ele>
        <time>2020-06-12T18:05:18.641Z</time>
      </trkpt>
      <trkpt lat="50.43865" lon="1.6626">
        <ele>60.618002</ele>
        <time>2020-06-12T18:05:21.650Z</time>
      </trkpt>
      <trkpt lat="50.43857" lon="1.6625">
        <ele>60.81889</ele>
        <time>2020-06-12T18:05:24.661Z</time>
      </trkpt>
      <trkpt lat="50.43848" lon="1.66238">
        <ele>61.050575</ele>
        <time>2020-06-12T18:05:27.646Z</time>
      </trkpt>
      <trkpt lat="50.4384" lon="1.66229">
        <ele>61.226928</ele>
        <time>2020-06-12T18:05:29.648Z</time>
      </trkpt>
      <trkpt lat="50.43833" lon="1.6622">
        <ele>61.404053</ele>
        <time>2020-06-12T18:05:31.646Z</time>
      </trkpt>
      <trkpt lat="50.43826" lon="1.66211">
        <ele>61.582729</ele>
        <time>2020-06-12T18:05:33.641Z</time>
      </trkpt>
      <trkpt lat="50.43815" lon="1.66199">
        <ele>61.681849</ele>
        <time>2020-06-12T18:05:36.653Z</time>
      </trkpt>
      <trkpt lat="50.43804" lon="1.66186">
        <ele>61.646418</ele>
        <time>2020-06-12T18:05:39.640Z</time>
      </trkpt>
      <trkpt lat="50.43796" lon="1.66178">
        <ele>61.620917</ele>
        <time>2020-06-12T18:05:41.698Z</time>
      </trkpt>
      <trkpt lat="50.43788" lon="1.6617">
        <ele>61.593988</ele>
        <time>2020-06-12T18:05:43.638Z</time>
      </trkpt>
      <trkpt lat="50.43779" lon="1.66161">
        <ele>61.567188</ele>
        <time>2020-06-12T18:05:45.647Z</time>
      </trkpt>
      <trkpt lat="50.43769" lon="1.66152">
        <ele>61.537865</ele>
        <time>2020-06-12T18:05:47.657Z</time>
      </trkpt>
      <trkpt lat="50.43758" lon="1.66141">
        <ele>61.50318</ele>
        <time>2020-06-12T18:05:49.621Z</time>
      </trkpt>
      <trkpt lat="50.43747" lon="1.66129">
        <ele>61.467394</ele>
        <time>2020-06-12T18:05:51.644Z</time>
      </trkpt>
      <trkpt lat="50.43737" lon="1.66115">
        <ele>61.431313</ele>
        <time>2020-06-12T18:05:53.654Z</time>
      </trkpt>
      <trkpt lat="50.43728" lon="1.66099">
        <ele>61.395787</ele>
        <time>2020-06-12T18:05:55.645Z</time>
      </trkpt>
      <trkpt lat="50.43722" lon="1.66082">
        <ele>61.362113</ele>
        <time>2020-06-12T18:05:57.678Z</time>
      </trkpt>
      <trkpt lat="50.43717" lon="1.66063">
        <ele>61.328505</ele>
        <time>2020-06-12T18:05:59.659Z</time>
      </trkpt>
      <trkpt lat="50.43713" lon="1.66043">
        <ele>61.294477</ele>
        <time>2020-06-12T18:06:01.660Z</time>
      </trkpt>
      <trkpt lat="50.43709" lon="1.66024">
        <ele>61.25989</ele>
        <time>2020-06-12T18:06:03.644Z</time>
      </trkpt>
      <trkpt lat="50.43705" lon="1.66004">
        <ele>61.230589</ele>
        <time>2020-06-12T18:06:05.656Z</time>
      </trkpt>
      <trkpt lat="50.43702" lon="1.65986">
        <ele>61.274229</ele>
        <time>2020-06-12T18:06:07.649Z</time>
      </trkpt>
      <trkpt lat="50.43698" lon="1.65968">
        <ele>61.319668</ele>
        <time>2020-06-12T18:06:09.652Z</time>
      </trkpt>
      <trkpt lat="50.43695" lon="1.65948">
        <ele>61.3686</ele>
        <time>2020-06-12T18:06:11.651Z</time>
      </trkpt>
      <trkpt lat="50.43691" lon="1.65929">
        <ele>61.415839</ele>
        <time>2020-06-12T18:06:13.630Z</time>
      </trkpt>
      <trkpt lat="50.43687" lon="1.65909">
        <ele>61.465451</ele>
        <time>2020-06-12T18:06:15.643Z</time>
      </trkpt>
      <trkpt lat="50.43684" lon="1.6589">
        <ele>61.512736</ele>
        <time>2020-06-12T18:06:17.645Z</time>
      </trkpt>
      <trkpt lat="50.4368" lon="1.6587">
        <ele>61.56022</ele>
        <time>2020-06-12T18:06:19.681Z</time>
      </trkpt>
      <trkpt lat="50.43677" lon="1.65853">
        <ele>61.603331</ele>
        <time>2020-06-12T18:06:21.648Z</time>
      </trkpt>
      <trkpt lat="50.43675" lon="1.65833">
        <ele>61.651791</ele>
        <time>2020-06-12T18:06:23.646Z</time>
      </trkpt>
      <trkpt lat="50.43672" lon="1.6581">
        <ele>61.705806</ele>
        <time>2020-06-12T18:06:25.651Z</time>
      </trkpt>
      <trkpt lat="50.43669" lon="1.65788">
        <ele>61.76067</ele>
        <time>2020-06-12T18:06:27.640Z</time>
      </trkpt>
      <trkpt lat="50.43667" lon="1.65764">
        <ele>61.81729</ele>
        <time>2020-06-12T18:06:29.679Z</time>
      </trkpt>
      <trkpt lat="50.43666" lon="1.65741">
        <ele>61.872198</ele>
        <time>2020-06-12T18:06:31.675Z</time>
      </trkpt>
      <trkpt lat="50.43667" lon="1.65717">
        <ele>61.779483</ele>
        <time>2020-06-12T18:06:33.646Z</time>
      </trkpt>
      <trkpt lat="50.43668" lon="1.65693">
        <ele>61.586332</ele>
        <time>2020-06-12T18:06:35.659Z</time>
      </trkpt>
      <trkpt lat="50.43669" lon="1.65668">
        <ele>61.38944</ele>
        <time>2020-06-12T18:06:37.636Z</time>
      </trkpt>
      <trkpt lat="50.4367" lon="1.65644">
        <ele>61.187316</ele>
        <time>2020-06-12T18:06:39.672Z</time>
      </trkpt>
      <trkpt lat="50.43672" lon="1.6562">
        <ele>60.992031</ele>
        <time>2020-06-12T18:06:41.647Z</time>
      </trkpt>
      <trkpt lat="50.43674" lon="1.65598">
        <ele>60.815772</ele>
        <time>2020-06-12T18:06:43.653Z</time>
      </trkpt>
      <trkpt lat="50.43677" lon="1.65578">
        <ele>60.64706</ele>
        <time>2020-06-12T18:06:45.650Z</time>
      </trkpt>
      <trkpt lat="50.43679" lon="1.65557">
        <ele>60.481392</ele>
        <time>2020-06-12T18:06:47.646Z</time>
      </trkpt>
      <trkpt lat="50.43681" lon="1.65538">
        <ele>60.323487</ele>
        <time>2020-06-12T18:06:49.660Z</time>
      </trkpt>
      <trkpt lat="50.43683" lon="1.6552">
        <ele>60.17036</ele>
        <time>2020-06-12T18:06:51.650Z</time>
      </trkpt>
      <trkpt lat="50.43686" lon="1.65501">
        <ele>60.013573</ele>
        <time>2020-06-12T18:06:53.638Z</time>
      </trkpt>
      <trkpt lat="50.43689" lon="1.65482">
        <ele>59.860299</ele>
        <time>2020-06-12T18:06:55.656Z</time>
      </trkpt>
      <trkpt lat="50.43692" lon="1.65464">
        <ele>59.70813</ele>
        <time>2020-06-12T18:06:57.654Z</time>
      </trkpt>
      <trkpt lat="50.43695" lon="1.65446">
        <ele>59.704865</ele>
        <time>2020-06-12T18:06:59.647Z</time>
      </trkpt>
      <trkpt lat="50.43699" lon="1.65429">
        <ele>59.976638</ele>
        <time>2020-06-12T18:07:01.634Z</time>
      </trkpt>
      <trkpt lat="50.43703" lon="1.65412">
        <ele>60.24542</ele>
        <time>2020-06-12T18:07:03.655Z</time>
      </trkpt>
      <trkpt lat="50.43707" lon="1.65395">
        <ele>60.510882</ele>
        <time>2020-06-12T18:07:05.660Z</time>
      </trkpt>
      <trkpt lat="50.43711" lon="1.65377">
        <ele>60.782656</ele>
        <time>2020-06-12T18:07:07.640Z</time>
      </trkpt>
      <trkpt lat="50.43714" lon="1.6536">
        <ele>61.046736</ele>
        <time>2020-06-12T18:07:09.635Z</time>
      </trkpt>
      <trkpt lat="50.43718" lon="1.65343">
        <ele>61.310817</ele>
        <time>2020-06-12T18:07:11.662Z</time>
      </trkpt>
      <trkpt lat="50.43723" lon="1.65327">
        <ele>61.568659</ele>
        <time>2020-06-12T18:07:13.672Z</time>
      </trkpt>
      <trkpt lat="50.43727" lon="1.65311">
        <ele>61.832812</ele>
        <time>2020-06-12T18:07:15.638Z</time>
      </trkpt>
      <trkpt lat="50.43732" lon="1.65295">
        <ele>62.090991</ele>
        <time>2020-06-12T18:07:17.650Z</time>
      </trkpt>
      <trkpt lat="50.43735" lon="1.6528">
        <ele>62.320611</ele>
        <time>2020-06-12T18:07:19.641Z</time>
      </trkpt>
      <trkpt lat="50.43739" lon="1.65265">
        <ele>62.557277</ele>
        <time>2020-06-12T18:07:21.643Z</time>
      </trkpt>
      <trkpt lat="50.43743" lon="1.65251">
        <ele>62.786634</ele>
        <time>2020-06-12T18:07:23.651Z</time>
      </trkpt>
      <trkpt lat="50.43749" lon="1.65239">
        <ele>63.011155</ele>
        <time>2020-06-12T18:07:25.642Z</time>
      </trkpt>
      <trkpt lat="50.43755" lon="1.65227">
        <ele>63.223611</ele>
        <time>2020-06-12T18:07:27.645Z</time>
      </trkpt>
      <trkpt lat="50.4376" lon="1.65212">
        <ele>63.465853</ele>
        <time>2020-06-12T18:07:29.650Z</time>
      </trkpt>
      <trkpt lat="50.43764" lon="1.65197">
        <ele>63.72038</ele>
        <time>2020-06-12T18:07:31.636Z</time>
      </trkpt>
      <trkpt lat="50.4377" lon="1.65181">
        <ele>63.690903</ele>
        <time>2020-06-12T18:07:33.644Z</time>
      </trkpt>
      <trkpt lat="50.43776" lon="1.65166">
        <ele>63.615609</ele>
        <time>2020-06-12T18:07:35.649Z</time>
      </trkpt>
      <trkpt lat="50.43782" lon="1.65151">
        <ele>63.540249</ele>
        <time>2020-06-12T18:07:37.640Z</time>
      </trkpt>
      <trkpt lat="50.43789" lon="1.65137">
        <ele>63.463107</ele>
        <time>2020-06-12T18:07:39.633Z</time>
      </trkpt>
      <trkpt lat="50.43795" lon="1.65125">
        <ele>63.399308</ele>
        <time>2020-06-12T18:07:41.657Z</time>
      </trkpt>
      <trkpt lat="50.43799" lon="1.65107">
        <ele>63.317709</ele>
        <time>2020-06-12T18:07:45.643Z</time>
      </trkpt>
      <trkpt lat="50.43802" lon="1.65086">
        <ele>63.223369</ele>
        <time>2020-06-12T18:07:48.651Z</time>
      </trkpt>
      <trkpt lat="50.43807" lon="1.65066">
        <ele>63.133721</ele>
        <time>2020-06-12T18:07:50.691Z</time>
      </trkpt>
      <trkpt lat="50.43813" lon="1.65044">
        <ele>63.028901</ele>
        <time>2020-06-12T18:07:52.653Z</time>
      </trkpt>
      <trkpt lat="50.43819" lon="1.65019">
        <ele>62.913548</ele>
        <time>2020-06-12T18:07:54.622Z</time>
      </trkpt>
      <trkpt lat="50.43823" lon="1.65006">
        <ele>62.85258</ele>
        <time>2020-06-12T18:07:55.645Z</time>
      </trkpt>
      <trkpt lat="50.43829" lon="1.6498">
        <ele>62.732945</ele>
        <time>2020-06-12T18:07:57.669Z</time>
      </trkpt>
      <trkpt lat="50.43832" lon="1.64966">
        <ele>62.672392</ele>
        <time>2020-06-12T18:07:58.640Z</time>
      </trkpt>
      <trkpt lat="50.43837" lon="1.64939">
        <ele>62.551342</ele>
        <time>2020-06-12T18:08:00.627Z</time>
      </trkpt>
      <trkpt lat="50.43839" lon="1.64925">
        <ele>62.109497</ele>
        <time>2020-06-12T18:08:01.678Z</time>
      </trkpt>
      <trkpt lat="50.43841" lon="1.64911">
        <ele>61.637517</ele>
        <time>2020-06-12T18:08:02.676Z</time>
      </trkpt>
      <trkpt lat="50.43842" lon="1.64896">
        <ele>61.160663</ele>
        <time>2020-06-12T18:08:03.647Z</time>
      </trkpt>
      <trkpt lat="50.43844" lon="1.64868">
        <ele>60.247631</ele>
        <time>2020-06-12T18:08:05.650Z</time>
      </trkpt>
      <trkpt lat="50.43844" lon="1.64842">
        <ele>59.390205</ele>
        <time>2020-06-12T18:08:07.638Z</time>
      </trkpt>
      <trkpt lat="50.43845" lon="1.64821">
        <ele>58.715481</ele>
        <time>2020-06-12T18:08:09.630Z</time>
      </trkpt>
      <trkpt lat="50.43847" lon="1.64801">
        <ele>58.067789</ele>
        <time>2020-06-12T18:08:12.626Z</time>
      </trkpt>
      <trkpt lat="50.43846" lon="1.64787">
        <ele>57.59482</ele>
        <time>2020-06-12T18:08:14.697Z</time>
      </trkpt>
      <trkpt lat="50.43845" lon="1.64769">
        <ele>57.021183</ele>
        <time>2020-06-12T18:08:16.642Z</time>
      </trkpt>
      <trkpt lat="50.43843" lon="1.64751">
        <ele>56.419708</ele>
        <time>2020-06-12T18:08:18.626Z</time>
      </trkpt>
      <trkpt lat="50.43838" lon="1.64731">
        <ele>55.749789</ele>
        <time>2020-06-12T18:08:20.678Z</time>
      </trkpt>
      <trkpt lat="50.43832" lon="1.64713">
        <ele>55.088603</ele>
        <time>2020-06-12T18:08:22.643Z</time>
      </trkpt>
      <trkpt lat="50.43828" lon="1.64697">
        <ele>54.508937</ele>
        <time>2020-06-12T18:08:24.646Z</time>
      </trkpt>
      <trkpt lat="50.43826" lon="1.64683">
        <ele>54.04885</ele>
        <time>2020-06-12T18:08:26.658Z</time>
      </trkpt>
      <trkpt lat="50.43826" lon="1.64668">
        <ele>53.57001</ele>
        <time>2020-06-12T18:08:30.624Z</time>
      </trkpt>
      <trkpt lat="50.43825" lon="1.6465">
        <ele>53.145023</ele>
        <time>2020-06-12T18:08:35.664Z</time>
      </trkpt>
      <trkpt lat="50.43828" lon="1.64636">
        <ele>52.833886</ele>
        <time>2020-06-12T18:08:39.633Z</time>
      </trkpt>
      <trkpt lat="50.43827" lon="1.64619">
        <ele>52.467636</ele>
        <time>2020-06-12T18:08:43.645Z</time>
      </trkpt>
      <trkpt lat="50.43824" lon="1.64605">
        <ele>52.168882</ele>
        <time>2020-06-12T18:08:46.646Z</time>
      </trkpt>
      <trkpt lat="50.43824" lon="1.64588">
        <ele>51.827878</ele>
        <time>2020-06-12T18:08:49.654Z</time>
      </trkpt>
      <trkpt lat="50.43822" lon="1.64572">
        <ele>51.488973</ele>
        <time>2020-06-12T18:08:53.649Z</time>
      </trkpt>
      <trkpt lat="50.43821" lon="1.64557">
        <ele>51.159516</ele>
        <time>2020-06-12T18:08:56.651Z</time>
      </trkpt>
      <trkpt lat="50.4382" lon="1.64541">
        <ele>50.836627</ele>
        <time>2020-06-12T18:08:59.662Z</time>
      </trkpt>
      <trkpt lat="50.43818" lon="1.64524">
        <ele>50.467053</ele>
        <time>2020-06-12T18:09:02.660Z</time>
      </trkpt>
      <trkpt lat="50.43817" lon="1.64506">
        <ele>50.101928</ele>
        <time>2020-06-12T18:09:05.684Z</time>
      </trkpt>
      <trkpt lat="50.43813" lon="1.6449">
        <ele>49.728093</ele>
        <time>2020-06-12T18:09:08.686Z</time>
      </trkpt>
      <trkpt lat="50.4381" lon="1.64475">
        <ele>49.407856</ele>
        <time>2020-06-12T18:09:11.655Z</time>
      </trkpt>
      <trkpt lat="50.43811" lon="1.64457">
        <ele>49.030085</ele>
        <time>2020-06-12T18:09:15.645Z</time>
      </trkpt>
      <trkpt lat="50.43813" lon="1.6444">
        <ele>48.669615</ele>
        <time>2020-06-12T18:09:18.633Z</time>
      </trkpt>
      <trkpt lat="50.43815" lon="1.64422">
        <ele>48.292585</ele>
        <time>2020-06-12T18:09:21.632Z</time>
      </trkpt>
      <trkpt lat="50.43818" lon="1.64404">
        <ele>47.910806</ele>
        <time>2020-06-12T18:09:25.642Z</time>
      </trkpt>
      <trkpt lat="50.4382" lon="1.6439">
        <ele>47.606377</ele>
        <time>2020-06-12T18:09:29.655Z</time>
      </trkpt>
      <trkpt lat="50.43821" lon="1.64374">
        <ele>47.541182</ele>
        <time>2020-06-12T18:09:33.646Z</time>
      </trkpt>
      <trkpt lat="50.43823" lon="1.64357">
        <ele>47.568899</ele>
        <time>2020-06-12T18:09:37.634Z</time>
      </trkpt>
      <trkpt lat="50.43825" lon="1.64341">
        <ele>47.597413</ele>
        <time>2020-06-12T18:09:41.655Z</time>
      </trkpt>
      <trkpt lat="50.43827" lon="1.64327">
        <ele>47.620951</ele>
        <time>2020-06-12T18:09:44.647Z</time>
      </trkpt>
      <trkpt lat="50.43828" lon="1.64312">
        <ele>47.644543</ele>
        <time>2020-06-12T18:09:47.664Z</time>
      </trkpt>
      <trkpt lat="50.43832" lon="1.64296">
        <ele>47.673687</ele>
        <time>2020-06-12T18:09:51.637Z</time>
      </trkpt>
      <trkpt lat="50.43834" lon="1.64281">
        <ele>47.698285</ele>
        <time>2020-06-12T18:09:55.657Z</time>
      </trkpt>
      <trkpt lat="50.43836" lon="1.64267">
        <ele>47.721454</ele>
        <time>2020-06-12T18:10:00.653Z</time>
      </trkpt>
      <trkpt lat="50.43838" lon="1.64253">
        <ele>47.746431</ele>
        <time>2020-06-12T18:10:04.643Z</time>
      </trkpt>
      <trkpt lat="50.4384" lon="1.64237">
        <ele>47.772689</ele>
        <time>2020-06-12T18:10:08.642Z</time>
      </trkpt>
      <trkpt lat="50.43841" lon="1.64221">
        <ele>47.799522</ele>
        <time>2020-06-12T18:10:12.631Z</time>
      </trkpt>
      <trkpt lat="50.43843" lon="1.64203">
        <ele>47.829434</ele>
        <time>2020-06-12T18:10:16.645Z</time>
      </trkpt>
      <trkpt lat="50.43846" lon="1.64186">
        <ele>47.857405</ele>
        <time>2020-06-12T18:10:20.653Z</time>
      </trkpt>
      <trkpt lat="50.4385" lon="1.64171">
        <ele>47.88514</ele>
        <time>2020-06-12T18:10:24.665Z</time>
      </trkpt>
      <trkpt lat="50.43852" lon="1.64157">
        <ele>47.90865</ele>
        <time>2020-06-12T18:10:28.648Z</time>
      </trkpt>
      <trkpt lat="50.43855" lon="1.64143">
        <ele>47.933319</ele>
        <time>2020-06-12T18:10:32.646Z</time>
      </trkpt>
      <trkpt lat="50.43858" lon="1.64129">
        <ele>47.956889</ele>
        <time>2020-06-12T18:10:36.643Z</time>
      </trkpt>
      <trkpt lat="50.43862" lon="1.64114">
        <ele>47.983714</ele>
        <time>2020-06-12T18:10:41.659Z</time>
      </trkpt>
      <trkpt lat="50.43868" lon="1.64099">
        <ele>48.118734</ele>
        <time>2020-06-12T18:10:46.644Z</time>
      </trkpt>
      <trkpt lat="50.43873" lon="1.64086">
        <ele>48.24944</ele>
        <time>2020-06-12T18:10:50.687Z</time>
      </trkpt>
      <trkpt lat="50.4388" lon="1.64075">
        <ele>48.380516</ele>
        <time>2020-06-12T18:10:54.649Z</time>
      </trkpt>
      <trkpt lat="50.43888" lon="1.64063">
        <ele>48.522965</ele>
        <time>2020-06-12T18:10:59.655Z</time>
      </trkpt>
      <trkpt lat="50.43898" lon="1.64055">
        <ele>48.674386</ele>
        <time>2020-06-12T18:11:04.636Z</time>
      </trkpt>
      <trkpt lat="50.43907" lon="1.64047">
        <ele>48.805623</ele>
        <time>2020-06-12T18:11:08.654Z</time>
      </trkpt>
      <trkpt lat="50.43915" lon="1.64039">
        <ele>48.931527</ele>
        <time>2020-06-12T18:11:12.673Z</time>
      </trkpt>
      <trkpt lat="50.43922" lon="1.6403">
        <ele>49.049456</ele>
        <time>2020-06-12T18:11:17.646Z</time>
      </trkpt>
      <trkpt lat="50.43925" lon="1.64015">
        <ele>49.184347</ele>
        <time>2020-06-12T18:11:22.646Z</time>
      </trkpt>
      <trkpt lat="50.43922" lon="1.64">
        <ele>49.310838</ele>
        <time>2020-06-12T18:11:26.661Z</time>
      </trkpt>
      <trkpt lat="50.43916" lon="1.63988">
        <ele>49.441467</ele>
        <time>2020-06-12T18:11:31.645Z</time>
      </trkpt>
      <trkpt lat="50.43911" lon="1.63974">
        <ele>49.577966</ele>
        <time>2020-06-12T18:11:36.634Z</time>
      </trkpt>
      <trkpt lat="50.43907" lon="1.63959">
        <ele>49.715601</ele>
        <time>2020-06-12T18:11:42.644Z</time>
      </trkpt>
      <trkpt lat="50.43908" lon="1.63943">
        <ele>49.846756</ele>
        <time>2020-06-12T18:11:46.636Z</time>
      </trkpt>
      <trkpt lat="50.43911" lon="1.63926">
        <ele>49.99679</ele>
        <time>2020-06-12T18:11:50.679Z</time>
      </trkpt>
      <trkpt lat="50.43916" lon="1.63909">
        <ele>50.144794</ele>
        <time>2020-06-12T18:11:55.642Z</time>
      </trkpt>
      <trkpt lat="50.43919" lon="1.63895">
        <ele>50.274955</ele>
        <time>2020-06-12T18:11:59.661Z</time>
      </trkpt>
      <trkpt lat="50.43922" lon="1.63881">
        <ele>50.313522</ele>
        <time>2020-06-12T18:12:03.652Z</time>
      </trkpt>
      <trkpt lat="50.43924" lon="1.63867">
        <ele>50.214173</ele>
        <time>2020-06-12T18:12:07.646Z</time>
      </trkpt>
      <trkpt lat="50.43927" lon="1.63853">
        <ele>50.113793</ele>
        <time>2020-06-12T18:12:11.661Z</time>
      </trkpt>
      <trkpt lat="50.43929" lon="1.63839">
        <ele>50.01742</ele>
        <time>2020-06-12T18:12:15.643Z</time>
      </trkpt>
      <trkpt lat="50.43932" lon="1.63823">
        <ele>49.904018</ele>
        <time>2020-06-12T18:12:20.667Z</time>
      </trkpt>
      <trkpt lat="50.43934" lon="1.63807">
        <ele>49.793573</ele>
        <time>2020-06-12T18:12:25.653Z</time>
      </trkpt>
      <trkpt lat="50.43936" lon="1.63793">
        <ele>49.694417</ele>
        <time>2020-06-12T18:12:29.656Z</time>
      </trkpt>
      <trkpt lat="50.43938" lon="1.63779">
        <ele>49.597917</ele>
        <time>2020-06-12T18:12:33.645Z</time>
      </trkpt>
      <trkpt lat="50.4394" lon="1.63762">
        <ele>49.479059</ele>
        <time>2020-06-12T18:12:38.650Z</time>
      </trkpt>
      <trkpt lat="50.43941" lon="1.63746">
        <ele>49.372229</ele>
        <time>2020-06-12T18:12:42.638Z</time>
      </trkpt>
      <trkpt lat="50.4394" lon="1.63731">
        <ele>49.270054</ele>
        <time>2020-06-12T18:12:46.641Z</time>
      </trkpt>
      <trkpt lat="50.43939" lon="1.63715">
        <ele>49.159221</ele>
        <time>2020-06-12T18:12:50.658Z</time>
      </trkpt>
      <trkpt lat="50.43938" lon="1.63698">
        <ele>49.04502</ele>
        <time>2020-06-12T18:12:54.648Z</time>
      </trkpt>
      <trkpt lat="50.43937" lon="1.63682">
        <ele>48.933373</ele>
        <time>2020-06-12T18:12:58.653Z</time>
      </trkpt>
      <trkpt lat="50.43935" lon="1.63665">
        <ele>48.820273</ele>
        <time>2020-06-12T18:13:02.653Z</time>
      </trkpt>
      <trkpt lat="50.43935" lon="1.6365">
        <ele>48.712977</ele>
        <time>2020-06-12T18:13:06.643Z</time>
      </trkpt>
      <trkpt lat="50.43936" lon="1.63632">
        <ele>48.594288</ele>
        <time>2020-06-12T18:13:09.645Z</time>
      </trkpt>
      <trkpt lat="50.43941" lon="1.63614">
        <ele>48.461613</ele>
        <time>2020-06-12T18:13:12.664Z</time>
      </trkpt>
      <trkpt lat="50.43947" lon="1.63597">
        <ele>48.308782</ele>
        <time>2020-06-12T18:13:15.640Z</time>
      </trkpt>
      <trkpt lat="50.43954" lon="1.63578">
        <ele>48.140243</ele>
        <time>2020-06-12T18:13:18.638Z</time>
      </trkpt>
      <trkpt lat="50.43958" lon="1.63565">
        <ele>48.019741</ele>
        <time>2020-06-12T18:13:20.661Z</time>
      </trkpt>
      <trkpt lat="50.43962" lon="1.63551">
        <ele>47.897714</ele>
        <time>2020-06-12T18:13:22.650Z</time>
      </trkpt>
      <trkpt lat="50.43966" lon="1.63536">
        <ele>47.772026</ele>
        <time>2020-06-12T18:13:24.650Z</time>
      </trkpt>
      <trkpt lat="50.43971" lon="1.63521">
        <ele>47.641151</ele>
        <time>2020-06-12T18:13:26.645Z</time>
      </trkpt>
      <trkpt lat="50.43976" lon="1.63507">
        <ele>47.507325</ele>
        <time>2020-06-12T18:13:28.657Z</time>
      </trkpt>
      <trkpt lat="50.43982" lon="1.63492">
        <ele>47.372938</ele>
        <time>2020-06-12T18:13:30.654Z</time>
      </trkpt>
      <trkpt lat="50.43987" lon="1.63477">
        <ele>47.23773</ele>
        <time>2020-06-12T18:13:32.643Z</time>
      </trkpt>
      <trkpt lat="50.43992" lon="1.63462">
        <ele>47.100532</ele>
        <time>2020-06-12T18:13:34.653Z</time>
      </trkpt>
      <trkpt lat="50.43998" lon="1.63446">
        <ele>46.95674</ele>
        <time>2020-06-12T18:13:36.657Z</time>
      </trkpt>
      <trkpt lat="50.44004" lon="1.6343">
        <ele>46.805593</ele>
        <time>2020-06-12T18:13:38.663Z</time>
      </trkpt>
      <trkpt lat="50.4401" lon="1.63413">
        <ele>46.655066</ele>
        <time>2020-06-12T18:13:40.644Z</time>
      </trkpt>
      <trkpt lat="50.44015" lon="1.63397">
        <ele>46.507084</ele>
        <time>2020-06-12T18:13:42.642Z</time>
      </trkpt>
      <trkpt lat="50.44021" lon="1.63379">
        <ele>46.354045</ele>
        <time>2020-06-12T18:13:44.660Z</time>
      </trkpt>
      <trkpt lat="50.44027" lon="1.63363">
        <ele>46.206504</ele>
        <time>2020-06-12T18:13:46.643Z</time>
      </trkpt>
      <trkpt lat="50.44032" lon="1.63346">
        <ele>46.25676</ele>
        <time>2020-06-12T18:13:48.639Z</time>
      </trkpt>
      <trkpt lat="50.44038" lon="1.63329">
        <ele>46.321438</ele>
        <time>2020-06-12T18:13:50.676Z</time>
      </trkpt>
      <trkpt lat="50.44044" lon="1.63313">
        <ele>46.383897</ele>
        <time>2020-06-12T18:13:52.648Z</time>
      </trkpt>
      <trkpt lat="50.44049" lon="1.63297">
        <ele>46.445258</ele>
        <time>2020-06-12T18:13:54.657Z</time>
      </trkpt>
      <trkpt lat="50.44054" lon="1.6328">
        <ele>46.506547</ele>
        <time>2020-06-12T18:13:56.649Z</time>
      </trkpt>
      <trkpt lat="50.44058" lon="1.63264">
        <ele>46.566047</ele>
        <time>2020-06-12T18:13:58.643Z</time>
      </trkpt>
      <trkpt lat="50.44059" lon="1.63246">
        <ele>46.626976</ele>
        <time>2020-06-12T18:14:00.644Z</time>
      </trkpt>
      <trkpt lat="50.4406" lon="1.63227">
        <ele>46.690814</ele>
        <time>2020-06-12T18:14:02.645Z</time>
      </trkpt>
      <trkpt lat="50.4406" lon="1.63208">
        <ele>46.754652</ele>
        <time>2020-06-12T18:14:04.660Z</time>
      </trkpt>
      <trkpt lat="50.44062" lon="1.63189">
        <ele>46.817524</ele>
        <time>2020-06-12T18:14:06.650Z</time>
      </trkpt>
      <trkpt lat="50.44064" lon="1.63172">
        <ele>46.878522</ele>
        <time>2020-06-12T18:14:08.647Z</time>
      </trkpt>
      <trkpt lat="50.44067" lon="1.63154">
        <ele>46.939468</ele>
        <time>2020-06-12T18:14:10.639Z</time>
      </trkpt>
      <trkpt lat="50.44073" lon="1.63138">
        <ele>47.00298</ele>
        <time>2020-06-12T18:14:12.648Z</time>
      </trkpt>
      <trkpt lat="50.44082" lon="1.63124">
        <ele>47.067527</ele>
        <time>2020-06-12T18:14:14.641Z</time>
      </trkpt>
      <trkpt lat="50.4409" lon="1.6311">
        <ele>47.132571</ele>
        <time>2020-06-12T18:14:16.644Z</time>
      </trkpt>
      <trkpt lat="50.44098" lon="1.63096">
        <ele>47.31416</ele>
        <time>2020-06-12T18:14:18.647Z</time>
      </trkpt>
      <trkpt lat="50.44106" lon="1.63082">
        <ele>47.535202</ele>
        <time>2020-06-12T18:14:20.657Z</time>
      </trkpt>
      <trkpt lat="50.44113" lon="1.63068">
        <ele>47.755942</ele>
        <time>2020-06-12T18:14:22.640Z</time>
      </trkpt>
      <trkpt lat="50.4412" lon="1.63053">
        <ele>47.968836</ele>
        <time>2020-06-12T18:14:24.649Z</time>
      </trkpt>
      <trkpt lat="50.44126" lon="1.63038">
        <ele>48.180635</ele>
        <time>2020-06-12T18:14:26.660Z</time>
      </trkpt>
      <trkpt lat="50.44131" lon="1.63022">
        <ele>48.398812</ele>
        <time>2020-06-12T18:14:28.644Z</time>
      </trkpt>
      <trkpt lat="50.44137" lon="1.63006">
        <ele>48.612207</ele>
        <time>2020-06-12T18:14:30.639Z</time>
      </trkpt>
      <trkpt lat="50.44142" lon="1.6299">
        <ele>48.828435</ele>
        <time>2020-06-12T18:14:32.659Z</time>
      </trkpt>
      <trkpt lat="50.44148" lon="1.62974">
        <ele>49.045705</ele>
        <time>2020-06-12T18:14:34.655Z</time>
      </trkpt>
      <trkpt lat="50.44154" lon="1.62957">
        <ele>49.27434</ele>
        <time>2020-06-12T18:14:36.643Z</time>
      </trkpt>
      <trkpt lat="50.4416" lon="1.62939">
        <ele>49.526576</ele>
        <time>2020-06-12T18:14:38.668Z</time>
      </trkpt>
      <trkpt lat="50.44167" lon="1.6292">
        <ele>49.776413</ele>
        <time>2020-06-12T18:14:40.639Z</time>
      </trkpt>
      <trkpt lat="50.44172" lon="1.62902">
        <ele>50.014277</ele>
        <time>2020-06-12T18:14:42.641Z</time>
      </trkpt>
      <trkpt lat="50.44179" lon="1.62885">
        <ele>50.250199</ele>
        <time>2020-06-12T18:14:44.645Z</time>
      </trkpt>
      <trkpt lat="50.44187" lon="1.62871">
        <ele>50.49029</ele>
        <time>2020-06-12T18:14:46.644Z</time>
      </trkpt>
      <trkpt lat="50.44198" lon="1.62859">
        <ele>50.483183</ele>
        <time>2020-06-12T18:14:48.646Z</time>
      </trkpt>
      <trkpt lat="50.4421" lon="1.6285">
        <ele>50.454055</ele>
        <time>2020-06-12T18:14:50.648Z</time>
      </trkpt>
      <trkpt lat="50.44222" lon="1.62843">
        <ele>50.425916</ele>
        <time>2020-06-12T18:14:52.648Z</time>
      </trkpt>
      <trkpt lat="50.44234" lon="1.62836">
        <ele>50.397361</ele>
        <time>2020-06-12T18:14:54.672Z</time>
      </trkpt>
      <trkpt lat="50.44246" lon="1.62829">
        <ele>50.368503</ele>
        <time>2020-06-12T18:14:56.657Z</time>
      </trkpt>
      <trkpt lat="50.44257" lon="1.62822">
        <ele>50.341704</ele>
        <time>2020-06-12T18:14:58.642Z</time>
      </trkpt>
      <trkpt lat="50.44268" lon="1.62814">
        <ele>50.316503</ele>
        <time>2020-06-12T18:15:00.667Z</time>
      </trkpt>
      <trkpt lat="50.44278" lon="1.62804">
        <ele>50.29002</ele>
        <time>2020-06-12T18:15:02.649Z</time>
      </trkpt>
      <trkpt lat="50.44286" lon="1.6279">
        <ele>50.263863</ele>
        <time>2020-06-12T18:15:04.649Z</time>
      </trkpt>
      <trkpt lat="50.44292" lon="1.62774">
        <ele>50.237055</ele>
        <time>2020-06-12T18:15:06.646Z</time>
      </trkpt>
      <trkpt lat="50.44296" lon="1.62756">
        <ele>50.209703</ele>
        <time>2020-06-12T18:15:08.651Z</time>
      </trkpt>
      <trkpt lat="50.443" lon="1.62739">
        <ele>50.184145</ele>
        <time>2020-06-12T18:15:10.644Z</time>
      </trkpt>
      <trkpt lat="50.44305" lon="1.62722">
        <ele>50.159132</ele>
        <time>2020-06-12T18:15:12.646Z</time>
      </trkpt>
      <trkpt lat="50.4431" lon="1.62706">
        <ele>50.134118</ele>
        <time>2020-06-12T18:15:14.656Z</time>
      </trkpt>
      <trkpt lat="50.44313" lon="1.62689">
        <ele>50.112007</ele>
        <time>2020-06-12T18:15:16.639Z</time>
      </trkpt>
      <trkpt lat="50.44317" lon="1.62672">
        <ele>50.115196</ele>
        <time>2020-06-12T18:15:18.650Z</time>
      </trkpt>
      <trkpt lat="50.44322" lon="1.62653">
        <ele>50.118563</ele>
        <time>2020-06-12T18:15:20.659Z</time>
      </trkpt>
      <trkpt lat="50.44326" lon="1.62634">
        <ele>50.122022</ele>
        <time>2020-06-12T18:15:22.666Z</time>
      </trkpt>
      <trkpt lat="50.4433" lon="1.62615">
        <ele>50.125416</ele>
        <time>2020-06-12T18:15:24.641Z</time>
      </trkpt>
      <trkpt lat="50.44332" lon="1.62595">
        <ele>50.128846</ele>
        <time>2020-06-12T18:15:26.656Z</time>
      </trkpt>
      <trkpt lat="50.44332" lon="1.62576">
        <ele>50.13219</ele>
        <time>2020-06-12T18:15:28.647Z</time>
      </trkpt>
      <trkpt lat="50.44331" lon="1.62558">
        <ele>50.135245</ele>
        <time>2020-06-12T18:15:30.652Z</time>
      </trkpt>
      <trkpt lat="50.44329" lon="1.62541">
        <ele>50.138065</ele>
        <time>2020-06-12T18:15:32.655Z</time>
      </trkpt>
      <trkpt lat="50.44329" lon="1.62527">
        <ele>50.1406</ele>
        <time>2020-06-12T18:15:34.655Z</time>
      </trkpt>
      <trkpt lat="50.44329" lon="1.62511">
        <ele>50.143315</ele>
        <time>2020-06-12T18:15:36.657Z</time>
      </trkpt>
      <trkpt lat="50.44333" lon="1.62494">
        <ele>50.146478</ele>
        <time>2020-06-12T18:15:38.650Z</time>
      </trkpt>
      <trkpt lat="50.44342" lon="1.62481">
        <ele>50.149567</ele>
        <time>2020-06-12T18:15:40.651Z</time>
      </trkpt>
      <trkpt lat="50.44351" lon="1.62469">
        <ele>50.152793</ele>
        <time>2020-06-12T18:15:42.656Z</time>
      </trkpt>
      <trkpt lat="50.4436" lon="1.62458">
        <ele>50.155796</ele>
        <time>2020-06-12T18:15:44.640Z</time>
      </trkpt>
      <trkpt lat="50.44369" lon="1.62447">
        <ele>50.158853</ele>
        <time>2020-06-12T18:15:46.641Z</time>
      </trkpt>
      <trkpt lat="50.44379" lon="1.62436">
        <ele>50.167835</ele>
        <time>2020-06-12T18:15:48.657Z</time>
      </trkpt>
      <trkpt lat="50.4439" lon="1.62424">
        <ele>50.179373</ele>
        <time>2020-06-12T18:15:50.654Z</time>
      </trkpt>
      <trkpt lat="50.44399" lon="1.62412">
        <ele>50.19045</ele>
        <time>2020-06-12T18:15:52.632Z</time>
      </trkpt>
      <trkpt lat="50.44407" lon="1.62398">
        <ele>50.20089</ele>
        <time>2020-06-12T18:15:54.674Z</time>
      </trkpt>
      <trkpt lat="50.44414" lon="1.62382">
        <ele>50.211343</ele>
        <time>2020-06-12T18:15:56.653Z</time>
      </trkpt>
      <trkpt lat="50.4442" lon="1.62367">
        <ele>50.221653</ele>
        <time>2020-06-12T18:15:58.650Z</time>
      </trkpt>
      <trkpt lat="50.44426" lon="1.62352">
        <ele>50.231299</ele>
        <time>2020-06-12T18:16:00.643Z</time>
      </trkpt>
      <trkpt lat="50.44431" lon="1.62337">
        <ele>50.241388</ele>
        <time>2020-06-12T18:16:02.680Z</time>
      </trkpt>
      <trkpt lat="50.44435" lon="1.62321">
        <ele>50.251318</ele>
        <time>2020-06-12T18:16:04.642Z</time>
      </trkpt>
      <trkpt lat="50.4444" lon="1.62305">
        <ele>50.260919</ele>
        <time>2020-06-12T18:16:06.640Z</time>
      </trkpt>
      <trkpt lat="50.44443" lon="1.62289">
        <ele>50.270368</ele>
        <time>2020-06-12T18:16:08.654Z</time>
      </trkpt>
      <trkpt lat="50.44449" lon="1.62273">
        <ele>50.280897</ele>
        <time>2020-06-12T18:16:10.643Z</time>
      </trkpt>
      <trkpt lat="50.44454" lon="1.62256">
        <ele>50.291683</ele>
        <time>2020-06-12T18:16:12.642Z</time>
      </trkpt>
      <trkpt lat="50.44459" lon="1.62239">
        <ele>50.301926</ele>
        <time>2020-06-12T18:16:14.661Z</time>
      </trkpt>
      <trkpt lat="50.44463" lon="1.62224">
        <ele>50.311218</ele>
        <time>2020-06-12T18:16:16.654Z</time>
      </trkpt>
      <trkpt lat="50.44468" lon="1.62211">
        <ele>50.319372</ele>
        <time>2020-06-12T18:16:18.671Z</time>
      </trkpt>
      <trkpt lat="50.44472" lon="1.62195">
        <ele>50.31139</ele>
        <time>2020-06-12T18:16:20.637Z</time>
      </trkpt>
      <trkpt lat="50.44474" lon="1.62181">
        <ele>50.304091</ele>
        <time>2020-06-12T18:16:22.650Z</time>
      </trkpt>
      <trkpt lat="50.44472" lon="1.62165">
        <ele>50.296493</ele>
        <time>2020-06-12T18:16:24.675Z</time>
      </trkpt>
      <trkpt lat="50.44465" lon="1.62151">
        <ele>50.288094</ele>
        <time>2020-06-12T18:16:26.630Z</time>
      </trkpt>
      <trkpt lat="50.44458" lon="1.62136">
        <ele>50.279249</ele>
        <time>2020-06-12T18:16:28.643Z</time>
      </trkpt>
      <trkpt lat="50.44452" lon="1.62121">
        <ele>50.270748</ele>
        <time>2020-06-12T18:16:30.653Z</time>
      </trkpt>
      <trkpt lat="50.44446" lon="1.62106">
        <ele>50.262205</ele>
        <time>2020-06-12T18:16:32.650Z</time>
      </trkpt>
      <trkpt lat="50.4444" lon="1.62093">
        <ele>50.254313</ele>
        <time>2020-06-12T18:16:34.648Z</time>
      </trkpt>
      <trkpt lat="50.44434" lon="1.6208">
        <ele>50.246358</ele>
        <time>2020-06-12T18:16:36.650Z</time>
      </trkpt>
      <trkpt lat="50.44427" lon="1.62066">
        <ele>50.237646</ele>
        <time>2020-06-12T18:16:38.669Z</time>
      </trkpt>
      <trkpt lat="50.44419" lon="1.62052">
        <ele>50.22877</ele>
        <time>2020-06-12T18:16:40.646Z</time>
      </trkpt>
      <trkpt lat="50.44411" lon="1.6204">
        <ele>50.220447</ele>
        <time>2020-06-12T18:16:42.636Z</time>
      </trkpt>
      <trkpt lat="50.44403" lon="1.62028">
        <ele>50.212392</ele>
        <time>2020-06-12T18:16:44.657Z</time>
      </trkpt>
      <trkpt lat="50.44396" lon="1.62016">
        <ele>50.204212</ele>
        <time>2020-06-12T18:16:46.653Z</time>
      </trkpt>
      <trkpt lat="50.44388" lon="1.62004">
        <ele>50.195982</ele>
        <time>2020-06-12T18:16:48.643Z</time>
      </trkpt>
      <trkpt lat="50.44382" lon="1.61992">
        <ele>50.188333</ele>
        <time>2020-06-12T18:16:50.688Z</time>
      </trkpt>
      <trkpt lat="50.44378" lon="1.61979">
        <ele>50.182988</ele>
        <time>2020-06-12T18:16:52.641Z</time>
      </trkpt>
      <trkpt lat="50.44375" lon="1.61963">
        <ele>50.181201</ele>
        <time>2020-06-12T18:16:54.650Z</time>
      </trkpt>
      <trkpt lat="50.44373" lon="1.61946">
        <ele>50.179337</ele>
        <time>2020-06-12T18:16:56.652Z</time>
      </trkpt>
      <trkpt lat="50.4437" lon="1.6193">
        <ele>50.177556</ele>
        <time>2020-06-12T18:16:58.657Z</time>
      </trkpt>
      <trkpt lat="50.44366" lon="1.61916">
        <ele>50.175888</ele>
        <time>2020-06-12T18:17:00.647Z</time>
      </trkpt>
      <trkpt lat="50.44358" lon="1.61905">
        <ele>50.17406</ele>
        <time>2020-06-12T18:17:02.648Z</time>
      </trkpt>
      <trkpt lat="50.44348" lon="1.61896">
        <ele>50.172119</ele>
        <time>2020-06-12T18:17:04.651Z</time>
      </trkpt>
      <trkpt lat="50.44338" lon="1.61886">
        <ele>50.170174</ele>
        <time>2020-06-12T18:17:06.629Z</time>
      </trkpt>
      <trkpt lat="50.4433" lon="1.61873">
        <ele>50.168242</ele>
        <time>2020-06-12T18:17:08.652Z</time>
      </trkpt>
      <trkpt lat="50.44324" lon="1.6186">
        <ele>50.166464</ele>
        <time>2020-06-12T18:17:10.624Z</time>
      </trkpt>
      <trkpt lat="50.44321" lon="1.61845">
        <ele>50.164734</ele>
        <time>2020-06-12T18:17:12.645Z</time>
      </trkpt>
      <trkpt lat="50.44321" lon="1.61827">
        <ele>50.162818</ele>
        <time>2020-06-12T18:17:14.651Z</time>
      </trkpt>
      <trkpt lat="50.44323" lon="1.6181">
        <ele>50.16092</ele>
        <time>2020-06-12T18:17:16.645Z</time>
      </trkpt>
      <trkpt lat="50.44325" lon="1.61793">
        <ele>50.1591</ele>
        <time>2020-06-12T18:17:18.646Z</time>
      </trkpt>
      <trkpt lat="50.44328" lon="1.61779">
        <ele>50.157501</ele>
        <time>2020-06-12T18:17:20.648Z</time>
      </trkpt>
      <trkpt lat="50.44334" lon="1.61769">
        <ele>50.15595</ele>
        <time>2020-06-12T18:17:22.633Z</time>
      </trkpt>
      <trkpt lat="50.44343" lon="1.6176">
        <ele>50.154262</ele>
        <time>2020-06-12T18:17:24.642Z</time>
      </trkpt>
      <trkpt lat="50.4435" lon="1.61751">
        <ele>50.162651</ele>
        <time>2020-06-12T18:17:26.659Z</time>
      </trkpt>
      <trkpt lat="50.4436" lon="1.6174">
        <ele>50.248685</ele>
        <time>2020-06-12T18:17:29.645Z</time>
      </trkpt>
      <trkpt lat="50.44372" lon="1.61743">
        <ele>50.333497</ele>
        <time>2020-06-12T18:17:32.649Z</time>
      </trkpt>
      <trkpt lat="50.44382" lon="1.61744">
        <ele>50.403139</ele>
        <time>2020-06-12T18:17:34.647Z</time>
      </trkpt>
      <trkpt lat="50.44392" lon="1.61745">
        <ele>50.477078</ele>
        <time>2020-06-12T18:17:36.666Z</time>
      </trkpt>
      <trkpt lat="50.44403" lon="1.61745">
        <ele>50.553643</ele>
        <time>2020-06-12T18:17:38.652Z</time>
      </trkpt>
      <trkpt lat="50.44414" lon="1.61747">
        <ele>50.631116</ele>
        <time>2020-06-12T18:17:40.645Z</time>
      </trkpt>
      <trkpt lat="50.44424" lon="1.61749">
        <ele>50.699684</ele>
        <time>2020-06-12T18:17:42.638Z</time>
      </trkpt>
      <trkpt lat="50.44434" lon="1.6175">
        <ele>50.767455</ele>
        <time>2020-06-12T18:17:44.653Z</time>
      </trkpt>
      <trkpt lat="50.44444" lon="1.61751">
        <ele>50.83985</ele>
        <time>2020-06-12T18:17:46.643Z</time>
      </trkpt>
      <trkpt lat="50.44455" lon="1.61752">
        <ele>50.915049</ele>
        <time>2020-06-12T18:17:48.640Z</time>
      </trkpt>
      <trkpt lat="50.44465" lon="1.61753">
        <ele>50.991161</ele>
        <time>2020-06-12T18:17:50.647Z</time>
      </trkpt>
      <trkpt lat="50.44477" lon="1.61755">
        <ele>51.070989</ele>
        <time>2020-06-12T18:17:52.644Z</time>
      </trkpt>
      <trkpt lat="50.44488" lon="1.61757">
        <ele>51.151898</ele>
        <time>2020-06-12T18:17:54.642Z</time>
      </trkpt>
      <trkpt lat="50.445" lon="1.61758">
        <ele>51.23497</ele>
        <time>2020-06-12T18:17:56.646Z</time>
      </trkpt>
      <trkpt lat="50.44511" lon="1.61759">
        <ele>51.31302</ele>
        <time>2020-06-12T18:17:58.637Z</time>
      </trkpt>
      <trkpt lat="50.44522" lon="1.6176">
        <ele>51.386139</ele>
        <time>2020-06-12T18:18:00.639Z</time>
      </trkpt>
      <trkpt lat="50.44532" lon="1.61759">
        <ele>51.515171</ele>
        <time>2020-06-12T18:18:02.662Z</time>
      </trkpt>
      <trkpt lat="50.44543" lon="1.61758">
        <ele>51.699412</ele>
        <time>2020-06-12T18:18:04.640Z</time>
      </trkpt>
      <trkpt lat="50.44553" lon="1.61758">
        <ele>51.873667</ele>
        <time>2020-06-12T18:18:06.646Z</time>
      </trkpt>
      <trkpt lat="50.44563" lon="1.61757">
        <ele>52.039408</ele>
        <time>2020-06-12T18:18:08.654Z</time>
      </trkpt>
      <trkpt lat="50.44574" lon="1.61756">
        <ele>52.216973</ele>
        <time>2020-06-12T18:18:10.659Z</time>
      </trkpt>
      <trkpt lat="50.44586" lon="1.61754">
        <ele>52.41024</ele>
        <time>2020-06-12T18:18:12.640Z</time>
      </trkpt>
      <trkpt lat="50.44598" lon="1.61752">
        <ele>52.615504</ele>
        <time>2020-06-12T18:18:14.701Z</time>
      </trkpt>
      <trkpt lat="50.4461" lon="1.61749">
        <ele>52.819819</ele>
        <time>2020-06-12T18:18:16.649Z</time>
      </trkpt>
      <trkpt lat="50.44623" lon="1.61743">
        <ele>53.042467</ele>
        <time>2020-06-12T18:18:18.679Z</time>
      </trkpt>
      <trkpt lat="50.44636" lon="1.61734">
        <ele>53.275301</ele>
        <time>2020-06-12T18:18:20.690Z</time>
      </trkpt>
      <trkpt lat="50.44649" lon="1.61725">
        <ele>53.512026</ele>
        <time>2020-06-12T18:18:22.655Z</time>
      </trkpt>
      <trkpt lat="50.44662" lon="1.61717">
        <ele>53.750397</ele>
        <time>2020-06-12T18:18:24.635Z</time>
      </trkpt>
      <trkpt lat="50.44676" lon="1.6171">
        <ele>53.991968</ele>
        <time>2020-06-12T18:18:26.677Z</time>
      </trkpt>
      <trkpt lat="50.44688" lon="1.61703">
        <ele>54.207532</ele>
        <time>2020-06-12T18:18:28.651Z</time>
      </trkpt>
      <trkpt lat="50.447" lon="1.61695">
        <ele>54.405375</ele>
        <time>2020-06-12T18:18:30.642Z</time>
      </trkpt>
      <trkpt lat="50.44712" lon="1.61685">
        <ele>54.497593</ele>
        <time>2020-06-12T18:18:32.648Z</time>
      </trkpt>
      <trkpt lat="50.44724" lon="1.61677">
        <ele>54.586618</ele>
        <time>2020-06-12T18:18:34.643Z</time>
      </trkpt>
      <trkpt lat="50.44736" lon="1.61669">
        <ele>54.67907</ele>
        <time>2020-06-12T18:18:36.665Z</time>
      </trkpt>
      <trkpt lat="50.44748" lon="1.6166">
        <ele>54.772594</ele>
        <time>2020-06-12T18:18:38.660Z</time>
      </trkpt>
      <trkpt lat="50.44761" lon="1.61651">
        <ele>54.866564</ele>
        <time>2020-06-12T18:18:40.640Z</time>
      </trkpt>
      <trkpt lat="50.44773" lon="1.61641">
        <ele>54.961223</ele>
        <time>2020-06-12T18:18:42.626Z</time>
      </trkpt>
      <trkpt lat="50.44785" lon="1.61632">
        <ele>55.056891</ele>
        <time>2020-06-12T18:18:44.687Z</time>
      </trkpt>
      <trkpt lat="50.44798" lon="1.61624">
        <ele>55.151224</ele>
        <time>2020-06-12T18:18:46.646Z</time>
      </trkpt>
      <trkpt lat="50.44811" lon="1.61615">
        <ele>55.247994</ele>
        <time>2020-06-12T18:18:48.643Z</time>
      </trkpt>
      <trkpt lat="50.44824" lon="1.61605">
        <ele>55.348085</ele>
        <time>2020-06-12T18:18:50.656Z</time>
      </trkpt>
      <trkpt lat="50.44838" lon="1.61597">
        <ele>55.449178</ele>
        <time>2020-06-12T18:18:52.640Z</time>
      </trkpt>
      <trkpt lat="50.44851" lon="1.61588">
        <ele>55.552248</ele>
        <time>2020-06-12T18:18:54.637Z</time>
      </trkpt>
      <trkpt lat="50.44865" lon="1.61578">
        <ele>55.57695</ele>
        <time>2020-06-12T18:18:56.662Z</time>
      </trkpt>
      <trkpt lat="50.4488" lon="1.61568">
        <ele>55.268136</ele>
        <time>2020-06-12T18:18:58.659Z</time>
      </trkpt>
      <trkpt lat="50.44894" lon="1.61559">
        <ele>54.957945</ele>
        <time>2020-06-12T18:19:00.655Z</time>
      </trkpt>
      <trkpt lat="50.44908" lon="1.61552">
        <ele>54.650224</ele>
        <time>2020-06-12T18:19:02.651Z</time>
      </trkpt>
      <trkpt lat="50.44924" lon="1.61546">
        <ele>54.33545</ele>
        <time>2020-06-12T18:19:04.643Z</time>
      </trkpt>
      <trkpt lat="50.4494" lon="1.61542">
        <ele>54.005963</ele>
        <time>2020-06-12T18:19:06.656Z</time>
      </trkpt>
      <trkpt lat="50.44957" lon="1.61539">
        <ele>53.664704</ele>
        <time>2020-06-12T18:19:08.645Z</time>
      </trkpt>
      <trkpt lat="50.44973" lon="1.61537">
        <ele>53.331324</ele>
        <time>2020-06-12T18:19:10.649Z</time>
      </trkpt>
      <trkpt lat="50.44988" lon="1.61534">
        <ele>53.023651</ele>
        <time>2020-06-12T18:19:12.641Z</time>
      </trkpt>
      <trkpt lat="50.45003" lon="1.61531">
        <ele>52.727954</ele>
        <time>2020-06-12T18:19:14.658Z</time>
      </trkpt>
      <trkpt lat="50.45017" lon="1.61529">
        <ele>52.44083</ele>
        <time>2020-06-12T18:19:16.645Z</time>
      </trkpt>
      <trkpt lat="50.45031" lon="1.61527">
        <ele>52.1661</ele>
        <time>2020-06-12T18:19:18.643Z</time>
      </trkpt>
      <trkpt lat="50.45043" lon="1.61524">
        <ele>52.021328</ele>
        <time>2020-06-12T18:19:20.644Z</time>
      </trkpt>
      <trkpt lat="50.45056" lon="1.6152">
        <ele>52.019041</ele>
        <time>2020-06-12T18:19:22.643Z</time>
      </trkpt>
      <trkpt lat="50.45069" lon="1.61516">
        <ele>52.016812</ele>
        <time>2020-06-12T18:19:24.640Z</time>
      </trkpt>
      <trkpt lat="50.45083" lon="1.61514">
        <ele>52.014402</ele>
        <time>2020-06-12T18:19:26.648Z</time>
      </trkpt>
      <trkpt lat="50.45097" lon="1.61512">
        <ele>52.0119</ele>
        <time>2020-06-12T18:19:28.646Z</time>
      </trkpt>
      <trkpt lat="50.45111" lon="1.61509">
        <ele>52.009454</ele>
        <time>2020-06-12T18:19:30.662Z</time>
      </trkpt>
      <trkpt lat="50.45125" lon="1.61506">
        <ele>52.00707</ele>
        <time>2020-06-12T18:19:32.654Z</time>
      </trkpt>
      <trkpt lat="50.45138" lon="1.615">
        <ele>52.004755</ele>
        <time>2020-06-12T18:19:34.644Z</time>
      </trkpt>
      <trkpt lat="50.45149" lon="1.61491">
        <ele>52.002457</ele>
        <time>2020-06-12T18:19:36.647Z</time>
      </trkpt>
      <trkpt lat="50.45162" lon="1.61484">
        <ele>52.000107</ele>
        <time>2020-06-12T18:19:38.656Z</time>
      </trkpt>
      <trkpt lat="50.45177" lon="1.61479">
        <ele>51.997562</ele>
        <time>2020-06-12T18:19:40.643Z</time>
      </trkpt>
      <trkpt lat="50.4519" lon="1.61473">
        <ele>51.995093</ele>
        <time>2020-06-12T18:19:42.667Z</time>
      </trkpt>
      <trkpt lat="50.45205" lon="1.61467">
        <ele>51.992534</ele>
        <time>2020-06-12T18:19:44.680Z</time>
      </trkpt>
      <trkpt lat="50.45218" lon="1.6146">
        <ele>52.171348</ele>
        <time>2020-06-12T18:19:46.652Z</time>
      </trkpt>
      <trkpt lat="50.45232" lon="1.61452">
        <ele>52.606488</ele>
        <time>2020-06-12T18:19:48.637Z</time>
      </trkpt>
      <trkpt lat="50.45246" lon="1.61444">
        <ele>53.037526</ele>
        <time>2020-06-12T18:19:50.649Z</time>
      </trkpt>
      <trkpt lat="50.45259" lon="1.61437">
        <ele>53.467292</ele>
        <time>2020-06-12T18:19:52.637Z</time>
      </trkpt>
      <trkpt lat="50.45272" lon="1.6143">
        <ele>53.880324</ele>
        <time>2020-06-12T18:19:54.640Z</time>
      </trkpt>
      <trkpt lat="50.45285" lon="1.61423">
        <ele>54.27516</ele>
        <time>2020-06-12T18:19:56.658Z</time>
      </trkpt>
      <trkpt lat="50.45297" lon="1.61414">
        <ele>54.675442</ele>
        <time>2020-06-12T18:19:58.633Z</time>
      </trkpt>
      <trkpt lat="50.45308" lon="1.61405">
        <ele>55.055019</ele>
        <time>2020-06-12T18:20:00.641Z</time>
      </trkpt>
      <trkpt lat="50.45321" lon="1.61397">
        <ele>55.465072</ele>
        <time>2020-06-12T18:20:02.668Z</time>
      </trkpt>
      <trkpt lat="50.45334" lon="1.61391">
        <ele>55.857639</ele>
        <time>2020-06-12T18:20:04.648Z</time>
      </trkpt>
      <trkpt lat="50.45347" lon="1.61387">
        <ele>56.262891</ele>
        <time>2020-06-12T18:20:06.643Z</time>
      </trkpt>
      <trkpt lat="50.45361" lon="1.61385">
        <ele>56.673308</ele>
        <time>2020-06-12T18:20:08.679Z</time>
      </trkpt>
      <trkpt lat="50.45375" lon="1.61384">
        <ele>57.097412</ele>
        <time>2020-06-12T18:20:10.631Z</time>
      </trkpt>
      <trkpt lat="50.4539" lon="1.61384">
        <ele>57.303349</ele>
        <time>2020-06-12T18:20:12.634Z</time>
      </trkpt>
      <trkpt lat="50.45403" lon="1.61383">
        <ele>57.19418</ele>
        <time>2020-06-12T18:20:14.658Z</time>
      </trkpt>
      <trkpt lat="50.45416" lon="1.61382">
        <ele>57.089551</ele>
        <time>2020-06-12T18:20:16.655Z</time>
      </trkpt>
      <trkpt lat="50.45429" lon="1.6138">
        <ele>56.984484</ele>
        <time>2020-06-12T18:20:18.643Z</time>
      </trkpt>
      <trkpt lat="50.45443" lon="1.61377">
        <ele>56.875311</ele>
        <time>2020-06-12T18:20:20.668Z</time>
      </trkpt>
      <trkpt lat="50.45456" lon="1.61373">
        <ele>56.76996</ele>
        <time>2020-06-12T18:20:22.647Z</time>
      </trkpt>
      <trkpt lat="50.45468" lon="1.61369">
        <ele>56.671598</ele>
        <time>2020-06-12T18:20:24.639Z</time>
      </trkpt>
      <trkpt lat="50.4548" lon="1.61367">
        <ele>56.57357</ele>
        <time>2020-06-12T18:20:26.655Z</time>
      </trkpt>
      <trkpt lat="50.45493" lon="1.61363">
        <ele>56.468312</ele>
        <time>2020-06-12T18:20:28.641Z</time>
      </trkpt>
      <trkpt lat="50.45507" lon="1.61359">
        <ele>56.35627</ele>
        <time>2020-06-12T18:20:30.647Z</time>
      </trkpt>
      <trkpt lat="50.45521" lon="1.61354">
        <ele>56.236941</ele>
        <time>2020-06-12T18:20:32.660Z</time>
      </trkpt>
      <trkpt lat="50.45535" lon="1.61351">
        <ele>56.124654</ele>
        <time>2020-06-12T18:20:34.644Z</time>
      </trkpt>
      <trkpt lat="50.45549" lon="1.61349">
        <ele>56.015103</ele>
        <time>2020-06-12T18:20:36.654Z</time>
      </trkpt>
      <trkpt lat="50.45562" lon="1.61347">
        <ele>55.910474</ele>
        <time>2020-06-12T18:20:38.659Z</time>
      </trkpt>
      <trkpt lat="50.45574" lon="1.61348">
        <ele>55.784464</ele>
        <time>2020-06-12T18:20:40.655Z</time>
      </trkpt>
      <trkpt lat="50.45585" lon="1.6135">
        <ele>55.665864</ele>
        <time>2020-06-12T18:20:42.639Z</time>
      </trkpt>
      <trkpt lat="50.45595" lon="1.61344">
        <ele>55.561622</ele>
        <time>2020-06-12T18:20:44.653Z</time>
      </trkpt>
      <trkpt lat="50.45595" lon="1.61327">
        <ele>55.451326</ele>
        <time>2020-06-12T18:20:46.643Z</time>
      </trkpt>
      <trkpt lat="50.45587" lon="1.61312">
        <ele>55.321876</ele>
        <time>2020-06-12T18:20:48.645Z</time>
      </trkpt>
      <trkpt lat="50.4558" lon="1.61295">
        <ele>55.194134</ele>
        <time>2020-06-12T18:20:50.646Z</time>
      </trkpt>
      <trkpt lat="50.45575" lon="1.61277">
        <ele>55.065301</ele>
        <time>2020-06-12T18:20:52.648Z</time>
      </trkpt>
      <trkpt lat="50.4557" lon="1.61258">
        <ele>54.92967</ele>
        <time>2020-06-12T18:20:54.648Z</time>
      </trkpt>
      <trkpt lat="50.45567" lon="1.61238">
        <ele>54.798078</ele>
        <time>2020-06-12T18:20:56.667Z</time>
      </trkpt>
      <trkpt lat="50.45564" lon="1.61219">
        <ele>54.66955</ele>
        <time>2020-06-12T18:20:58.642Z</time>
      </trkpt>
      <trkpt lat="50.4556" lon="1.61201">
        <ele>54.543886</ele>
        <time>2020-06-12T18:21:00.663Z</time>
      </trkpt>
      <trkpt lat="50.45558" lon="1.61183">
        <ele>54.424911</ele>
        <time>2020-06-12T18:21:02.647Z</time>
      </trkpt>
      <trkpt lat="50.45558" lon="1.61164">
        <ele>54.29894</ele>
        <time>2020-06-12T18:21:04.644Z</time>
      </trkpt>
      <trkpt lat="50.4556" lon="1.61144">
        <ele>54.172133</ele>
        <time>2020-06-12T18:21:06.651Z</time>
      </trkpt>
      <trkpt lat="50.45564" lon="1.61126">
        <ele>54.059607</ele>
        <time>2020-06-12T18:21:08.662Z</time>
      </trkpt>
      <trkpt lat="50.45568" lon="1.61107">
        <ele>54.019387</ele>
        <time>2020-06-12T18:21:10.676Z</time>
      </trkpt>
      <trkpt lat="50.45573" lon="1.61089">
        <ele>53.981733</ele>
        <time>2020-06-12T18:21:12.651Z</time>
      </trkpt>
      <trkpt lat="50.45578" lon="1.61072">
        <ele>53.94462</ele>
        <time>2020-06-12T18:21:14.671Z</time>
      </trkpt>
      <trkpt lat="50.45584" lon="1.61057">
        <ele>53.910391</ele>
        <time>2020-06-12T18:21:16.655Z</time>
      </trkpt>
      <trkpt lat="50.45588" lon="1.61038">
        <ele>53.871623</ele>
        <time>2020-06-12T18:21:18.649Z</time>
      </trkpt>
      <trkpt lat="50.45589" lon="1.61019">
        <ele>53.833289</ele>
        <time>2020-06-12T18:21:20.679Z</time>
      </trkpt>
      <trkpt lat="50.45588" lon="1.61">
        <ele>53.796411</ele>
        <time>2020-06-12T18:21:22.640Z</time>
      </trkpt>
      <trkpt lat="50.45587" lon="1.60981">
        <ele>53.7581</ele>
        <time>2020-06-12T18:21:24.643Z</time>
      </trkpt>
      <trkpt lat="50.45587" lon="1.60962">
        <ele>53.720056</ele>
        <time>2020-06-12T18:21:26.669Z</time>
      </trkpt>
      <trkpt lat="50.45586" lon="1.60943">
        <ele>53.683804</ele>
        <time>2020-06-12T18:21:28.645Z</time>
      </trkpt>
      <trkpt lat="50.45586" lon="1.60924">
        <ele>53.646713</ele>
        <time>2020-06-12T18:21:30.640Z</time>
      </trkpt>
      <trkpt lat="50.45586" lon="1.60906">
        <ele>53.60968</ele>
        <time>2020-06-12T18:21:32.644Z</time>
      </trkpt>
      <trkpt lat="50.45585" lon="1.60887">
        <ele>53.573429</ele>
        <time>2020-06-12T18:21:34.633Z</time>
      </trkpt>
      <trkpt lat="50.45585" lon="1.60869">
        <ele>53.538172</ele>
        <time>2020-06-12T18:21:36.645Z</time>
      </trkpt>
      <trkpt lat="50.45585" lon="1.60852">
        <ele>53.545935</ele>
        <time>2020-06-12T18:21:38.687Z</time>
      </trkpt>
      <trkpt lat="50.45584" lon="1.60835">
        <ele>53.766799</ele>
        <time>2020-06-12T18:21:40.678Z</time>
      </trkpt>
      <trkpt lat="50.45583" lon="1.60817">
        <ele>53.992063</ele>
        <time>2020-06-12T18:21:42.629Z</time>
      </trkpt>
      <trkpt lat="50.45582" lon="1.608">
        <ele>54.208967</ele>
        <time>2020-06-12T18:21:44.656Z</time>
      </trkpt>
      <trkpt lat="50.45582" lon="1.60783">
        <ele>54.427927</ele>
        <time>2020-06-12T18:21:46.675Z</time>
      </trkpt>
      <trkpt lat="50.45581" lon="1.60765">
        <ele>54.649009</ele>
        <time>2020-06-12T18:21:48.637Z</time>
      </trkpt>
      <trkpt lat="50.45581" lon="1.60747">
        <ele>54.876683</ele>
        <time>2020-06-12T18:21:50.650Z</time>
      </trkpt>
      <trkpt lat="50.45581" lon="1.60729">
        <ele>55.107868</ele>
        <time>2020-06-12T18:21:52.637Z</time>
      </trkpt>
      <trkpt lat="50.45581" lon="1.6071">
        <ele>55.341756</ele>
        <time>2020-06-12T18:21:54.637Z</time>
      </trkpt>
      <trkpt lat="50.45583" lon="1.60691">
        <ele>55.586584</ele>
        <time>2020-06-12T18:21:56.657Z</time>
      </trkpt>
      <trkpt lat="50.45588" lon="1.60675">
        <ele>55.81642</ele>
        <time>2020-06-12T18:21:58.635Z</time>
      </trkpt>
      <trkpt lat="50.45595" lon="1.60659">
        <ele>56.05411</ele>
        <time>2020-06-12T18:22:00.647Z</time>
      </trkpt>
      <trkpt lat="50.45601" lon="1.60646">
        <ele>56.266923</ele>
        <time>2020-06-12T18:22:02.629Z</time>
      </trkpt>
      <trkpt lat="50.45609" lon="1.60632">
        <ele>56.497397</ele>
        <time>2020-06-12T18:22:04.638Z</time>
      </trkpt>
      <trkpt lat="50.45616" lon="1.60617">
        <ele>56.74211</ele>
        <time>2020-06-12T18:22:06.641Z</time>
      </trkpt>
      <trkpt lat="50.45624" lon="1.60602">
        <ele>56.98451</ele>
        <time>2020-06-12T18:22:08.647Z</time>
      </trkpt>
      <trkpt lat="50.45632" lon="1.60588">
        <ele>57.142854</ele>
        <time>2020-06-12T18:22:10.678Z</time>
      </trkpt>
      <trkpt lat="50.4564" lon="1.60575">
        <ele>57.250836</ele>
        <time>2020-06-12T18:22:12.670Z</time>
      </trkpt>
      <trkpt lat="50.45648" lon="1.60561">
        <ele>57.364664</ele>
        <time>2020-06-12T18:22:14.664Z</time>
      </trkpt>
      <trkpt lat="50.45657" lon="1.60546">
        <ele>57.486548</ele>
        <time>2020-06-12T18:22:16.643Z</time>
      </trkpt>
      <trkpt lat="50.45665" lon="1.6053">
        <ele>57.613854</ele>
        <time>2020-06-12T18:22:18.674Z</time>
      </trkpt>
      <trkpt lat="50.45673" lon="1.60514">
        <ele>57.736298</ele>
        <time>2020-06-12T18:22:20.648Z</time>
      </trkpt>
      <trkpt lat="50.45682" lon="1.60498">
        <ele>57.860405</ele>
        <time>2020-06-12T18:22:22.637Z</time>
      </trkpt>
      <trkpt lat="50.4569" lon="1.60482">
        <ele>57.988029</ele>
        <time>2020-06-12T18:22:24.649Z</time>
      </trkpt>
      <trkpt lat="50.45699" lon="1.60466">
        <ele>58.113872</ele>
        <time>2020-06-12T18:22:26.655Z</time>
      </trkpt>
      <trkpt lat="50.45707" lon="1.60449">
        <ele>58.240936</ele>
        <time>2020-06-12T18:22:28.654Z</time>
      </trkpt>
      <trkpt lat="50.45716" lon="1.6043">
        <ele>58.377643</ele>
        <time>2020-06-12T18:22:30.646Z</time>
      </trkpt>
      <trkpt lat="50.45725" lon="1.60415">
        <ele>58.504057</ele>
        <time>2020-06-12T18:22:32.651Z</time>
      </trkpt>
      <trkpt lat="50.45734" lon="1.604">
        <ele>58.630511</ele>
        <time>2020-06-12T18:22:34.667Z</time>
      </trkpt>
      <trkpt lat="50.45743" lon="1.60382">
        <ele>58.765173</ele>
        <time>2020-06-12T18:22:36.651Z</time>
      </trkpt>
      <trkpt lat="50.45752" lon="1.60366">
        <ele>58.530502</ele>
        <time>2020-06-12T18:22:38.659Z</time>
      </trkpt>
      <trkpt lat="50.4576" lon="1.60348">
        <ele>58.266198</ele>
        <time>2020-06-12T18:22:40.651Z</time>
      </trkpt>
      <trkpt lat="50.45769" lon="1.60331">
        <ele>58.001894</ele>
        <time>2020-06-12T18:22:42.648Z</time>
      </trkpt>
      <trkpt lat="50.45777" lon="1.60314">
        <ele>57.743792</ele>
        <time>2020-06-12T18:22:44.650Z</time>
      </trkpt>
      <trkpt lat="50.45786" lon="1.60298">
        <ele>57.480122</ele>
        <time>2020-06-12T18:22:46.658Z</time>
      </trkpt>
      <trkpt lat="50.45795" lon="1.60281">
        <ele>57.210829</ele>
        <time>2020-06-12T18:22:48.642Z</time>
      </trkpt>
      <trkpt lat="50.45804" lon="1.60265">
        <ele>56.952862</ele>
        <time>2020-06-12T18:22:50.674Z</time>
      </trkpt>
      <trkpt lat="50.45812" lon="1.60248">
        <ele>56.698215</ele>
        <time>2020-06-12T18:22:52.651Z</time>
      </trkpt>
      <trkpt lat="50.45819" lon="1.60229">
        <ele>56.422319</ele>
        <time>2020-06-12T18:22:54.647Z</time>
      </trkpt>
      <trkpt lat="50.45824" lon="1.60208">
        <ele>56.15408</ele>
        <time>2020-06-12T18:22:56.666Z</time>
      </trkpt>
      <trkpt lat="50.45827" lon="1.60188">
        <ele>55.896273</ele>
        <time>2020-06-12T18:22:58.645Z</time>
      </trkpt>
      <trkpt lat="50.45831" lon="1.60167">
        <ele>55.635818</ele>
        <time>2020-06-12T18:23:00.679Z</time>
      </trkpt>
      <trkpt lat="50.45834" lon="1.60146">
        <ele>55.371364</ele>
        <time>2020-06-12T18:23:02.649Z</time>
      </trkpt>
      <trkpt lat="50.45837" lon="1.60124">
        <ele>55.260987</ele>
        <time>2020-06-12T18:23:04.646Z</time>
      </trkpt>
      <trkpt lat="50.4584" lon="1.60102">
        <ele>55.182085</ele>
        <time>2020-06-12T18:23:06.655Z</time>
      </trkpt>
      <trkpt lat="50.45843" lon="1.6008">
        <ele>55.1034</ele>
        <time>2020-06-12T18:23:08.653Z</time>
      </trkpt>
      <trkpt lat="50.45847" lon="1.60059">
        <ele>55.025821</ele>
        <time>2020-06-12T18:23:10.647Z</time>
      </trkpt>
      <trkpt lat="50.4585" lon="1.60039">
        <ele>54.950639</ele>
        <time>2020-06-12T18:23:12.670Z</time>
      </trkpt>
      <trkpt lat="50.45855" lon="1.60017">
        <ele>54.871815</ele>
        <time>2020-06-12T18:23:14.652Z</time>
      </trkpt>
      <trkpt lat="50.45859" lon="1.59996">
        <ele>54.79417</ele>
        <time>2020-06-12T18:23:16.645Z</time>
      </trkpt>
      <trkpt lat="50.45863" lon="1.59976">
        <ele>54.717718</ele>
        <time>2020-06-12T18:23:18.649Z</time>
      </trkpt>
      <trkpt lat="50.45867" lon="1.59957">
        <ele>54.647676</ele>
        <time>2020-06-12T18:23:20.649Z</time>
      </trkpt>
      <trkpt lat="50.45871" lon="1.59938">
        <ele>54.57578</ele>
        <time>2020-06-12T18:23:22.652Z</time>
      </trkpt>
      <trkpt lat="50.45874" lon="1.59916">
        <ele>54.496964</ele>
        <time>2020-06-12T18:23:24.651Z</time>
      </trkpt>
      <trkpt lat="50.45877" lon="1.59893">
        <ele>54.413687</ele>
        <time>2020-06-12T18:23:26.657Z</time>
      </trkpt>
      <trkpt lat="50.45881" lon="1.59871">
        <ele>54.333008</ele>
        <time>2020-06-12T18:23:28.636Z</time>
      </trkpt>
      <trkpt lat="50.45886" lon="1.59849">
        <ele>54.334994</ele>
        <time>2020-06-12T18:23:30.653Z</time>
      </trkpt>
      <trkpt lat="50.4589" lon="1.59827">
        <ele>54.3399</ele>
        <time>2020-06-12T18:23:32.655Z</time>
      </trkpt>
      <trkpt lat="50.45893" lon="1.59805">
        <ele>54.344867</ele>
        <time>2020-06-12T18:23:34.635Z</time>
      </trkpt>
      <trkpt lat="50.45896" lon="1.59783">
        <ele>54.349793</ele>
        <time>2020-06-12T18:23:36.646Z</time>
      </trkpt>
      <trkpt lat="50.459" lon="1.59761">
        <ele>54.354655</ele>
        <time>2020-06-12T18:23:38.642Z</time>
      </trkpt>
      <trkpt lat="50.45903" lon="1.59739">
        <ele>54.359536</ele>
        <time>2020-06-12T18:23:40.634Z</time>
      </trkpt>
      <trkpt lat="50.45906" lon="1.59717">
        <ele>54.364396</ele>
        <time>2020-06-12T18:23:42.648Z</time>
      </trkpt>
      <trkpt lat="50.45908" lon="1.59694">
        <ele>54.369442</ele>
        <time>2020-06-12T18:23:44.675Z</time>
      </trkpt>
      <trkpt lat="50.45911" lon="1.59672">
        <ele>54.374287</ele>
        <time>2020-06-12T18:23:46.673Z</time>
      </trkpt>
      <trkpt lat="50.45915" lon="1.5965">
        <ele>54.379223</ele>
        <time>2020-06-12T18:23:48.631Z</time>
      </trkpt>
      <trkpt lat="50.45917" lon="1.59625">
        <ele>54.38475</ele>
        <time>2020-06-12T18:23:50.653Z</time>
      </trkpt>
      <trkpt lat="50.45921" lon="1.59603">
        <ele>54.389731</ele>
        <time>2020-06-12T18:23:52.639Z</time>
      </trkpt>
      <trkpt lat="50.45924" lon="1.5958">
        <ele>54.451978</ele>
        <time>2020-06-12T18:23:54.650Z</time>
      </trkpt>
      <trkpt lat="50.45927" lon="1.59558">
        <ele>54.538447</ele>
        <time>2020-06-12T18:23:56.663Z</time>
      </trkpt>
      <trkpt lat="50.45931" lon="1.59534">
        <ele>54.630162</ele>
        <time>2020-06-12T18:23:58.648Z</time>
      </trkpt>
      <trkpt lat="50.45935" lon="1.59511">
        <ele>54.721958</ele>
        <time>2020-06-12T18:24:00.678Z</time>
      </trkpt>
      <trkpt lat="50.45938" lon="1.59488">
        <ele>54.810113</ele>
        <time>2020-06-12T18:24:02.663Z</time>
      </trkpt>
      <trkpt lat="50.45941" lon="1.59466">
        <ele>54.89777</ele>
        <time>2020-06-12T18:24:04.663Z</time>
      </trkpt>
      <trkpt lat="50.45944" lon="1.59442">
        <ele>54.991033</ele>
        <time>2020-06-12T18:24:06.643Z</time>
      </trkpt>
      <trkpt lat="50.45948" lon="1.59418">
        <ele>55.084803</ele>
        <time>2020-06-12T18:24:08.654Z</time>
      </trkpt>
      <trkpt lat="50.45953" lon="1.59396">
        <ele>55.174919</ele>
        <time>2020-06-12T18:24:10.645Z</time>
      </trkpt>
      <trkpt lat="50.45956" lon="1.59372">
        <ele>55.267185</ele>
        <time>2020-06-12T18:24:12.653Z</time>
      </trkpt>
      <trkpt lat="50.4596" lon="1.5935">
        <ele>55.355861</ele>
        <time>2020-06-12T18:24:14.662Z</time>
      </trkpt>
      <trkpt lat="50.45964" lon="1.59326">
        <ele>55.448769</ele>
        <time>2020-06-12T18:24:16.639Z</time>
      </trkpt>
      <trkpt lat="50.45967" lon="1.59303">
        <ele>55.449037</ele>
        <time>2020-06-12T18:24:18.636Z</time>
      </trkpt>
      <trkpt lat="50.45971" lon="1.5928">
        <ele>55.423762</ele>
        <time>2020-06-12T18:24:20.654Z</time>
      </trkpt>
      <trkpt lat="50.45975" lon="1.59256">
        <ele>55.398099</ele>
        <time>2020-06-12T18:24:22.655Z</time>
      </trkpt>
      <trkpt lat="50.4598" lon="1.59232">
        <ele>55.372088</ele>
        <time>2020-06-12T18:24:24.643Z</time>
      </trkpt>
      <trkpt lat="50.45984" lon="1.59208">
        <ele>55.345554</ele>
        <time>2020-06-12T18:24:26.659Z</time>
      </trkpt>
      <trkpt lat="50.45987" lon="1.59182">
        <ele>55.318014</ele>
        <time>2020-06-12T18:24:28.648Z</time>
      </trkpt>
      <trkpt lat="50.45991" lon="1.59156">
        <ele>55.289587</ele>
        <time>2020-06-12T18:24:30.631Z</time>
      </trkpt>
      <trkpt lat="50.45995" lon="1.59129">
        <ele>55.260988</ele>
        <time>2020-06-12T18:24:32.651Z</time>
      </trkpt>
      <trkpt lat="50.45999" lon="1.59103">
        <ele>55.232582</ele>
        <time>2020-06-12T18:24:34.653Z</time>
      </trkpt>
      <trkpt lat="50.46003" lon="1.59077">
        <ele>55.204441</ele>
        <time>2020-06-12T18:24:36.645Z</time>
      </trkpt>
      <trkpt lat="50.46007" lon="1.5905">
        <ele>55.17587</ele>
        <time>2020-06-12T18:24:38.663Z</time>
      </trkpt>
      <trkpt lat="50.46011" lon="1.59023">
        <ele>55.161927</ele>
        <time>2020-06-12T18:24:40.637Z</time>
      </trkpt>
      <trkpt lat="50.46015" lon="1.58997">
        <ele>55.150413</ele>
        <time>2020-06-12T18:24:42.643Z</time>
      </trkpt>
      <trkpt lat="50.4602" lon="1.58971">
        <ele>55.13908</ele>
        <time>2020-06-12T18:24:44.652Z</time>
      </trkpt>
      <trkpt lat="50.46024" lon="1.58944">
        <ele>55.127386</ele>
        <time>2020-06-12T18:24:46.652Z</time>
      </trkpt>
      <trkpt lat="50.46028" lon="1.58917">
        <ele>55.115702</ele>
        <time>2020-06-12T18:24:48.648Z</time>
      </trkpt>
      <trkpt lat="50.46031" lon="1.58903">
        <ele>55.109636</ele>
        <time>2020-06-12T18:24:49.707Z</time>
      </trkpt>
      <trkpt lat="50.46033" lon="1.58889">
        <ele>55.10357</ele>
        <time>2020-06-12T18:24:50.649Z</time>
      </trkpt>
      <trkpt lat="50.46035" lon="1.58876">
        <ele>55.09753</ele>
        <time>2020-06-12T18:24:51.639Z</time>
      </trkpt>
      <trkpt lat="50.46039" lon="1.58849">
        <ele>55.085964</ele>
        <time>2020-06-12T18:24:53.658Z</time>
      </trkpt>
      <trkpt lat="50.46043" lon="1.58823">
        <ele>55.074582</ele>
        <time>2020-06-12T18:24:55.660Z</time>
      </trkpt>
      <trkpt lat="50.46047" lon="1.58796">
        <ele>55.06315</ele>
        <time>2020-06-12T18:24:57.654Z</time>
      </trkpt>
      <trkpt lat="50.46052" lon="1.5877">
        <ele>55.051805</ele>
        <time>2020-06-12T18:24:59.653Z</time>
      </trkpt>
      <trkpt lat="50.46055" lon="1.58746">
        <ele>55.042215</ele>
        <time>2020-06-12T18:25:01.653Z</time>
      </trkpt>
      <trkpt lat="50.46059" lon="1.5872">
        <ele>55.032307</ele>
        <time>2020-06-12T18:25:03.648Z</time>
      </trkpt>
      <trkpt lat="50.46063" lon="1.58695">
        <ele>55.022379</ele>
        <time>2020-06-12T18:25:05.673Z</time>
      </trkpt>
      <trkpt lat="50.46068" lon="1.5867">
        <ele>55.01253</ele>
        <time>2020-06-12T18:25:07.647Z</time>
      </trkpt>
      <trkpt lat="50.46072" lon="1.58644">
        <ele>55.002682</ele>
        <time>2020-06-12T18:25:09.645Z</time>
      </trkpt>
      <trkpt lat="50.46075" lon="1.58619">
        <ele>54.99306</ele>
        <time>2020-06-12T18:25:11.673Z</time>
      </trkpt>
      <trkpt lat="50.46079" lon="1.58594">
        <ele>54.983302</ele>
        <time>2020-06-12T18:25:13.645Z</time>
      </trkpt>
      <trkpt lat="50.46083" lon="1.58569">
        <ele>54.973526</ele>
        <time>2020-06-12T18:25:15.652Z</time>
      </trkpt>
      <trkpt lat="50.46087" lon="1.58545">
        <ele>54.963822</ele>
        <time>2020-06-12T18:25:17.643Z</time>
      </trkpt>
      <trkpt lat="50.46092" lon="1.58519">
        <ele>54.953696</ele>
        <time>2020-06-12T18:25:19.639Z</time>
      </trkpt>
      <trkpt lat="50.46096" lon="1.58493">
        <ele>54.96035</ele>
        <time>2020-06-12T18:25:21.646Z</time>
      </trkpt>
      <trkpt lat="50.46099" lon="1.58467">
        <ele>55.026967</ele>
        <time>2020-06-12T18:25:23.655Z</time>
      </trkpt>
      <trkpt lat="50.46103" lon="1.58442">
        <ele>55.092844</ele>
        <time>2020-06-12T18:25:25.645Z</time>
      </trkpt>
      <trkpt lat="50.46107" lon="1.58417">
        <ele>55.15889</ele>
        <time>2020-06-12T18:25:27.679Z</time>
      </trkpt>
      <trkpt lat="50.46111" lon="1.58391">
        <ele>55.224545</ele>
        <time>2020-06-12T18:25:29.639Z</time>
      </trkpt>
      <trkpt lat="50.46115" lon="1.58365">
        <ele>55.292232</ele>
        <time>2020-06-12T18:25:31.650Z</time>
      </trkpt>
      <trkpt lat="50.46119" lon="1.58339">
        <ele>55.359599</ele>
        <time>2020-06-12T18:25:33.642Z</time>
      </trkpt>
      <trkpt lat="50.46124" lon="1.58313">
        <ele>55.428286</ele>
        <time>2020-06-12T18:25:35.651Z</time>
      </trkpt>
      <trkpt lat="50.46128" lon="1.58287">
        <ele>55.495451</ele>
        <time>2020-06-12T18:25:37.645Z</time>
      </trkpt>
      <trkpt lat="50.46132" lon="1.58262">
        <ele>55.56175</ele>
        <time>2020-06-12T18:25:39.631Z</time>
      </trkpt>
      <trkpt lat="50.46136" lon="1.58236">
        <ele>55.627596</ele>
        <time>2020-06-12T18:25:41.656Z</time>
      </trkpt>
      <trkpt lat="50.4614" lon="1.58211">
        <ele>55.761591</ele>
        <time>2020-06-12T18:25:43.673Z</time>
      </trkpt>
      <trkpt lat="50.46144" lon="1.58185">
        <ele>55.95157</ele>
        <time>2020-06-12T18:25:45.645Z</time>
      </trkpt>
      <trkpt lat="50.46147" lon="1.5816">
        <ele>56.140556</ele>
        <time>2020-06-12T18:25:47.673Z</time>
      </trkpt>
      <trkpt lat="50.46151" lon="1.58135">
        <ele>56.330276</ele>
        <time>2020-06-12T18:25:49.652Z</time>
      </trkpt>
      <trkpt lat="50.46155" lon="1.58111">
        <ele>56.509504</ele>
        <time>2020-06-12T18:25:51.650Z</time>
      </trkpt>
      <trkpt lat="50.46159" lon="1.58088">
        <ele>56.677013</ele>
        <time>2020-06-12T18:25:53.679Z</time>
      </trkpt>
      <trkpt lat="50.46162" lon="1.58067">
        <ele>56.83592</ele>
        <time>2020-06-12T18:25:55.671Z</time>
      </trkpt>
      <trkpt lat="50.46165" lon="1.58046">
        <ele>56.997501</ele>
        <time>2020-06-12T18:25:57.652Z</time>
      </trkpt>
      <trkpt lat="50.46169" lon="1.58026">
        <ele>57.145822</ele>
        <time>2020-06-12T18:25:59.663Z</time>
      </trkpt>
      <trkpt lat="50.46172" lon="1.58006">
        <ele>57.294284</ele>
        <time>2020-06-12T18:26:01.650Z</time>
      </trkpt>
      <trkpt lat="50.46174" lon="1.57987">
        <ele>57.436262</ele>
        <time>2020-06-12T18:26:03.639Z</time>
      </trkpt>
      <trkpt lat="50.46179" lon="1.57968">
        <ele>57.585098</ele>
        <time>2020-06-12T18:26:05.659Z</time>
      </trkpt>
      <trkpt lat="50.4619" lon="1.57956">
        <ele>57.729964</ele>
        <time>2020-06-12T18:26:07.657Z</time>
      </trkpt>
      <trkpt lat="50.46203" lon="1.57949">
        <ele>57.836521</ele>
        <time>2020-06-12T18:26:09.632Z</time>
      </trkpt>
      <trkpt lat="50.46216" lon="1.5794">
        <ele>57.940933</ele>
        <time>2020-06-12T18:26:11.656Z</time>
      </trkpt>
      <trkpt lat="50.46228" lon="1.57933">
        <ele>58.037583</ele>
        <time>2020-06-12T18:26:13.639Z</time>
      </trkpt>
      <trkpt lat="50.4624" lon="1.57926">
        <ele>58.134781</ele>
        <time>2020-06-12T18:26:15.628Z</time>
      </trkpt>
      <trkpt lat="50.46252" lon="1.57918">
        <ele>58.231987</ele>
        <time>2020-06-12T18:26:17.649Z</time>
      </trkpt>
      <trkpt lat="50.46264" lon="1.5791">
        <ele>58.332356</ele>
        <time>2020-06-12T18:26:19.656Z</time>
      </trkpt>
      <trkpt lat="50.46276" lon="1.579">
        <ele>58.437245</ele>
        <time>2020-06-12T18:26:21.639Z</time>
      </trkpt>
      <trkpt lat="50.46289" lon="1.57892">
        <ele>58.54096</ele>
        <time>2020-06-12T18:26:23.652Z</time>
      </trkpt>
      <trkpt lat="50.46301" lon="1.57884">
        <ele>58.641285</ele>
        <time>2020-06-12T18:26:25.640Z</time>
      </trkpt>
      <trkpt lat="50.46315" lon="1.57875">
        <ele>58.751199</ele>
        <time>2020-06-12T18:26:27.649Z</time>
      </trkpt>
      <trkpt lat="50.46329" lon="1.57866">
        <ele>58.86648</ele>
        <time>2020-06-12T18:26:29.673Z</time>
      </trkpt>
      <trkpt lat="50.46343" lon="1.57858">
        <ele>58.980257</ele>
        <time>2020-06-12T18:26:31.666Z</time>
      </trkpt>
      <trkpt lat="50.46357" lon="1.5785">
        <ele>59.076142</ele>
        <time>2020-06-12T18:26:33.652Z</time>
      </trkpt>
      <trkpt lat="50.46372" lon="1.57843">
        <ele>59.076142</ele>
        <time>2020-06-12T18:26:35.648Z</time>
      </trkpt>
      <trkpt lat="50.46386" lon="1.57835">
        <ele>59.076142</ele>
        <time>2020-06-12T18:26:37.641Z</time>
      </trkpt>
      <trkpt lat="50.464" lon="1.57826">
        <ele>59.076142</ele>
        <time>2020-06-12T18:26:39.652Z</time>
      </trkpt>
      <trkpt lat="50.46414" lon="1.57816">
        <ele>59.076142</ele>
        <time>2020-06-12T18:26:41.645Z</time>
      </trkpt>
      <trkpt lat="50.46428" lon="1.57807">
        <ele>59.076142</ele>
        <time>2020-06-12T18:26:43.648Z</time>
      </trkpt>
      <trkpt lat="50.46442" lon="1.57798">
        <ele>59.076142</ele>
        <time>2020-06-12T18:26:45.657Z</time>
      </trkpt>
      <trkpt lat="50.46454" lon="1.5779">
        <ele>59.076142</ele>
        <time>2020-06-12T18:26:47.657Z</time>
      </trkpt>
      <trkpt lat="50.46465" lon="1.57783">
        <ele>59.076142</ele>
        <time>2020-06-12T18:26:49.636Z</time>
      </trkpt>
      <trkpt lat="50.46476" lon="1.57777">
        <ele>59.076142</ele>
        <time>2020-06-12T18:26:51.635Z</time>
      </trkpt>
      <trkpt lat="50.46484" lon="1.5777">
        <ele>59.076142</ele>
        <time>2020-06-12T18:26:53.658Z</time>
      </trkpt>
      <trkpt lat="50.46494" lon="1.57764">
        <ele>59.076142</ele>
        <time>2020-06-12T18:26:56.658Z</time>
      </trkpt>
    </trkseg>
  </trk>
</gpx>